[[{"header":{"parameterUnit":"m.s-1","parameterCategory":1,"la1":30.6,"la2":29.2853,"lo1":-89.7004,"lo2":-87.6739,"dy":0.0162,"dx":0.0183,"nx":112,"ny":82,"refTime":"2023-09-03T00:00:00:Z","depth":0,"parameterNumber":2,"parameterNumberName":"U-component_of_WINDS"},"data":[0.0,0.0,0.0,0.0,0.0,0.0,0.0,0.0,0.0,0.0,0.0,0.0,0.0,0.0,0.0,0.0,0.0,0.0,0.0,0.0,0.0,0.0,0.0,0.0,0.0,0.0,0.0,0.0,0.0,0.0,0.0,0.0,0.0,0.0,0.0,0.0,0.0,0.0,0.0,0.0,0.0,0.0,0.0,0.0,0.0,0.0,0.0,0.0,0.0,0.0,0.0,0.0,0.0,0.0,0.0,0.0,0.0,0.0,0.0,0.0,0.0,0.0,0.0,0.0,0.0,0.0,0.0,0.0,0.0,0.0,0.0,0.0,0.0,0.0,0.0,0.0,0.0,0.0,0.0,0.0,0.0,0.0,0.0,0.0,0.0,0.0,0.0,0.0,0.0,0.0,-3.5921,-3.5987,-3.5995,-3.5998,-3.6001,-3.5948,-3.583,-3.5706,0.0,0.0,0.0,0.0,0.0,0.0,0.0,0.0,0.0,0.0,0.0,0.0,0.0,0.0,0.0,0.0,0.0,0.0,0.0,0.0,0.0,0.0,0.0,0.0,0.0,0.0,0.0,0.0,0.0,0.0,0.0,0.0,0.0,0.0,0.0,0.0,0.0,0.0,0.0,0.0,0.0,0.0,0.0,0.0,0.0,0.0,0.0,0.0,0.0,0.0,0.0,0.0,0.0,0.0,0.0,0.0,0.0,0.0,0.0,0.0,0.0,0.0,0.0,0.0,0.0,0.0,0.0,0.0,0.0,0.0,0.0,0.0,0.0,0.0,0.0,0.0,0.0,0.0,0.0,0.0,0.0,0.0,0.0,0.0,0.0,0.0,0.0,0.0,0.0,0.0,0.0,0.0,0.0,0.0,0.0,0.0,0.0,0.0,0.0,0.0,0.0,0.0,0.0,0.0,-3.5939,-3.5996,-3.6007,-3.5991,-3.6001,-3.5941,-3.5833,-3.5698,0.0,0.0,0.0,0.0,0.0,0.0,0.0,0.0,0.0,0.0,0.0,0.0,0.0,0.0,0.0,0.0,0.0,0.0,0.0,0.0,0.0,0.0,0.0,0.0,0.0,0.0,0.0,0.0,0.0,0.0,0.0,0.0,0.0,0.0,0.0,0.0,0.0,0.0,0.0,0.0,0.0,0.0,0.0,0.0,0.0,0.0,0.0,0.0,0.0,0.0,0.0,0.0,0.0,0.0,0.0,0.0,0.0,0.0,0.0,0.0,0.0,0.0,0.0,0.0,0.0,0.0,0.0,0.0,0.0,0.0,0.0,0.0,0.0,0.0,0.0,0.0,0.0,0.0,0.0,0.0,0.0,0.0,0.0,0.0,0.0,0.0,0.0,0.0,0.0,0.0,0.0,0.0,0.0,0.0,0.0,0.0,0.0,0.0,0.0,0.0,0.0,0.0,0.0,-3.5917,-3.5969,-3.5994,-3.6002,-3.5986,-3.5947,-3.5911,-3.5841,-3.5654,-3.5457,0.0,0.0,0.0,0.0,0.0,0.0,0.0,0.0,0.0,0.0,0.0,0.0,0.0,0.0,0.0,0.0,0.0,0.0,0.0,0.0,0.0,0.0,0.0,0.0,0.0,0.0,0.0,0.0,0.0,0.0,0.0,0.0,0.0,0.0,0.0,0.0,0.0,0.0,0.0,0.0,0.0,0.0,0.0,0.0,0.0,0.0,0.0,0.0,0.0,0.0,0.0,0.0,0.0,0.0,0.0,0.0,0.0,0.0,0.0,0.0,0.0,0.0,0.0,0.0,0.0,0.0,0.0,0.0,0.0,0.0,0.0,0.0,0.0,0.0,0.0,0.0,0.0,0.0,0.0,0.0,0.0,0.0,0.0,0.0,0.0,0.0,0.0,0.0,0.0,0.0,0.0,0.0,0.0,0.0,0.0,0.0,0.0,0.0,0.0,0.0,0.0,0.0,-3.5962,-3.5996,-3.5993,-3.6003,-3.5986,-3.5936,-3.5883,-3.5807,-3.5599,-3.5419,0.0,0.0,0.0,0.0,0.0,0.0,0.0,0.0,0.0,0.0,0.0,0.0,0.0,0.0,0.0,0.0,0.0,0.0,0.0,0.0,0.0,0.0,0.0,0.0,0.0,0.0,0.0,0.0,0.0,0.0,0.0,0.0,0.0,0.0,0.0,0.0,0.0,0.0,0.0,0.0,0.0,0.0,0.0,0.0,0.0,0.0,0.0,0.0,0.0,0.0,0.0,0.0,0.0,0.0,0.0,0.0,0.0,0.0,0.0,0.0,0.0,0.0,0.0,0.0,0.0,0.0,0.0,0.0,0.0,0.0,0.0,0.0,0.0,0.0,0.0,0.0,0.0,0.0,0.0,0.0,0.0,0.0,0.0,0.0,0.0,0.0,0.0,0.0,0.0,0.0,0.0,0.0,0.0,0.0,0.0,0.0,0.0,0.0,0.0,0.0,0.0,0.0,-3.5955,-3.5994,-3.5995,-3.6009,-3.5996,-3.5988,-3.588,-3.5753,-3.5618,-3.547,0.0,0.0,0.0,0.0,0.0,0.0,0.0,0.0,0.0,0.0,0.0,0.0,0.0,0.0,0.0,0.0,0.0,0.0,0.0,0.0,0.0,0.0,0.0,0.0,0.0,0.0,0.0,0.0,0.0,0.0,0.0,0.0,0.0,0.0,0.0,0.0,0.0,0.0,0.0,0.0,0.0,0.0,0.0,0.0,0.0,0.0,0.0,0.0,0.0,0.0,0.0,0.0,0.0,0.0,0.0,0.0,0.0,0.0,0.0,0.0,0.0,0.0,0.0,0.0,0.0,0.0,0.0,0.0,0.0,0.0,0.0,0.0,0.0,0.0,0.0,0.0,0.0,0.0,0.0,0.0,0.0,0.0,0.0,0.0,0.0,0.0,0.0,0.0,0.0,0.0,0.0,0.0,0.0,0.0,0.0,0.0,0.0,0.0,0.0,0.0,0.0,0.0,-3.595,-3.5992,0.0,-3.5991,-3.5975,-3.594,-3.5883,-3.5784,-3.5599,0.0,0.0,0.0,0.0,0.0,0.0,0.0,0.0,0.0,0.0,0.0,0.0,0.0,0.0,0.0,0.0,0.0,0.0,0.0,0.0,0.0,0.0,0.0,0.0,0.0,0.0,0.0,0.0,0.0,0.0,0.0,0.0,0.0,0.0,0.0,0.0,0.0,0.0,0.0,0.0,0.0,0.0,0.0,0.0,0.0,0.0,0.0,0.0,0.0,0.0,0.0,0.0,0.0,0.0,0.0,0.0,0.0,0.0,0.0,0.0,0.0,0.0,0.0,0.0,0.0,0.0,0.0,0.0,0.0,0.0,0.0,0.0,0.0,0.0,0.0,0.0,0.0,0.0,0.0,0.0,0.0,0.0,0.0,0.0,0.0,0.0,0.0,0.0,0.0,0.0,0.0,0.0,0.0,0.0,0.0,0.0,0.0,0.0,0.0,0.0,0.0,0.0,-3.5899,-3.596,-3.6005,0.0,-3.5994,-3.5982,-3.5949,-3.5911,-3.5702,-3.5257,0.0,0.0,0.0,0.0,0.0,0.0,0.0,0.0,0.0,0.0,0.0,0.0,0.0,0.0,0.0,0.0,0.0,0.0,0.0,0.0,0.0,0.0,0.0,0.0,0.0,0.0,0.0,0.0,0.0,0.0,0.0,0.0,0.0,0.0,0.0,0.0,0.0,0.0,0.0,0.0,0.0,0.0,0.0,0.0,0.0,0.0,0.0,0.0,0.0,0.0,0.0,0.0,0.0,0.0,0.0,0.0,0.0,0.0,0.0,0.0,0.0,0.0,0.0,0.0,0.0,0.0,0.0,0.0,0.0,0.0,0.0,0.0,0.0,0.0,0.0,0.0,0.0,0.0,0.0,0.0,0.0,0.0,0.0,0.0,0.0,0.0,0.0,0.0,0.0,0.0,0.0,0.0,0.0,0.0,0.0,0.0,0.0,0.0,0.0,0.0,0.0,0.0,-3.5906,-3.5962,-3.5991,-3.6009,-3.5996,-3.5992,-3.5994,-3.5929,-3.5463,0.0,0.0,0.0,0.0,0.0,0.0,0.0,0.0,0.0,0.0,0.0,0.0,0.0,0.0,0.0,0.0,0.0,0.0,0.0,0.0,0.0,0.0,0.0,0.0,0.0,0.0,0.0,0.0,0.0,0.0,0.0,0.0,0.0,0.0,0.0,0.0,0.0,0.0,0.0,0.0,0.0,0.0,0.0,0.0,0.0,0.0,0.0,0.0,0.0,0.0,0.0,0.0,0.0,0.0,0.0,0.0,0.0,0.0,0.0,0.0,0.0,0.0,0.0,0.0,0.0,0.0,0.0,0.0,0.0,0.0,0.0,0.0,0.0,0.0,0.0,0.0,0.0,0.0,0.0,0.0,0.0,0.0,0.0,0.0,0.0,0.0,0.0,0.0,0.0,0.0,0.0,0.0,0.0,0.0,0.0,0.0,0.0,0.0,0.0,0.0,0.0,0.0,0.0,-3.5883,-3.5916,-3.596,-3.5998,-3.5992,-3.5995,-3.6003,-3.543,-3.4884,-3.4509,0.0,0.0,0.0,0.0,0.0,0.0,0.0,0.0,0.0,0.0,0.0,0.0,0.0,0.0,0.0,0.0,0.0,0.0,0.0,0.0,0.0,0.0,0.0,0.0,0.0,0.0,0.0,0.0,0.0,0.0,0.0,0.0,0.0,0.0,0.0,0.0,0.0,0.0,0.0,0.0,0.0,0.0,0.0,0.0,0.0,0.0,0.0,0.0,0.0,0.0,0.0,0.0,0.0,0.0,0.0,0.0,0.0,0.0,0.0,0.0,0.0,0.0,0.0,0.0,0.0,0.0,0.0,0.0,0.0,0.0,0.0,0.0,0.0,0.0,0.0,0.0,0.0,0.0,0.0,0.0,0.0,0.0,0.0,0.0,0.0,0.0,0.0,0.0,0.0,0.0,0.0,0.0,0.0,0.0,0.0,0.0,0.0,0.0,0.0,0.0,0.0,0.0,-3.5886,-3.5907,-3.5927,-3.5962,-3.5984,-3.5995,-3.5994,-3.5175,-3.4486,-3.4059,0.0,0.0,0.0,0.0,0.0,0.0,0.0,0.0,0.0,0.0,0.0,0.0,0.0,0.0,0.0,0.0,0.0,0.0,0.0,0.0,0.0,0.0,0.0,0.0,0.0,0.0,0.0,0.0,0.0,0.0,0.0,0.0,0.0,0.0,0.0,0.0,0.0,0.0,0.0,0.0,0.0,0.0,0.0,0.0,0.0,0.0,0.0,0.0,0.0,0.0,0.0,0.0,0.0,0.0,0.0,0.0,0.0,0.0,0.0,0.0,0.0,0.0,0.0,0.0,0.0,0.0,0.0,0.0,0.0,0.0,0.0,0.0,0.0,0.0,0.0,0.0,0.0,0.0,0.0,0.0,0.0,0.0,0.0,0.0,0.0,0.0,0.0,0.0,0.0,0.0,0.0,0.0,0.0,0.0,0.0,0.0,0.0,0.0,0.0,0.0,0.0,0.0,-3.5906,-3.5899,-3.5892,-3.5903,-3.595,-3.5967,-3.5897,-3.5012,-3.4119,-3.3234,0.0,0.0,0.0,0.0,0.0,0.0,0.0,0.0,0.0,0.0,0.0,0.0,0.0,0.0,0.0,0.0,0.0,0.0,0.0,0.0,0.0,0.0,0.0,0.0,0.0,0.0,0.0,0.0,0.0,0.0,0.0,0.0,0.0,0.0,0.0,0.0,0.0,0.0,0.0,0.0,0.0,0.0,0.0,0.0,0.0,0.0,0.0,0.0,0.0,0.0,0.0,0.0,0.0,0.0,0.0,0.0,0.0,0.0,0.0,0.0,-4.4738,0.0,0.0,0.0,0.0,0.0,0.0,0.0,0.0,0.0,0.0,0.0,0.0,0.0,0.0,0.0,0.0,0.0,0.0,0.0,0.0,0.0,0.0,0.0,0.0,0.0,0.0,0.0,0.0,0.0,0.0,0.0,0.0,0.0,0.0,0.0,0.0,0.0,0.0,0.0,0.0,0.0,-3.5883,-3.5892,-3.5899,-3.5892,-3.5908,-3.5677,-3.5034,-3.418,-3.3288,-3.2402,-3.1411,0.0,0.0,0.0,0.0,0.0,0.0,0.0,0.0,0.0,0.0,0.0,0.0,0.0,0.0,0.0,0.0,0.0,0.0,0.0,0.0,0.0,0.0,0.0,0.0,0.0,0.0,0.0,0.0,0.0,0.0,0.0,0.0,0.0,0.0,0.0,0.0,0.0,0.0,0.0,0.0,0.0,0.0,0.0,0.0,0.0,0.0,0.0,0.0,0.0,0.0,0.0,0.0,0.0,0.0,0.0,0.0,0.0,0.0,0.0,0.0,-4.49,0.0,0.0,0.0,0.0,0.0,0.0,0.0,0.0,0.0,0.0,0.0,0.0,0.0,0.0,0.0,0.0,0.0,0.0,0.0,0.0,0.0,0.0,0.0,0.0,0.0,0.0,0.0,0.0,0.0,0.0,0.0,0.0,0.0,0.0,0.0,0.0,0.0,0.0,0.0,0.0,-3.5882,-3.5894,-3.5903,-3.5908,-3.5907,-3.5561,-3.4768,-3.3903,-3.3026,-3.2161,-3.123,0.0,0.0,0.0,0.0,0.0,0.0,0.0,0.0,0.0,0.0,0.0,0.0,0.0,0.0,0.0,0.0,0.0,0.0,0.0,0.0,0.0,0.0,0.0,0.0,0.0,0.0,0.0,0.0,0.0,0.0,0.0,0.0,0.0,0.0,0.0,0.0,0.0,0.0,0.0,0.0,0.0,0.0,0.0,0.0,0.0,0.0,0.0,0.0,0.0,0.0,0.0,0.0,0.0,-4.4135,-4.4199,-4.4199,-4.4255,-4.43,-4.4314,-4.4537,-4.477,-4.5038,0.0,0.0,0.0,0.0,0.0,0.0,0.0,0.0,0.0,0.0,0.0,0.0,0.0,0.0,0.0,0.0,0.0,0.0,0.0,0.0,0.0,0.0,0.0,0.0,0.0,-3.4257,-3.4136,0.0,0.0,0.0,0.0,0.0,0.0,0.0,0.0,0.0,0.0,0.0,0.0,-3.5861,-3.5882,-3.5837,-3.5687,-3.5675,-3.529,-3.4339,-3.3581,-3.2792,-3.1927,-3.1331,-3.0994,0.0,0.0,0.0,0.0,0.0,0.0,0.0,0.0,0.0,0.0,0.0,0.0,0.0,0.0,0.0,0.0,0.0,0.0,0.0,0.0,0.0,0.0,0.0,0.0,0.0,0.0,0.0,0.0,0.0,0.0,0.0,0.0,-3.9408,-3.991,0.0,0.0,0.0,0.0,0.0,0.0,0.0,0.0,0.0,0.0,0.0,0.0,0.0,0.0,-4.3897,-4.3958,-4.4005,-4.4005,-4.4135,-4.4199,-4.4199,-4.4255,-4.43,-4.43,-4.4344,0.0,-4.4757,-4.4898,0.0,0.0,0.0,0.0,0.0,0.0,0.0,0.0,0.0,0.0,0.0,0.0,0.0,0.0,0.0,0.0,0.0,0.0,0.0,0.0,0.0,0.0,-3.4386,-3.4269,-3.4086,-3.3934,0.0,-3.4086,-3.4257,-3.458,0.0,0.0,0.0,0.0,0.0,0.0,0.0,0.0,-3.573,-3.5775,-3.5551,-3.4851,-3.4772,-3.4135,-3.2571,-3.2337,-3.1905,-3.1035,-3.1571,-3.1918,-3.1928,-3.2681,0.0,0.0,0.0,0.0,0.0,0.0,0.0,0.0,0.0,0.0,0.0,0.0,0.0,0.0,0.0,0.0,0.0,0.0,0.0,0.0,0.0,0.0,0.0,0.0,0.0,0.0,0.0,0.0,0.0,-3.8551,-3.9142,-3.9582,-4.007,-4.0485,0.0,0.0,0.0,0.0,0.0,0.0,0.0,0.0,0.0,-4.3322,-4.3444,-4.3565,-4.3666,-4.3846,-4.3926,-4.3926,-4.4039,-4.4085,-4.4067,-4.3651,-4.3457,-4.3424,-4.2992,-4.287,-4.3108,-4.4304,-4.4934,-4.5201,0.0,0.0,0.0,0.0,0.0,-4.1031,-4.0403,-4.0101,0.0,0.0,0.0,0.0,0.0,0.0,0.0,0.0,0.0,0.0,0.0,0.0,0.0,-3.4011,-3.3842,-3.3726,-3.3726,-3.382,-3.3998,0.0,-3.4655,-3.4859,-3.501,0.0,0.0,0.0,0.0,-3.5513,-3.5588,-3.5684,-3.5445,-3.4622,-3.4577,-3.3913,-3.224,-3.2099,-3.173,-3.0855,-3.1621,-3.2102,-3.2091,-3.3383,-3.4263,0.0,0.0,0.0,0.0,0.0,0.0,0.0,0.0,0.0,0.0,0.0,0.0,0.0,0.0,0.0,0.0,0.0,0.0,0.0,0.0,0.0,0.0,0.0,0.0,0.0,0.0,0.0,0.0,-3.8343,-3.8788,-3.9195,-3.979,-4.028,0.0,0.0,0.0,0.0,0.0,0.0,-4.2234,-4.2476,-4.271,-4.2955,-4.3142,-4.3286,-4.341,-4.3682,-4.3849,-4.3883,-4.3945,-4.3878,-4.367,-4.3076,-4.2686,-4.2463,-4.185,-4.1634,-4.1814,-4.3589,-4.443,-4.4634,-4.5125,-4.4863,-4.4094,-4.3237,-4.2313,-4.1332,-4.0337,-3.9895,-3.9596,-3.8686,0.0,-3.7243,-3.5834,0.0,0.0,0.0,0.0,-3.4185,-3.4036,-3.3947,-3.3855,-3.3726,-3.3633,-3.3549,-3.3549,-3.3601,-3.3788,0.0,-3.4528,-3.4749,-3.4917,0.0,0.0,0.0,0.0,-3.5357,-3.5432,-3.5365,-3.4993,-3.4192,-3.3988,-3.3299,-3.1855,-3.1736,-3.1568,-3.115,-3.1948,-3.2539,-3.2753,-3.4213,-3.5027,-3.5021,0.0,0.0,0.0,0.0,0.0,0.0,0.0,0.0,0.0,0.0,0.0,0.0,0.0,0.0,0.0,0.0,0.0,0.0,0.0,0.0,0.0,0.0,0.0,0.0,0.0,0.0,0.0,0.0,0.0,-3.8761,-3.9372,0.0,0.0,0.0,0.0,-4.1093,-4.1443,-4.1692,-4.1823,-4.2142,-4.2409,-4.2629,-4.2882,-4.3087,-4.3196,-4.3478,-4.3682,-4.3804,-4.3883,-4.3537,-4.2853,-4.2816,-4.237,-4.1664,-4.1609,-4.1605,-4.1694,-4.281,-4.3367,-4.3593,-4.4691,-4.4639,-4.3806,-4.3005,-4.2173,-4.1234,-4.0113,-3.967,-3.9443,-3.8434,-3.6976,-3.5467,-3.4556,-3.421,0.0,0.0,-3.3972,-3.3972,-3.378,-3.3671,-3.3591,-3.3452,-3.3408,-3.3408,-3.3408,-3.3506,-3.3712,0.0,-3.4281,-3.4498,-3.4772,0.0,-3.4954,-3.5088,-3.5113,-3.5163,-3.5289,-3.4656,-3.3904,-3.3156,-3.2387,-3.1618,-3.0849,-3.0761,-3.113,-3.1971,-3.2843,-3.3719,-3.4527,-3.5447,-3.5937,-3.5937,-3.5975,0.0,0.0,0.0,0.0,0.0,0.0,0.0,0.0,0.0,0.0,0.0,0.0,0.0,0.0,0.0,0.0,0.0,0.0,0.0,0.0,0.0,0.0,0.0,0.0,0.0,0.0,0.0,0.0,-3.8455,-3.9088,0.0,-4.0028,-4.033,-4.0631,-4.0959,-4.1082,-4.1312,-4.1648,-4.178,-4.1977,-4.2269,-4.2514,-4.2673,-4.2805,-4.3178,-4.3136,-4.2708,-4.2908,-4.2646,-4.1961,-4.1482,-4.1089,-4.0806,-4.0234,-3.9993,-4.0062,-4.1059,-4.1868,-4.2592,-4.3611,-4.3573,-4.2889,-4.2571,-4.1867,-4.0927,-3.9857,-3.9427,-3.9106,-3.762,-3.6357,-3.5267,-3.4295,-3.3985,-3.3934,-3.3766,-3.3726,-3.3698,-3.3477,-3.3422,-3.3364,-3.3241,-3.3211,-3.3211,-3.3211,-3.3345,-3.352,-3.3684,-3.4023,-3.4328,-3.452,-3.4678,-3.48,-3.4831,-3.4879,-3.4935,-3.5035,-3.4413,-3.3681,-3.2884,-3.2156,-3.1443,-3.0707,-3.0637,-3.1032,-3.1988,-3.2854,-3.3733,-3.461,-3.5474,-3.5931,-3.5942,-3.5945,-3.597,0.0,0.0,0.0,0.0,0.0,0.0,0.0,0.0,0.0,0.0,0.0,0.0,0.0,0.0,0.0,0.0,0.0,0.0,0.0,0.0,0.0,0.0,0.0,0.0,0.0,0.0,-3.777,-3.8059,-3.8689,-3.9249,-3.9582,-3.991,-4.0238,-4.0607,-4.0704,-4.0942,-4.1335,-4.1453,-4.1653,-4.1913,-4.1943,-4.2,-4.2078,-4.2193,-4.2032,-4.1626,-4.1881,-4.1636,-4.0969,-4.0507,-4.0144,-3.9865,-3.9305,-3.9059,-3.9115,-3.977,-4.0429,-4.1188,-4.2402,-4.263,-4.2195,-4.1882,-4.1374,-4.0691,-3.9675,-3.8878,-3.813,-3.6946,-3.5792,-3.4703,-3.4012,-3.3766,-3.3698,-3.3534,-3.3509,-3.3452,-3.3244,-3.3201,-3.3168,-3.3057,-3.3039,-3.3073,-3.3073,-3.318,-3.3334,-3.3408,-3.3775,-3.4136,-3.4281,-3.445,-3.4561,-3.4602,-3.4628,-3.4588,-3.4384,-3.3733,-3.2995,-3.2241,-3.1543,-3.0956,-3.05,-3.051,-3.0924,-3.1875,-3.2755,-3.3618,-3.45,-3.5382,-3.5864,-3.5868,-3.5884,-3.5926,-3.5967,0.0,0.0,0.0,0.0,0.0,0.0,0.0,0.0,0.0,0.0,0.0,0.0,0.0,0.0,0.0,0.0,0.0,0.0,0.0,0.0,0.0,0.0,0.0,-3.632,-3.6861,-3.7314,-3.7642,-3.8217,-3.8678,-3.8963,-3.9408,-3.9764,-4.0045,-4.032,-4.0583,-4.0847,-4.1169,-4.1401,-4.1547,-4.1221,-4.1054,-4.1036,-4.0614,-4.0456,-4.0651,-4.0857,-4.06,-3.9949,-4.001,-3.9616,-3.891,-3.895,-3.8979,-3.8993,-3.9059,-3.9129,-3.9378,-4.1159,-4.1844,-4.1732,-4.0969,-4.0675,-4.0499,-3.953,-3.8074,-3.6618,-3.6532,-3.5248,-3.3721,-3.3619,-3.3509,-3.3364,-3.3307,-3.3277,-3.3247,-3.306,-3.3013,-3.2981,-3.2916,-3.2948,-3.2979,-3.2979,-3.3042,-3.3117,-3.3226,-3.3583,-3.3884,-3.4061,-3.4197,-3.4305,-3.4337,-3.4356,0.0,-3.3353,-3.2552,-3.1797,-3.1163,-3.0427,-3.0032,-3.0171,-3.0306,-3.079,-3.1739,-3.2609,-3.3483,-3.4352,-3.5297,-3.5779,-3.5791,-3.5858,-3.5884,-3.5892,0.0,0.0,0.0,0.0,0.0,0.0,0.0,0.0,0.0,0.0,0.0,0.0,0.0,0.0,0.0,0.0,0.0,0.0,0.0,0.0,0.0,0.0,-3.4539,-3.5752,-3.6321,-3.6815,-3.7284,-3.777,-3.8258,-3.8678,-3.8898,-3.9195,-3.9549,-3.979,-4.007,-4.036,-4.0161,-4.017,-4.0498,-4.0032,-3.9855,-4.0015,-4.0076,-3.9893,-3.9464,-3.9675,-3.9445,-3.8839,-3.8918,-3.8869,-3.8765,-3.8822,-3.8848,-3.8848,-3.8979,-3.9007,-3.9118,-4.0384,-4.0549,-4.0122,-4.0374,-4.0021,-3.9365,-3.9067,-3.8256,-3.721,-3.6438,-3.5443,-3.4367,-3.3618,-3.3352,-3.3292,-3.3122,-3.3075,-3.306,-3.2948,-3.2884,-3.2854,-3.2838,-3.2771,-3.2705,-3.2705,-3.2804,-3.2707,-3.2168,-3.2265,-3.2718,-3.3588,-3.3881,-3.382,-3.3253,-3.321,0.0,-3.218,-3.141,-3.091,-3.0826,-3.0188,-2.9834,-2.9981,-3.0063,-3.0515,-3.1444,-3.2334,-3.3218,-3.414,-3.4988,-3.5512,-3.5645,-3.5724,-3.5783,0.0,0.0,0.0,0.0,0.0,0.0,0.0,0.0,0.0,0.0,0.0,0.0,0.0,0.0,0.0,0.0,0.0,0.0,0.0,0.0,0.0,0.0,-3.3108,-3.3534,-3.4442,-3.5335,-3.6054,-3.6523,-3.7072,-3.7549,-3.7956,-3.8315,-3.865,-3.9034,-3.9292,-3.9432,-3.9522,-3.937,-3.9281,-3.9358,-3.8924,-3.8737,-3.8936,-3.8898,-3.8736,-3.842,-3.8617,-3.8538,-3.8236,-3.83,-3.8366,0.0,-3.8575,-3.8637,-3.8652,-3.8833,-3.8881,0.0,0.0,0.0,0.0,0.0,-3.8832,-3.8254,-3.7871,-3.7169,-3.6329,-3.5688,-3.483,-3.3969,-3.3358,-3.3152,-3.3106,-3.2979,-3.295,-3.2918,-3.287,-3.2773,-3.2674,-3.2674,-3.2309,-3.1962,-3.1962,-3.1748,-3.141,-3.0967,0.0,0.0,-3.2067,-3.2469,-3.2535,-3.2059,-3.2025,-3.1757,-3.0962,-3.049,-3.016,-2.9917,-2.9613,-2.9456,-2.9588,-2.9729,0.0,0.0,0.0,-3.2619,-3.3929,-3.4745,0.0,0.0,0.0,-3.5605,-3.5674,0.0,0.0,0.0,-3.5853,-3.6334,0.0,0.0,0.0,0.0,0.0,0.0,0.0,0.0,0.0,0.0,0.0,0.0,0.0,0.0,0.0,0.0,-3.2128,-3.2367,-3.2761,-3.4002,-3.5055,-3.5559,-3.618,-3.6738,-3.7118,-3.7666,-3.8096,-3.8358,-3.8646,-3.8685,-3.8371,0.0,0.0,0.0,0.0,-3.7659,-3.7801,-3.742,-3.7334,-3.7522,-3.7721,-3.7863,-3.7949,-3.8018,-3.8051,-3.8103,-3.8269,-3.835,-3.8366,-3.8637,-3.8664,-3.8545,-3.8733,-3.8777,-3.8593,-3.7728,-3.7379,0.0,0.0,0.0,0.0,-3.4601,-3.3872,-3.3055,-3.2963,-3.29,-3.2852,-3.2836,-3.2787,-3.274,-3.2724,-3.252,-3.2315,-3.2315,-3.16,-3.0904,-3.0904,-3.0295,-2.9739,-2.9701,-2.9798,-2.9876,-2.9851,-3.0441,-3.0903,-3.0794,-3.0794,-3.0491,-2.9682,-2.9639,-2.9432,-2.8785,0.0,0.0,-2.9104,-2.9268,-2.9409,-2.9504,-3.0546,-3.1945,-3.3652,-3.4507,-3.5032,-3.5235,-3.5307,-3.5379,-3.5437,-3.5516,-3.5579,-3.5649,-3.5745,-3.6304,0.0,0.0,0.0,0.0,0.0,0.0,0.0,0.0,0.0,0.0,0.0,0.0,0.0,0.0,0.0,-3.1307,-3.127,-3.1344,-3.1813,-3.2475,-3.3485,-3.4876,-3.5544,-3.6117,-3.6738,-3.7148,-3.7268,-3.7013,-3.739,-3.7427,-3.6947,-3.6696,0.0,-3.6854,-3.6423,-3.6337,-3.663,-3.6702,-3.6853,-3.7124,0.0,0.0,-3.7667,-3.7685,-3.7793,-3.7933,-3.8036,-3.8069,-3.8086,-3.8305,-3.8004,-3.7434,-3.7567,-3.7583,-3.7415,-3.655,-3.6185,-3.6108,-3.5914,-3.5287,-3.4524,-3.4353,-3.3669,-3.29,-3.2657,-3.2591,0.0,-3.2455,-3.2421,-3.2387,-3.2336,-3.1777,-3.1202,-3.1133,-3.0404,-2.973,-2.973,-2.9558,-2.9214,-2.8561,-2.8507,-2.8384,-2.7813,-2.922,-3.022,-2.9579,-2.9472,-2.9173,-2.8375,-2.8324,-2.8322,-2.8242,-2.8316,-2.8428,-2.8628,-2.867,-2.8765,-2.8934,-3.0613,-3.2075,-3.3195,-3.4118,-3.4665,-3.4813,-3.4878,-3.4977,-3.5098,-3.5165,-3.5228,-3.5302,-3.5599,-3.6527,0.0,0.0,0.0,0.0,0.0,0.0,0.0,0.0,0.0,0.0,0.0,-2.9471,0.0,0.0,-2.9819,-3.0114,-3.0126,-3.0292,-3.0759,-3.127,-3.2245,-3.3899,-3.4576,-3.5038,-3.5426,-3.5799,-3.5947,-3.5655,-3.6022,-3.6085,-3.5673,-3.5503,-3.5456,-3.5509,-3.5385,-3.5481,-3.5849,-3.6054,-3.6329,-3.6632,-3.6794,-3.6974,-3.7204,-3.7299,-3.7393,-3.7503,-3.7631,-3.7488,-3.7129,-3.6941,-3.6626,-3.6258,-3.586,-3.6014,-3.6349,-3.5504,-3.5137,-3.4988,-3.4513,-3.4069,-3.3665,-3.344,-3.3008,-3.2573,-3.2404,-3.2301,-3.2249,-3.2162,-3.1865,-3.1533,-3.1463,-3.0733,-2.9971,-2.9917,-2.9124,-2.8403,-2.8403,-2.8061,-2.7636,-2.7265,-2.7232,-2.7131,-2.6809,-2.7637,-2.8291,-2.8179,-2.8185,-2.8042,-2.7642,-2.7698,-2.7742,-2.7689,-2.7747,-2.7833,-2.7942,-2.8139,-2.8342,-2.8541,-2.9923,-3.117,-3.2102,-3.3025,-3.3768,-3.4348,-3.4423,-3.4545,-3.4755,-3.4851,-3.4954,-3.5051,-3.5212,-3.6074,0.0,0.0,0.0,0.0,0.0,0.0,0.0,-2.7966,-2.8059,-2.8099,-2.8247,-2.8395,-2.8514,-2.8661,-2.8846,-2.8976,-2.9106,-2.9302,-2.9767,-3.0292,-3.1143,-3.2439,-3.3281,-3.3797,-3.3977,-3.4339,-3.4471,-3.4289,-3.4618,-3.4703,-3.435,-3.4457,-3.4446,-3.425,-3.4472,-3.4785,-3.5131,-3.5397,-3.5693,-3.6049,-3.6305,-3.6492,-3.6676,-3.6856,-3.6972,-3.7013,-3.7045,-3.6662,-3.5936,-3.5294,-3.5074,-3.5018,-3.41,-3.4255,-3.4954,-3.4339,-3.4024,-3.3804,-3.305,-3.277,-3.2739,-3.2489,-3.2318,-3.2179,-3.2091,-3.188,-3.1652,-3.1634,-3.1044,-3.0403,-3.0332,-2.9518,-2.8741,-2.865,-2.7823,-2.7053,-2.7053,-2.6497,-2.6028,-2.6083,-2.6083,-2.6101,-2.6156,-2.6174,-2.6367,-2.6972,-2.7083,-2.7131,-2.7131,-2.7228,-2.7244,-2.7147,-2.7161,-2.7224,-2.7272,-2.7574,-2.7894,-2.808,-2.9053,-2.9972,-3.077,-3.1815,-3.2765,-3.3624,-3.385,-3.408,-3.4334,-3.4464,-3.4591,-3.4742,-3.4745,-3.5425,-2.4616,-2.5179,-2.5695,-2.6019,-2.6227,-2.6445,0.0,0.0,-2.6528,-2.6757,-2.6787,-2.6928,-2.7551,-2.7672,-2.7874,-2.8459,-2.8459,-2.8526,-2.9131,-2.9574,-2.9935,-3.0166,-3.1441,-3.2583,-3.3248,-3.3245,-3.3062,-3.2765,-3.3276,-3.3342,-3.2702,-3.3009,-3.3245,-3.3351,-3.3781,-3.4084,-3.4234,-3.469,-3.4981,-3.5161,-3.5526,-3.5881,-3.6182,-3.6326,-3.6489,-3.662,-3.6116,-3.5495,-3.4815,-3.404,-3.3724,-3.3635,-3.2757,-3.2494,-3.2599,-3.2682,-3.2647,-3.251,-3.2404,-3.2335,-3.2266,-3.2161,-3.1966,-3.1749,-3.1617,-3.1025,-3.0385,-3.0326,-2.969,-2.9006,-2.8932,-2.8228,-2.7476,-2.7346,-2.6541,-2.5793,-2.5793,-2.5543,-2.5307,-2.531,-2.531,-2.5326,-2.5329,-2.5329,-2.5594,-2.6367,-2.6504,-2.6487,-2.6487,-2.6505,-2.6521,-2.6487,-2.6505,-2.6573,-2.6758,-2.6938,-2.7128,-2.7394,-2.8416,-2.913,-2.9419,-3.0995,-3.2047,-3.2387,-3.3098,-3.3588,-3.3788,-3.385,-3.3972,-3.4093,-3.4159,-3.4956,-2.3086,-2.3574,-2.4049,-2.4691,-2.5041,-2.5306,-2.5706,-2.5706,-2.5653,-2.5748,-2.5874,-2.5988,-2.6279,-2.6456,-2.6704,0.0,-2.7185,-2.7429,-2.8075,-2.8502,-2.8834,-2.9063,-2.9564,-3.0215,-3.1076,-3.1286,-3.1349,-3.1231,-3.1531,-3.1749,-3.1866,-3.2117,-3.2394,-3.2738,-3.3007,-3.3272,-3.3559,-3.3892,-3.4193,-3.4464,-3.4873,-3.5178,-3.5334,-3.5285,-3.5155,-3.4918,-3.4219,-3.38,-3.3587,-3.2784,-3.2508,-3.2526,-3.2088,-3.1858,-3.182,-3.2109,-3.2162,-3.2127,-3.2091,-3.2002,-3.1876,-3.1693,-3.1468,-3.1172,-3.0574,-3.0101,-2.9705,-2.925,-2.8486,-2.779,-2.7732,-2.6961,-2.6157,-2.5969,-2.5474,-2.4997,-2.4918,-2.4779,-2.4675,-2.4675,-2.4675,-2.4675,-2.4675,-2.4675,-2.4779,-2.5137,-2.5538,-2.585,-2.5921,-2.5905,-2.5888,-2.5921,-2.5921,-2.6012,-2.6157,-2.6333,-2.6539,-2.6757,-2.7277,-2.7847,-2.8521,-2.9358,-3.0143,-3.0805,-3.1706,-3.2253,-3.2433,-3.3067,-3.3451,-3.3546,-3.3675,-3.4097,-2.1409,-2.1889,-2.2419,-2.3294,-2.3833,-2.4231,-2.4712,-2.4765,-2.4733,-2.4807,-2.4935,-2.5073,-2.5189,-2.5464,-2.5675,-2.5904,-2.6071,-2.6362,-2.6969,-2.7418,-2.7735,-2.7831,-2.7879,-2.8104,-2.8658,-2.9255,-2.9642,-2.9775,-3.004,-3.0434,-3.0999,-3.1262,-3.158,-3.1992,-3.2216,-3.2492,-3.2873,-3.3076,-3.3366,-3.3739,-3.4093,-3.4252,-3.4176,-3.3978,-3.359,-3.3113,-3.2557,-3.2284,-3.2222,-3.1675,-3.1509,-3.1582,-3.147,-3.1355,-3.1312,-3.1454,-3.164,-3.1768,-3.1693,-3.1564,-3.1414,-3.1162,-3.0787,-3.0296,-2.9602,-2.9032,-2.85,-2.7961,-2.7175,-2.6469,-2.6428,-2.5767,-2.5052,-2.4875,-2.4578,-2.4277,-2.411,-2.4021,-2.3952,-2.3931,-2.3909,-2.3909,-2.3909,-2.3888,-2.3867,-2.3867,-2.4323,-2.4792,-2.5188,-2.5211,-2.5176,-2.5227,-2.5266,-2.5326,-2.5462,-2.5633,-2.5834,-2.5997,-2.6159,-2.6586,-2.7384,-2.7828,-2.8408,-2.9143,-3.0124,-3.0689,-3.0866,-3.189,-3.2458,-3.2583,-3.2949,-3.3189,-1.953,-2.0286,-2.1221,-2.1898,-2.2614,-2.327,-2.3757,-2.3691,-2.3624,-2.38,-2.3864,-2.4003,-2.4456,-2.4765,-2.4988,-2.52,-2.5242,-2.5401,-2.5893,-2.6268,-2.6402,-2.6016,-2.6486,-2.67,0.0,-2.7351,-2.8208,-2.8546,-2.9044,-2.9498,-2.9839,-3.0283,-3.0703,-3.1029,-3.1364,-3.1695,-3.2038,-3.2302,-3.2574,-3.2841,-3.3124,-3.3038,-3.2665,-3.2389,-3.197,-3.1473,-3.1586,-3.1261,-3.0679,-3.0784,-3.0845,-3.0825,-3.0757,-3.0733,-3.0675,-3.0435,-3.072,-3.121,-3.1075,-3.0938,-3.0804,-3.0593,-2.986,-2.9037,-2.8863,-2.7687,-2.6391,-2.6375,-2.5688,-2.4974,-2.4954,-2.4655,-2.4302,-2.4162,-2.3873,-2.3573,-2.3282,-2.3187,-2.3105,-2.2957,-2.2934,-2.2934,-2.2934,-2.283,-2.2754,-2.2754,-2.2762,-2.3165,-2.4219,-2.4343,-2.4343,-2.4343,-2.439,-2.4497,-2.4623,-2.4759,-2.4899,-2.5028,-2.5243,-2.5451,-2.567,-2.6617,-2.7274,-2.7564,-2.8431,-2.9018,-2.9265,-3.0161,-3.0698,-3.0992,-3.1777,-3.235,-1.787,-1.8557,-1.9276,-2.0104,-2.0799,-2.1392,-2.1828,-2.2015,-2.2113,-2.2183,-2.2457,-2.2721,-2.2887,-2.3256,-2.356,-2.3757,-2.395,-2.4262,-2.4882,-2.5094,-2.515,-2.5111,-2.5415,0.0,0.0,0.0,0.0,-2.7782,-2.8124,-2.8546,-2.9107,-2.9515,-2.9917,-3.0403,-3.0613,-3.0866,-3.1204,-3.1364,-3.1623,-3.1949,-3.1975,-3.155,-3.0747,-3.0656,-3.0282,-2.9745,-2.9881,-2.9893,-2.981,-2.9951,-3.0075,-3.014,-3.0011,-2.9984,-2.9941,-2.9722,-2.9705,-2.9881,-3.0321,-3.0305,-3.0036,-2.9388,-2.8764,-2.8055,-2.6824,-2.6035,-2.5383,-2.4864,-2.4425,-2.4101,-2.4101,-2.3843,-2.3537,-2.3355,-2.3009,-2.2649,-2.2328,-2.218,-2.2063,-2.1917,-2.1823,-2.1775,-2.1775,-2.1657,-2.1561,-2.1561,-2.2253,-2.2905,-2.3334,-2.3406,-2.3435,-2.3435,-2.3543,-2.3651,-2.3779,-2.4021,-2.4168,-2.4261,-2.4425,-2.4592,-2.4796,-2.5159,-2.5502,-2.5769,-2.6681,-2.7252,-2.7479,-2.8398,-2.899,-2.9264,-2.9615,-2.995,-1.6433,-1.7084,-1.7731,-1.8511,-1.9163,-1.9729,-2.0257,-2.0484,-2.0664,-2.0844,-2.1168,-2.1481,-2.157,-2.198,-2.2344,-2.2492,-2.2687,-2.3047,-2.3584,-2.38,-2.3893,-2.3881,-2.4212,-2.4338,0.0,0.0,0.0,-2.6858,-2.7095,-2.7484,-2.8176,-2.8565,-2.898,-2.9529,-2.9685,-2.9917,-3.0253,-3.0404,-3.0601,-3.0834,-3.0318,-2.9776,-2.9179,-2.8893,-2.8581,-2.8264,-2.8448,-2.8599,-2.8748,-2.8927,-2.9042,-2.9111,-2.9035,-2.8989,-2.8966,-2.8748,-2.8591,-2.8638,-2.9393,-2.9329,-2.8803,-2.8173,-2.7373,-2.6463,-2.5233,-2.4572,-2.411,-2.3554,-2.3304,-2.3201,-2.3201,-2.295,-2.2634,-2.242,-2.2081,-2.1728,-2.1372,-2.1202,-2.1066,-2.093,-2.0744,-2.062,-2.062,-2.0484,-2.0358,-2.0358,-2.1062,-2.1767,-2.2221,-2.23,-2.2308,-2.2354,-2.2483,-2.2597,-2.2665,-2.295,-2.315,-2.3245,-2.3435,-2.3608,-2.3785,-2.3918,-2.4085,-2.4287,-2.4993,-2.5462,-2.5719,-2.6611,-2.7187,-2.7473,-2.7882,-2.8188,-1.5201,-1.5913,-1.6629,-1.7117,-1.777,-1.8427,-1.8972,-1.9101,-1.9247,-1.9658,-2.0002,-2.0238,-2.0456,-2.0898,-2.1266,-2.1311,-2.1454,-2.1722,-2.1971,-2.2448,-2.262,0.0,0.0,0.0,0.0,0.0,0.0,-2.5653,0.0,-2.6368,-2.7095,-2.7497,-2.7941,-2.8417,-2.8643,-2.8885,-2.9202,-2.9393,-2.9487,-2.9407,-2.8216,-2.7756,-2.7942,-2.7179,-2.6886,-2.7027,-2.7297,-2.7414,-2.7424,-2.77,-2.7799,-2.7799,-2.7799,-2.7799,-2.7775,-2.75,-2.7414,-2.75,-2.8218,-2.7937,-2.718,-2.6937,-2.5755,-2.4372,-2.4061,-2.3339,-2.2603,-2.2466,-2.2314,-2.2221,-2.2221,-2.1992,-2.1674,-2.1393,-2.114,-2.082,-2.0422,-2.022,-2.008,-1.994,-1.9696,-1.9503,-1.9503,-1.9293,-1.9121,-1.9121,-1.9253,-1.9747,-2.0955,-2.1004,-2.0993,-2.1102,-2.1248,-2.1345,-2.1345,-2.1657,-2.1894,-2.2035,-2.2291,-2.2512,-2.264,-2.2889,-2.3068,-2.315,-2.3384,-2.3687,-2.4017,-2.4771,-2.5335,-2.5691,-2.653,-2.7015,-1.4442,-1.5022,-1.5594,-1.6062,-1.6473,-1.685,-1.7178,-1.7552,-1.7831,-1.7924,-1.835,-1.8719,-1.8934,-1.9255,-1.953,-1.9729,-2.0085,0.0,-2.0943,-2.1436,0.0,-2.1665,0.0,-2.2351,-2.2126,-2.2317,0.0,0.0,-2.4683,-2.5522,-2.6136,-2.6539,-2.6994,-2.753,-2.7716,-2.7947,-2.8189,-2.8193,-2.7768,-2.6984,-2.6933,-2.6581,-2.6089,-2.588,-2.5796,-2.585,-2.6013,-2.6187,-2.6385,-2.657,-2.6622,-2.6622,-2.6622,-2.6622,-2.6596,-2.6332,-2.616,-2.6023,-2.559,-2.5767,-2.6051,-2.5301,-2.4303,-2.3226,-2.2474,-2.1938,-2.1561,-2.1417,-2.1369,-2.1321,-2.1321,-2.1115,-2.0833,-2.0584,-2.022,-1.9862,-1.9448,-1.9253,-1.9083,-1.8804,-1.8509,-1.8336,-1.8336,-1.8267,-1.8224,-1.8224,-1.8251,-1.8712,-1.9863,-2.0067,-2.0131,-2.0144,-2.0295,-2.0408,-2.0509,-2.0769,-2.104,-2.1272,-2.1537,-2.1742,-2.1874,-2.2053,-2.2194,-2.2296,-2.2365,-2.2581,-2.2905,-2.3118,-2.3437,-2.3876,-2.41,-2.4414,-1.348,-1.401,-1.449,-1.4867,-1.5146,-1.548,-1.5866,-1.615,-1.6426,-1.6763,-1.7044,-1.7372,-1.7738,-1.7963,-1.8249,0.0,0.0,0.0,-1.9774,-2.0365,-2.0749,0.0,-2.1172,0.0,-2.1284,-2.153,-2.1883,0.0,-2.3534,-2.4504,-2.5063,-2.5534,-2.5988,-2.6483,-2.679,-2.6933,-2.6953,-2.6422,-2.5936,-2.5467,-2.5343,-2.5076,-2.4682,-2.4625,-2.4625,-2.4711,0.0,-2.5063,-2.5259,-2.5342,-2.5301,-2.5245,-2.5162,-2.5093,-2.4995,-2.4784,-2.4642,-2.4461,-2.3622,-2.3595,-2.3855,-2.3545,-2.2774,-2.183,-2.126,-2.0894,-2.0633,-2.0522,-2.0472,-2.0446,-2.0396,-2.0207,-1.9927,-1.9643,-1.9253,-1.8857,-1.8575,-1.836,-1.8131,-1.7776,-1.7623,-1.7457,-1.7346,-1.7318,-1.729,-1.7207,-1.7262,-1.7529,-1.8074,-1.8581,-1.8898,-1.8951,-1.9083,-1.9228,-1.9359,-1.9696,-2.0004,-2.0283,-2.0559,-2.0771,-2.0894,-2.108,-2.1215,-2.1299,-2.142,-2.1599,-2.1846,-2.1955,-2.2189,-2.2498,-2.2626,-2.2852,-1.237,-1.2942,-1.3372,-1.3613,-1.3908,-1.425,-1.4717,-1.4914,-1.5194,-1.5812,-1.6001,-1.6197,-1.6716,-1.6951,-1.7185,-1.7458,0.0,-1.8303,-1.8589,-1.9247,-1.969,-1.9685,-2.0214,-2.0538,-2.041,-2.0731,-2.1079,-2.1272,-2.2354,-2.3287,-2.3961,-2.4504,-2.4945,-2.5356,-2.574,-2.5775,-2.5492,-2.4532,-2.4157,-2.433,-2.3735,-2.3518,-2.3594,-2.3488,-2.3518,-2.3623,0.0,0.0,-2.4076,-2.4089,-2.3989,-2.3787,-2.364,-2.3492,-2.3301,-2.3152,-2.3105,-2.2987,-2.2122,-2.1613,-2.138,-2.1825,-2.1258,-2.0409,-2.0271,-2.0029,-1.9811,-1.9669,-1.9643,-1.9618,-1.9512,-1.9265,-1.9001,-1.8732,-1.8333,-1.7968,-1.7815,-1.7551,-1.7273,-1.6983,-1.687,-1.6786,-1.6542,-1.6513,-1.6428,-1.62,-1.6314,-1.6361,-1.614,-1.6961,-1.7611,-1.7717,-1.7831,-1.7968,-1.8143,-1.8521,-1.8895,-1.9188,-1.9436,-1.9631,-1.9773,-2.0016,-2.0156,-2.0182,-2.0434,-2.0646,-2.0795,-2.1055,-2.1264,-2.1434,-2.1674,-2.1888,-1.134,-1.1878,-1.2316,-1.2608,-1.2856,-1.3147,-1.3389,-1.3962,-1.4484,-1.458,-1.4975,-1.5356,-1.5629,-1.5866,-1.6157,-1.6426,-1.6911,-1.7387,-1.7831,-1.8292,-1.8685,0.0,-1.9309,-1.9466,-1.9286,-1.9636,0.0,0.0,0.0,-2.1814,-2.2916,-2.3361,-2.379,-2.4259,-2.4351,-2.4024,-2.326,-2.3207,-2.2987,-2.2543,-2.2592,-2.2628,-2.2653,-2.2622,-2.2622,-2.2653,0.0,0.0,-2.2895,-2.3065,-2.2975,-2.2665,-2.2634,-2.2512,-2.2317,-2.2206,-2.2144,-2.1981,-2.0825,-2.0386,-2.0363,-2.0571,-2.017,-1.9565,-1.933,-1.9119,-1.8972,-1.8854,-1.8827,-1.8789,-1.8774,-1.8602,-1.8387,-1.8127,-1.7826,-1.7523,-1.7207,-1.6864,-1.6573,-1.6516,-1.6278,-1.6066,-1.6017,-1.6017,-1.5931,-1.5613,-1.5584,-1.5497,-1.5177,-1.6104,-1.6797,-1.6825,-1.6853,-1.7011,-1.7357,-1.7468,-1.7705,-1.8131,-1.8321,-1.8459,-1.8581,-1.8753,-1.8886,-1.898,-1.9188,-1.9436,-1.9683,-1.9952,-2.0194,-2.0434,-2.061,-2.0883,-0.9957,-1.0449,-1.0841,-1.1243,-1.1536,-1.1878,-1.2419,-1.2948,-1.348,-1.3968,-1.431,-1.4598,-1.4968,-1.5261,-1.5499,-1.5771,-1.6258,-1.669,-1.7091,-1.7468,-1.7819,-1.8045,-1.8278,-1.8442,-1.85,-1.8656,0.0,0.0,0.0,-2.0624,-2.1835,-2.259,-2.3029,-2.3102,-2.3051,-2.2696,-2.2024,-2.1855,-2.16,-2.1313,-2.1408,-2.1451,-2.1463,-2.1463,-2.1557,-2.1733,-2.1796,0.0,-2.2082,-2.2106,-2.192,-2.1608,-2.1502,-2.1302,-2.1037,-2.0985,-2.0953,-2.0816,-1.9746,-1.9424,-1.9376,-1.8864,-1.8748,-1.8789,-1.859,-1.8452,-1.829,-1.817,-1.8131,-1.8116,-1.8045,-1.7881,-1.7678,-1.7484,-1.7245,-1.6937,-1.6588,-1.6314,-1.6124,-1.6048,-1.5759,-1.5478,-1.5323,-1.5235,-1.5059,-1.4715,-1.4745,-1.4686,-1.4449,-1.4971,-1.5439,-1.5681,-1.5874,-1.6065,-1.634,-1.6521,-1.6786,-1.7217,-1.7363,-1.7479,-1.7617,-1.7754,-1.7852,-1.7934,-1.8174,-1.8429,-1.8605,-1.9018,-1.9345,-1.9592,-1.9785,-2.0016,-0.8673,-0.9118,-0.9464,-0.9916,-1.031,-1.0748,-1.1536,-1.2029,-1.2565,-1.3545,-1.3835,-1.4076,-1.455,-1.4838,-1.5077,-1.5356,-1.5784,-1.615,-1.6411,-1.6685,-1.6907,-1.7054,-1.7145,0.0,-1.7578,-1.7634,0.0,0.0,0.0,0.0,-2.1079,-2.1949,-2.2285,-2.1959,-2.1861,-2.155,-2.0953,-2.0522,-2.0302,-2.0302,-2.0302,-2.0334,-2.0377,-2.0377,-2.0528,-2.0773,-2.0805,0.0,0.0,-2.1155,-2.0944,-2.0679,-2.0518,-2.028,-1.9977,-1.9977,-1.9944,-1.9737,-1.889,-1.8611,-1.843,-1.7405,-1.754,-1.8088,-1.7886,-1.776,-1.7623,-1.7446,-1.7446,-1.7418,-1.7273,-1.7162,-1.7022,-1.6842,-1.6599,-1.6324,-1.6028,-1.5787,-1.5584,-1.5459,-1.5157,-1.4854,-1.4567,-1.4419,-1.424,-1.3881,-1.3941,-1.395,-1.3799,-1.389,-1.41,-1.4508,-1.4922,-1.5196,-1.5381,-1.5661,-1.5902,-1.6228,-1.6322,-1.6425,-1.6549,-1.6698,-1.6782,-1.681,-1.7157,-1.7446,-1.7623,-1.8135,-1.8498,-1.8721,-1.896,-1.9198,-0.768,-0.8127,-0.8581,-0.8874,-0.9316,-0.9903,-1.0752,-1.1487,-1.2273,-1.3001,-1.3539,-1.3979,-1.4298,-1.4544,-1.4838,-1.5077,-1.5363,-1.5644,-1.5855,-1.5812,-1.5802,-1.6008,0.0,0.0,-1.6263,-1.6427,0.0,0.0,0.0,0.0,0.0,-2.1339,-2.1366,-2.0871,-2.0832,-2.0413,-1.9505,-1.9419,-1.9408,-1.9408,-1.9408,-1.9518,-1.9671,-1.9671,-1.9704,-1.9736,0.0,0.0,0.0,-2.0172,-2.0139,-1.9998,-1.9966,-1.9835,-1.9638,-1.9638,-1.9361,-1.8956,-1.8433,-1.7963,-1.7515,-1.6881,-1.7078,-1.7496,-1.706,-1.692,-1.6835,-1.6513,-1.657,-1.6655,-1.6457,-1.6524,-1.657,-1.6257,-1.598,-1.573,-1.5507,-1.5118,-1.4765,-1.4647,-1.433,-1.407,-1.392,-1.386,-1.3761,-1.342,-1.3359,-1.3307,-1.3103,-1.3103,-1.3202,-1.3424,-1.395,-1.4449,-1.4765,-1.4824,-1.4883,-1.504,-1.5069,-1.5089,-1.5089,-1.5284,-1.5429,-1.5546,-1.6017,-1.64,-1.6712,-1.7134,-1.7496,-1.781,-1.7963,-1.8278,-0.7039,-0.7288,-0.7537,-0.7988,-0.8382,-0.8874,-0.9858,-1.0699,-1.1585,-1.271,-1.3174,-1.3583,-1.4172,-1.4409,-1.4549,-1.4813,-1.5213,-1.5442,-1.5345,-1.537,-1.5383,-1.5295,-1.5184,0.0,0.0,0.0,0.0,0.0,0.0,0.0,0.0,-2.0005,-2.0137,-1.9542,-1.9372,-1.9004,-1.8341,-1.8452,-1.8596,-1.8687,-1.8687,-1.8664,-1.864,-1.8529,-1.8452,-1.8452,0.0,0.0,0.0,-1.9077,-1.911,-1.9088,-1.9198,-1.9075,-1.8808,-1.8808,-1.8512,-1.8063,-1.7572,-1.7216,-1.6854,-1.6238,-1.6142,-1.6236,-1.6257,-1.6257,-1.62,-1.5845,-1.5816,-1.5845,-1.5671,-1.5613,-1.5526,-1.541,-1.5245,-1.504,-1.4883,-1.4558,-1.424,-1.4091,-1.3709,-1.3346,-1.3224,-1.3042,-1.285,-1.2728,-1.2797,-1.2889,-1.2867,-1.295,-1.3019,-1.3111,-1.3519,-1.3881,-1.4151,-1.424,-1.433,-1.4458,-1.4478,-1.4538,-1.4647,-1.4736,-1.4795,-1.4854,-1.5245,-1.5565,-1.5874,-1.6304,-1.6712,-1.7032,-1.7262,-1.7512,-0.6639,-0.6742,-0.6892,-0.7344,-0.7693,-0.8187,-0.932,-1.0158,-1.1096,-1.2516,-1.3008,-1.3459,-1.4166,-1.429,-1.437,-1.4657,-1.5022,-1.5205,-1.5007,-1.5046,-1.5034,-1.4831,0.0,0.0,0.0,0.0,0.0,0.0,0.0,0.0,0.0,-1.8372,-1.8582,-1.836,-1.8095,-1.7753,-1.7285,-1.7476,-1.7657,-1.7784,-1.7862,-1.7794,-1.7588,-1.7442,-1.7329,-1.7285,0.0,0.0,0.0,-1.7925,-1.8061,-1.8104,-1.8327,-1.8226,-1.8032,-1.8032,-1.767,-1.7142,-1.6807,-1.6421,-1.5999,-1.5498,-1.5245,-1.5147,-1.5167,-1.5342,-1.541,-1.5089,-1.4971,-1.4971,-1.4932,-1.4726,-1.4558,-1.4558,-1.441,-1.4231,-1.4103,-1.3782,-1.3528,-1.3368,-1.3011,-1.2705,-1.2621,-1.2406,-1.2243,-1.2243,-1.2375,-1.2498,-1.259,-1.2705,-1.2828,-1.2867,-1.3125,-1.3368,-1.3558,-1.3649,-1.3769,-1.392,-1.3929,-1.401,-1.4201,-1.4261,-1.43,-1.43,-1.4606,-1.4902,-1.5118,-1.5497,-1.5874,-1.6257,-1.6446,-1.6701,-0.6387,-0.6589,-0.6842,-0.7138,-0.7391,-0.7942,-0.9282,-1.0019,-1.0855,-1.2467,-1.3152,-1.3678,-1.4202,-1.4292,-1.4394,-1.464,-1.4688,-1.4785,-1.4961,-1.4767,-1.4576,0.0,0.0,-1.413,0.0,0.0,0.0,0.0,0.0,0.0,0.0,-1.647,-1.6695,-1.7486,-1.7195,-1.6804,-1.6306,-1.649,-1.6603,-1.6603,-1.683,-1.6795,-1.6603,-1.6603,-1.649,0.0,0.0,0.0,0.0,-1.6837,-1.7001,-1.7148,-1.7339,-1.7407,-1.7407,-1.7407,-1.6911,-1.6192,-1.6224,-1.5643,-1.4872,-1.4588,-1.4499,-1.438,-1.3722,-1.3983,-1.444,-1.41,-1.401,-1.4031,-1.4183,-1.3944,-1.3713,-1.3713,-1.3511,-1.326,-1.307,-1.275,-1.2482,-1.2336,-1.2212,-1.2127,-1.2127,-1.2096,-1.2096,-1.2096,-1.2096,-1.2127,-1.2127,-1.2212,-1.2367,-1.259,-1.2713,-1.2867,-1.2989,-1.3019,-1.3111,-1.3302,-1.3302,-1.3385,-1.3511,-1.37,-1.3799,-1.3799,-1.407,-1.4309,-1.4499,-1.4656,-1.4971,-1.541,-1.541,-1.5845,-0.6387,-0.6437,-0.6637,-0.7089,-0.7388,-0.7885,-0.9084,-1.0019,-1.1047,-1.2273,-1.2912,-1.3465,-1.4166,-1.4153,-1.4087,-1.4364,-1.4592,-1.4642,-1.4502,0.0,0.0,-1.4237,-1.4134,0.0,0.0,0.0,0.0,0.0,0.0,0.0,0.0,-1.5304,-1.5404,-1.6239,-1.5793,-1.5562,-1.5551,-1.5736,-1.5991,-1.6263,-1.6307,-1.6167,-1.5842,-1.57,0.0,0.0,0.0,0.0,0.0,-1.5798,-1.6044,-1.6245,-1.6524,-1.649,-1.6324,-1.6324,-1.5794,-1.5112,-1.5112,-1.4742,-1.4249,-1.4091,-1.3881,-1.3601,-1.3155,-1.339,-1.3743,-1.3411,-1.3246,-1.3194,-1.3216,-1.3064,-1.2873,-1.2873,-1.2758,-1.2605,-1.2544,-1.2359,-1.2212,-1.2182,-1.2027,-1.1903,-1.1903,-1.1809,-1.1778,-1.1872,-1.1903,-1.1934,-1.2096,-1.2151,-1.2182,-1.2251,-1.2313,-1.2521,-1.2958,-1.2989,-1.3019,-1.308,-1.308,-1.3111,-1.3164,-1.3354,-1.3454,-1.3454,-1.3778,-1.401,-1.4151,-1.43,-1.4538,-1.4913,-1.5147,-1.5439,-0.6387,-0.6487,-0.6689,-0.7235,-0.7633,-0.823,-0.9377,-1.0413,-1.1389,-1.2467,-1.3067,-1.3577,-1.4172,-1.4165,-1.4111,-1.4268,-1.4442,-1.45,0.0,0.0,0.0,-1.387,0.0,0.0,0.0,0.0,0.0,0.0,0.0,0.0,0.0,0.0,-1.4345,-1.4675,-1.4553,-1.4597,-1.4776,-1.4991,-1.5213,-1.5461,-1.5497,-1.539,-1.507,-1.4963,0.0,0.0,0.0,0.0,0.0,-1.4848,-1.4991,-1.5081,-1.5357,-1.533,-1.5144,-1.5004,-1.4576,-1.3975,-1.3974,-1.371,-1.3338,-1.3246,-1.2995,-1.2689,-1.249,-1.2666,-1.2934,-1.272,-1.2605,-1.2529,-1.2529,-1.2398,-1.2236,-1.2236,-1.2143,-1.2027,-1.2027,-1.1965,-1.191,-1.191,-1.1809,-1.1716,-1.1716,-1.1654,-1.1622,-1.1709,-1.1716,-1.1778,-1.1903,-1.1965,-1.1996,-1.1996,-1.1996,-1.2151,-1.2521,-1.2613,-1.2674,-1.2736,-1.2736,-1.2767,-1.2797,-1.2928,-1.3019,-1.3119,-1.3385,-1.3588,-1.3748,-1.395,-1.416,-1.4359,-1.4677,-1.4913,0.0,-0.6639,-0.6942,-0.7534,-0.8081,-0.8829,-1.0113,-1.1047,0.0,-1.2905,-1.3539,-1.3979,-1.425,-1.4298,-1.4298,-1.4298,-1.4298,-1.4303,0.0,-1.4037,0.0,0.0,0.0,0.0,0.0,0.0,0.0,0.0,0.0,0.0,0.0,0.0,-1.3521,-1.3013,-1.3475,-1.3819,-1.4021,-1.4245,-1.4325,-1.4361,-1.4461,-1.4461,-1.4325,-1.4317,0.0,0.0,0.0,0.0,0.0,-1.392,-1.3869,-1.3724,-1.3949,-1.4021,-1.3947,-1.3605,-1.3256,-1.2914,-1.2823,-1.2554,-1.2243,-1.2243,-1.2019,-1.1771,-1.1771,-1.1903,-1.2058,-1.2058,-1.2058,-1.2058,-1.2058,-1.1934,-1.1778,-1.1778,-1.1685,-1.1591,-1.1591,-1.1591,-1.1591,-1.1591,-1.1591,-1.1591,-1.1591,-1.1591,-1.1591,-1.1591,-1.1591,-1.1591,-1.1591,-1.1716,-1.1771,-1.174,-1.1747,-1.1709,-1.1709,-1.1903,-1.2089,-1.2243,-1.2212,-1.2274,-1.2421,-1.2421,-1.2521,-1.2713,-1.2928,-1.3111,-1.3302,-1.3619,-1.3769,-1.3791,-1.404,-1.427,-0.7332,0.0,-0.7288,-0.8035,-0.8772,-0.9562,0.0,-1.1487,-1.237,-1.3001,-1.3539,-1.3979,-1.425,-1.4298,-1.4298,-1.4298,-1.4298,-1.4255,-1.4036,0.0,0.0,0.0,0.0,0.0,0.0,0.0,0.0,0.0,0.0,0.0,0.0,0.0,-1.3255,-1.3013,-1.2905,-1.3046,-1.3411,-1.3601,-1.3783,-1.3935,-1.3971,-1.3899,-1.371,-1.3564,0.0,0.0,0.0,0.0,-1.29,-1.2929,-1.2929,-1.2893,-1.3112,-1.3076,-1.2924,-1.2621,-1.2304,-1.1988,-1.1875,-1.1696,-1.1529,-1.1529,-1.149,-1.1428,-1.1428,-1.156,-1.1716,-1.1716,-1.1716,-1.1716,-1.1716,-1.1685,-1.1654,-1.1654,-1.1622,-1.1591,-1.1591,-1.1591,-1.1591,-1.1591,-1.1591,-1.1591,-1.1591,-1.1591,-1.1591,-1.1591,-1.1591,-1.1591,-1.1591,-1.149,-1.1365,-1.1279,-1.1122,-1.0933,-1.0681,-1.1185,-1.156,-1.1747,-1.149,-1.1397,-1.1584,-1.167,-1.1825,-1.2027,-1.2674,-1.3111,-1.3302,-1.3498,-1.3571,-1.3571,-1.3791,-1.392,-0.8127,-0.8028,-0.8081,-0.8775,-0.9562,-1.0355,-1.1194,-1.2073,-1.2807,-1.3201,-1.3727,-1.4064,-1.4112,-1.4112,-1.4064,-1.3968,-1.3909,0.0,0.0,0.0,0.0,0.0,0.0,0.0,0.0,0.0,0.0,0.0,0.0,0.0,0.0,0.0,-1.3038,-1.2702,-1.2533,-1.2673,-1.3046,-1.3156,-1.3273,-1.3382,-1.3309,-1.3119,-1.2936,-1.2746,0.0,0.0,0.0,0.0,-1.1892,-1.1892,-1.1855,-1.1781,-1.1892,-1.1929,-1.1846,-1.1469,-1.1216,-1.1028,-1.0797,-1.0771,-1.087,-1.0965,-1.1028,-1.1083,-1.1083,-1.124,-1.1466,-1.156,-1.1591,-1.1591,-1.1591,-1.1591,-1.1591,-1.1591,-1.1591,-1.156,-1.1466,-1.1466,-1.1428,-1.1373,-1.1404,-1.1435,-1.1373,-1.1404,-1.1435,-1.1373,-1.1373,-1.1341,-1.1247,-1.1059,-1.0863,-1.0744,-1.0421,-1.0129,-0.9945,-1.0072,-1.0351,-1.085,-1.0661,-1.0598,-1.0692,-1.0787,-1.1007,-1.1428,-1.2112,-1.2582,-1.2836,-1.2972,-1.3086,-1.3186,-1.3285,-1.3376,-0.9023,-0.9167,-0.9316,-0.9706,-1.0404,-1.1145,-1.1883,-1.2613,-1.3147,-1.3394,-1.3823,-1.4112,-1.3883,-1.3835,-1.3738,-1.3539,0.0,0.0,-1.3105,0.0,0.0,0.0,0.0,0.0,0.0,0.0,0.0,0.0,0.0,0.0,0.0,0.0,0.0,-1.2318,-1.2268,-1.2415,-1.2709,-1.2783,-1.279,-1.2753,-1.2526,-1.2305,-1.2114,-1.1892,-1.1669,0.0,0.0,0.0,-1.0962,-1.0925,-1.0812,-1.0663,-1.0663,-1.0775,-1.0902,-1.0384,-1.0194,-1.0145,-0.9776,-0.9849,-1.0142,-1.0301,-1.046,-1.0579,-1.0643,-1.0863,-1.1146,-1.1373,-1.1529,-1.1591,-1.1591,-1.1591,-1.1591,-1.156,-1.1529,-1.1466,-1.124,-1.1146,-1.1122,-1.0996,-1.109,-1.1146,-1.1059,-1.1153,-1.1185,-1.1059,-1.1028,-1.0965,-1.0744,-1.0516,-1.0326,-1.011,-0.9684,-0.9358,-0.9294,-0.892,-0.8985,-0.9671,-0.9735,-0.9799,-0.9831,-0.9862,-1.0218,-1.0895,-1.1397,-1.1802,-1.2151,-1.2297,-1.249,-1.2652,-1.2683,-1.2744,-1.0408,-1.0801,-1.1091,-1.0703,-1.1243,-1.1927,-1.2273,-1.271,-1.3098,-1.3147,-1.3389,-1.3588,-1.3588,-1.3539,-1.3539,0.0,0.0,0.0,0.0,0.0,0.0,0.0,0.0,0.0,0.0,0.0,0.0,0.0,0.0,0.0,0.0,0.0,0.0,-1.2318,-1.212,-1.2003,-1.1892,-1.2231,-1.2305,-1.212,-1.1744,-1.1484,-1.126,-1.0887,-1.07,0.0,0.0,-1.04,-1.0331,-1.0143,-1.0067,-1.003,-1.003,-1.0143,-1.0269,-0.9787,-0.9637,-0.9552,-0.9095,-0.9055,-0.921,-0.9242,-0.937,-0.9588,-0.9875,-1.0072,-1.0269,-1.0649,-1.1153,-1.1591,-1.1591,-1.1591,-1.156,-1.1404,-1.1247,-1.109,-1.0706,-1.0523,-1.046,-1.0428,-1.0523,-1.0674,-1.0839,-1.087,-1.0863,-1.0839,-1.0744,-1.0586,-1.0396,-1.0104,-0.9716,-0.9242,-0.9022,-0.8732,-0.8274,-0.8269,-0.8301,-0.8301,-0.8571,-0.8861,-0.9139,-0.9332,-0.9722,-1.0396,-1.0755,-1.1132,-1.1459,-1.1771,-1.1926,-1.1965,-1.2081,-1.2143,-1.1194,-1.1634,-1.198,-1.1736,-1.1927,-1.2273,-1.2565,-1.2856,-1.3098,-1.3098,-1.3298,-1.3443,-1.3152,0.0,-1.3015,-1.2745,0.0,0.0,0.0,0.0,0.0,0.0,0.0,0.0,0.0,0.0,0.0,0.0,0.0,0.0,0.0,0.0,0.0,0.0,-1.1558,-1.1409,-1.1223,-1.1298,-1.1335,-1.1335,-1.1037,-1.07,-1.0293,-0.9992,-0.9728,-0.9533,0.0,-0.9311,-0.9236,-0.9236,-0.9236,-0.9273,-0.9354,-0.9466,-0.9485,-0.902,-0.8767,-0.8657,-0.8511,-0.8528,-0.8592,-0.87,-0.8861,-0.9055,-0.921,-0.9466,-0.9779,-0.9945,-1.0516,-1.1066,-1.1066,-1.1066,-1.0996,-1.0807,-1.0713,-1.0555,-1.0066,-0.9907,-0.9817,-0.9626,-0.9779,-0.997,-0.9977,-1.0129,-1.0193,-1.0009,-0.9945,-0.9786,-0.9536,-0.9172,-0.8812,-0.8501,-0.8144,-0.7824,-0.7591,-0.7526,-0.7657,-0.7987,-0.8149,-0.8312,-0.8468,-0.8624,-0.8947,-0.9472,-0.9811,-1.0155,-1.0478,-1.0724,-1.0881,-1.1007,-1.1139,-1.1233,-1.1878,-1.2175,-1.2467,-1.2467,-1.2467,-1.2565,-1.2764,-1.291,-1.305,-1.305,-1.3152,-1.3104,-1.2716,-1.2474,0.0,-1.1739,0.0,0.0,0.0,0.0,0.0,0.0,0.0,0.0,0.0,0.0,0.0,0.0,0.0,0.0,0.0,0.0,0.0,0.0,-1.085,-1.07,-1.0513,-1.0288,-1.0288,-1.0513,-1.0288,-0.9841,-0.9316,-0.9094,-0.8861,-0.8551,-0.8551,-0.8479,-0.8327,-0.8479,-0.8551,-0.8594,-0.8789,-0.8851,-0.8779,-0.8388,-0.8102,-0.7884,-0.7944,-0.7944,-0.7912,-0.8084,-0.8252,-0.8441,-0.8474,-0.8759,-0.9075,-0.9134,-0.9556,-1.0047,-1.0333,-1.0396,-1.0364,-1.011,-1.0047,-0.9849,-0.9326,-0.9166,-0.9075,-0.8823,-0.9011,-0.9198,-0.9177,-0.9396,-0.9492,-0.921,-0.9113,-0.8952,-0.8635,-0.8274,-0.7944,-0.7759,-0.7368,-0.7138,-0.7138,-0.6979,-0.7138,-0.7694,-0.7792,-0.7824,-0.7884,-0.8009,-0.8274,-0.8635,-0.892,-0.9204,-0.9556,-0.9709,-0.9862,-1.0085,-1.0193,-1.0351,-1.2667,-1.2759,-1.2764,-1.2764,-1.2764,-1.2764,-1.2813,-1.2813,-1.2813,-1.2813,-1.2613,-1.237,-1.2127,-1.1515,-1.0967,-1.0747,0.0,0.0,0.0,0.0,0.0,0.0,0.0,0.0,0.0,0.0,0.0,0.0,0.0,0.0,0.0,0.0,0.0,0.0,0.0,-0.9879,-0.9695,-0.9306,-0.9306,-0.9695,-0.9306,-0.8889,-0.8479,-0.8293,-0.8178,-0.814,-0.814,-0.814,-0.814,-0.814,-0.814,-0.8178,-0.8365,-0.8388,-0.8332,-0.8167,-0.7874,-0.7521,-0.733,-0.7138,-0.7012,-0.7012,-0.7143,-0.7363,-0.7526,-0.7689,-0.7857,-0.8052,-0.8144,-0.8436,-0.9582,-0.9869,-0.9779,-0.9466,-0.9242,-0.8952,-0.8393,-0.8204,-0.8117,-0.8084,-0.8204,-0.8398,-0.877,-0.8867,-0.8867,-0.8835,-0.8533,-0.8236,-0.8084,-0.7754,-0.7396,-0.7007,-0.6946,-0.6913,-0.6913,-0.6913,-0.6913,-0.6979,-0.7138,-0.733,-0.7526,-0.7661,-0.7884,-0.8236,-0.8264,-0.8463,-0.8867,-0.9017,-0.9177,-0.9364,-0.9524,-0.9582,-1.2764,-1.2813,-1.2813,-1.2813,-1.2662,-1.2565,-1.2764,-1.2813,-1.2764,-1.2565,-1.2322,-1.1932,-1.1145,0.0,-0.9814,0.0,0.0,0.0,0.0,0.0,0.0,0.0,0.0,0.0,0.0,0.0,0.0,0.0,0.0,0.0,0.0,0.0,0.0,0.0,0.0,-0.8737,-0.8675,-0.8518,-0.8441,-0.8484,-0.8594,-0.8403,-0.803,-0.7953,-0.7834,-0.7714,-0.7714,-0.7714,-0.7753,-0.7876,-0.7915,-0.7893,-0.7875,-0.783,-0.7769,-0.7475,-0.7272,-0.7106,-0.704,-0.6979,-0.6913,-0.6913,-0.6946,-0.7045,-0.7106,-0.7237,-0.74,-0.7498,-0.7591,-0.7852,-0.8495,-0.8689,-0.8624,-0.8371,-0.8247,-0.8079,-0.7657,-0.7526,-0.7466,-0.7335,-0.7461,-0.7624,-0.7787,-0.7917,-0.7949,-0.7819,-0.7689,-0.7526,-0.7335,-0.7134,-0.6937,-0.6806,-0.6646,-0.6585,-0.6585,-0.6585,-0.6585,-0.6585,-0.6848,-0.704,-0.7138,-0.7302,-0.7493,-0.7749,-0.7852,-0.8019,-0.8312,-0.8344,-0.8404,-0.8501,-0.8759,-0.8894,-1.2419,-1.237,-1.2273,-1.2273,-1.2175,-1.2029,-1.2175,-1.2322,-1.237,-1.2175,-1.1683,-1.097,-1.0032,0.0,0.0,0.0,0.0,0.0,0.0,0.0,0.0,0.0,0.0,0.0,0.0,0.0,0.0,0.0,0.0,0.0,0.0,0.0,0.0,0.0,0.0,-0.7825,-0.7834,-0.7834,-0.7761,-0.7607,-0.7949,-0.7983,-0.7723,-0.7723,-0.7642,-0.7484,-0.7484,-0.7484,-0.7522,-0.7642,-0.7723,-0.7766,-0.7494,-0.7451,-0.7443,-0.7058,-0.6881,-0.6843,-0.6843,-0.6778,-0.6749,-0.6749,-0.6749,-0.6749,-0.6749,-0.6843,-0.6942,-0.6942,-0.7036,-0.7199,-0.7428,-0.7624,-0.7694,-0.7503,-0.7438,-0.7372,-0.7101,-0.7036,-0.7007,-0.6876,-0.6942,-0.7068,-0.7106,-0.7232,-0.7265,-0.7138,-0.7073,-0.7007,-0.6843,-0.6712,-0.6609,-0.6609,-0.6482,-0.6387,-0.6387,-0.6387,-0.6387,-0.6387,-0.6618,-0.6782,-0.6843,-0.7007,-0.7171,-0.7297,-0.7466,-0.7629,-0.7852,-0.7889,-0.7954,-0.8019,-0.8247,-0.8349,-1.1585,-1.1389,-1.1194,-1.1194,-1.1194,-1.1096,-1.0855,-1.1194,-1.1585,-1.1585,-1.0498,-0.9404,-0.8702,-0.8058,0.0,0.0,0.0,0.0,0.0,0.0,0.0,0.0,0.0,0.0,0.0,0.0,0.0,0.0,0.0,0.0,0.0,0.0,0.0,0.0,0.0,0.0,-0.7184,-0.7184,-0.7184,-0.7184,-0.7407,-0.7484,-0.7484,-0.7484,-0.7484,-0.7484,-0.7484,-0.7484,-0.7484,-0.7484,-0.7603,-0.7766,-0.734,-0.7304,-0.7443,-0.7058,-0.6811,-0.6708,-0.6708,-0.6576,-0.6387,-0.6387,-0.6387,-0.6387,-0.6387,-0.6387,-0.6387,-0.6387,-0.6387,-0.6387,-0.6387,-0.6778,-0.7138,-0.6946,-0.6881,-0.6848,-0.6741,-0.6708,-0.6708,-0.6708,-0.6708,-0.6741,-0.6881,-0.6881,-0.6881,-0.6881,-0.6778,-0.6708,-0.6708,-0.6515,-0.6387,-0.6387,-0.6387,-0.6387,-0.6387,-0.6387,-0.6387,-0.6387,-0.6387,-0.6482,-0.6675,-0.6811,-0.6913,-0.6913,-0.7106,-0.7297,-0.7489,-0.7629,-0.7797,-0.7987,-0.7987,-0.7987,-1.0806,-1.0708,-1.0659,-1.0659,-1.0511,-1.031,-1.0006,-1.0502,-1.0801,-1.0055,-0.9266,-0.8493,-0.7918,0.0,0.0,0.0,0.0,0.0,0.0,0.0,0.0,0.0,0.0,0.0,0.0,0.0,0.0,0.0,0.0,0.0,0.0,0.0,0.0,0.0,0.0,0.0,-0.6795,-0.6795,-0.6834,-0.698,-0.7176,-0.7373,-0.7484,-0.7484,-0.7484,-0.7484,-0.7484,-0.7484,-0.7484,-0.7484,-0.7522,-0.7566,-0.7199,-0.7095,-0.7089,-0.6684,-0.6515,-0.6482,-0.6482,-0.6449,-0.6387,-0.6387,-0.6387,-0.6387,-0.6387,-0.6387,-0.6387,-0.6387,-0.6387,-0.6387,-0.6387,-0.6449,-0.6511,-0.6552,-0.6552,-0.6552,-0.6482,-0.6482,-0.6482,-0.6482,-0.6482,-0.6515,-0.6552,-0.6552,-0.6552,-0.6552,-0.6445,-0.6346,-0.6346,-0.628,-0.628,-0.6383,-0.6387,-0.6387,-0.6387,-0.6387,-0.6387,-0.6387,-0.6387,-0.6416,-0.6482,-0.6679,-0.6741,-0.6741,-0.6909,-0.7007,-0.7073,-0.711,-0.7241,-0.7433,-0.7591,-0.7689,-0.9669,-0.9521,-0.9422,-0.9422,-0.9324,-0.9126,-0.8867,-0.9365,-0.9596,-0.8694,-0.8164,-0.7677,-0.714,-0.6656,0.0,0.0,0.0,0.0,0.0,0.0,0.0,0.0,0.0,0.0,0.0,0.0,0.0,0.0,0.0,0.0,0.0,0.0,0.0,0.0,0.0,0.0,-0.6096,-0.6251,-0.6367,-0.6518,-0.671,-0.6865,-0.6976,-0.7326,-0.7484,-0.7484,-0.7484,-0.7484,-0.7484,-0.7484,-0.7484,-0.7486,-0.7126,-0.6988,-0.6947,-0.655,-0.6387,-0.6387,-0.6387,-0.6387,-0.6387,-0.6387,-0.6387,-0.6387,-0.6387,-0.6387,-0.6387,-0.6387,-0.635,-0.6317,-0.6317,-0.6218,-0.6115,-0.6284,-0.6251,-0.6189,-0.6189,-0.6189,-0.6189,-0.6189,-0.6189,-0.6189,-0.6189,-0.6189,-0.6189,-0.6189,-0.6119,-0.6083,-0.6083,-0.6083,-0.6119,-0.6185,-0.6189,-0.6189,-0.6189,-0.6189,-0.6189,-0.6189,-0.6284,-0.6317,-0.6317,-0.6482,-0.6581,-0.6581,-0.6745,-0.6811,-0.6811,-0.6881,-0.6979,-0.7073,-0.7204,-0.7302,-0.8382,-0.8134,-0.7939,-0.7939,-0.7889,-0.7836,-0.7568,-0.7862,-0.8076,-0.7553,0.0,-0.6876,-0.6366,0.0,0.0,0.0,0.0,0.0,0.0,0.0,0.0,0.0,0.0,0.0,0.0,0.0,0.0,0.0,0.0,0.0,0.0,0.0,0.0,0.0,0.0,0.0,-0.5204,-0.5589,-0.5744,0.0,-0.5973,-0.6086,-0.6125,-0.6976,-0.7407,-0.7407,-0.7446,-0.7446,-0.7484,-0.7484,-0.7476,-0.7427,-0.7122,-0.698,-0.6922,-0.6546,-0.6387,-0.6387,-0.6387,-0.6387,-0.6387,-0.6383,-0.6383,-0.6383,-0.6354,-0.6354,-0.6354,-0.6354,-0.6284,-0.6181,-0.6181,-0.6017,-0.5921,-0.6112,-0.602,-0.5888,-0.5888,-0.5888,-0.5888,-0.5888,-0.5888,-0.5888,-0.5888,-0.5888,-0.5896,-0.5877,-0.5877,-0.5885,-0.59,-0.5903,-0.5933,-0.5933,-0.5933,-0.5933,-0.5933,-0.5933,-0.5933,-0.5933,-0.608,-0.6205,-0.6205,-0.6325,-0.6387,-0.6387,-0.6581,-0.6675,-0.6675,-0.6778,-0.6848,-0.6881,-0.6881,-0.6881,-0.7534,-0.7437,-0.7388,-0.7388,-0.7191,-0.7015,-0.6911,-0.6841,-0.6784,-0.6851,-0.6638,-0.6386,0.0,0.0,0.0,0.0,0.0,0.0,0.0,0.0,0.0,0.0,0.0,0.0,0.0,0.0,0.0,0.0,0.0,0.0,0.0,0.0,0.0,0.0,0.0,-0.4579,-0.4579,-0.4693,-0.4735,0.0,-0.4924,-0.5115,-0.5273,-0.6086,-0.6595,-0.6791,-0.6942,-0.7138,-0.7296,-0.7446,-0.7403,-0.7257,-0.7073,-0.6906,-0.6725,-0.6501,-0.6387,-0.6387,-0.6387,-0.6387,-0.6383,-0.628,-0.6247,-0.6214,-0.6053,-0.6024,-0.6024,-0.6024,-0.5987,-0.5954,-0.5954,-0.5818,-0.5683,-0.5716,-0.5818,-0.5888,-0.5888,-0.5888,-0.5888,-0.5888,-0.5888,-0.5888,-0.5888,-0.5888,-0.5866,-0.5821,-0.5805,-0.5886,-0.605,-0.6068,-0.61,-0.6198,-0.6198,-0.6198,-0.6198,-0.6198,-0.6198,-0.6198,-0.6153,-0.612,-0.612,-0.6293,-0.6387,-0.6387,-0.6453,-0.6449,-0.6449,-0.6486,-0.6581,-0.6741,-0.6741,-0.6811,-0.6886,-0.6836,-0.6836,-0.6836,-0.6594,-0.6339,-0.6325,-0.6029,-0.5808,-0.595,-0.5994,0.0,0.0,0.0,0.0,0.0,0.0,0.0,0.0,0.0,0.0,0.0,0.0,0.0,0.0,0.0,0.0,0.0,0.0,0.0,0.0,-0.3407,0.0,0.0,-0.3407,-0.3487,-0.3487,-0.368,-0.3798,-0.3798,-0.3871,-0.3988,-0.4146,-0.5348,-0.5973,-0.6131,-0.6325,-0.6483,-0.6598,-0.6945,-0.6961,-0.6756,-0.6809,-0.6706,-0.6531,-0.6452,-0.6387,-0.6383,-0.6317,-0.6317,-0.6284,-0.6119,-0.6053,-0.605,-0.5921,-0.5888,-0.5888,-0.5888,-0.5822,-0.5752,-0.5752,-0.562,-0.5488,-0.5488,-0.5591,-0.566,-0.566,-0.566,-0.566,-0.566,-0.566,-0.566,-0.566,-0.5721,-0.576,-0.5804,-0.579,-0.5821,-0.594,-0.595,-0.5986,-0.6051,-0.6051,-0.6051,-0.6051,-0.6051,-0.6051,-0.6051,-0.6086,-0.6117,-0.6117,-0.6272,-0.6286,-0.6156,-0.6156,-0.6156,-0.6156,-0.6156,-0.6251,-0.6478,-0.6478,-0.6544,-0.6437,-0.6387,-0.6381,-0.6313,-0.6088,-0.5861,-0.5726,-0.5388,-0.5071,-0.4963,-0.5192,0.0,0.0,0.0,0.0,0.0,0.0,0.0,0.0,0.0,0.0,0.0,0.0,0.0,0.0,0.0,0.0,0.0,0.0,0.0,-0.2316,-0.2118,-0.1961,-0.1803,-0.2118,-0.2315,-0.2354,-0.2665,-0.2859,-0.2898,-0.2937,-0.2937,-0.2976,-0.4416,-0.5157,-0.5312,-0.555,-0.5667,-0.5783,-0.6289,-0.6336,-0.6191,-0.6432,-0.6401,-0.6279,-0.6307,-0.6321,-0.6288,-0.6181,-0.6148,-0.6115,-0.5921,-0.5855,-0.5855,-0.5822,-0.5826,-0.5826,-0.5826,-0.569,-0.555,-0.555,-0.5491,-0.5395,-0.5395,-0.5395,-0.5395,-0.5395,-0.5395,-0.5395,-0.5395,-0.5416,-0.5433,-0.5433,-0.5562,-0.5674,-0.582,-0.584,-0.585,-0.5878,-0.5881,-0.5881,-0.5881,-0.5881,-0.5881,-0.5881,-0.5881,-0.5881,-0.5881,-0.6006,-0.61,-0.61,-0.6176,-0.6106,-0.5881,-0.594,-0.5959,-0.5933,-0.5933,-0.6018,-0.6148,-0.6148,-0.6214,-0.6387,-0.6387,-0.6313,-0.6015,-0.5933,-0.5724,-0.5109,0.0,-0.4639,0.0,0.0,0.0,0.0,0.0,0.0,0.0,0.0,0.0,0.0,0.0,0.0,0.0,0.0,0.0,0.0,0.0,0.0,0.0,0.0,0.0,-0.1453,-0.1453,-0.1414,-0.1375,-0.1414,-0.1532,-0.1729,-0.1767,-0.1885,-0.2043,-0.2235,-0.2313,-0.2352,-0.2743,-0.3329,-0.4075,-0.4423,-0.481,-0.516,-0.5744,-0.5855,-0.5643,-0.6029,-0.5982,-0.5711,-0.5896,-0.5958,-0.5958,-0.5954,-0.5954,-0.5921,-0.5719,-0.565,-0.5617,-0.5491,-0.5462,-0.5462,-0.5462,-0.5462,-0.5428,-0.5428,-0.5425,-0.5395,-0.5395,-0.5395,-0.5395,-0.5395,-0.5395,-0.5395,-0.5395,-0.5501,-0.5559,-0.5559,-0.5677,-0.5823,-0.5939,-0.5963,-0.6047,-0.6221,-0.6238,-0.6238,-0.6238,-0.6238,-0.6238,-0.6238,-0.6238,-0.6238,-0.6238,-0.6112,-0.6,-0.6,-0.5907,-0.5854,-0.5813,-0.6097,-0.6207,-0.6074,-0.6074,-0.603,-0.5954,-0.5954,-0.6053,-0.6158,-0.5997,-0.5792,-0.5454,-0.5063,-0.462,-0.4121,-0.3749,-0.3393,0.0,0.0,0.0,0.0,0.0,0.0,0.0,0.0,0.0,0.0,0.0,0.0,0.0,0.0,0.0,0.0,0.0,0.0,0.0,0.0,-0.0942,-0.0746,-0.0628,-0.0589,-0.0589,-0.0668,-0.0786,-0.0864,-0.11,-0.1335,-0.1572,-0.1649,-0.1688,-0.1688,-0.1805,-0.2276,-0.3096,-0.3485,-0.3756,-0.399,-0.4732,-0.4903,-0.472,-0.5336,-0.5481,-0.5352,-0.5617,-0.5789,-0.5859,-0.569,-0.5627,-0.5557,-0.5259,-0.5223,-0.5319,-0.5256,-0.5326,-0.5395,-0.5395,-0.5395,-0.5395,-0.5395,-0.5326,-0.5223,-0.5223,-0.516,-0.5063,-0.5063,-0.5229,-0.5419,-0.5504,-0.5606,-0.5735,-0.5823,-0.5888,-0.5979,-0.6135,-0.6159,-0.6183,-0.6289,-0.63,-0.63,-0.63,-0.63,-0.63,-0.63,-0.63,-0.63,-0.63,-0.6235,-0.6159,-0.6159,-0.6095,-0.6098,-0.6098,-0.6033,-0.5983,-0.592,-0.592,-0.5955,-0.6029,-0.6029,-0.6047,-0.5948,-0.5578,-0.5178,-0.4774,-0.4154,-0.3457,0.0,0.0,-0.2151,0.0,0.0,0.0,0.0,0.0,0.0,0.0,0.0,0.0,0.0,0.0,0.0,0.0,0.0,0.0,0.0,0.0,0.0,0.0,0.0,-0.0393,-0.0236,-0.0079,0.0,0.0,-0.0157,-0.0236,-0.0314,-0.0667,-0.0943,-0.1178,-0.1178,-0.1218,-0.1296,-0.1296,-0.161,-0.2237,-0.2665,-0.2898,-0.3015,-0.3837,-0.4036,-0.3858,-0.4615,-0.4853,-0.4821,-0.5186,-0.5418,-0.5455,-0.5259,-0.513,-0.4994,-0.4694,-0.4694,-0.4824,-0.4888,-0.5024,-0.5196,-0.5229,-0.5263,-0.5263,-0.5263,-0.5126,-0.5024,-0.5024,-0.4894,-0.4806,-0.484,-0.5118,-0.543,-0.5547,-0.5727,-0.5895,-0.5973,-0.6023,-0.6129,-0.6282,-0.63,-0.6261,-0.6219,-0.618,-0.618,-0.6141,-0.618,-0.618,-0.618,-0.6261,-0.63,-0.63,-0.63,-0.63,-0.63,-0.63,-0.63,-0.63,-0.6071,-0.5898,-0.5861,-0.5861,-0.5916,-0.6022,-0.6022,-0.6033,-0.5808,-0.5374,-0.483,-0.404,-0.3467,-0.2759,0.0,0.0,0.0,0.0,0.0,0.0,0.0,0.0,0.0,0.0,0.0,0.0,0.0,0.0,0.0,0.0,0.0,0.0,0.0,0.0,0.0,0.0,0.0,-0.0039,0.0,0.0,0.0,0.0,0.0,-0.0118,-0.0314,-0.051,-0.0707,-0.0904,-0.0904,-0.1061,-0.1296,-0.1296,-0.1335,-0.1414,-0.2,-0.2353,-0.2588,-0.3253,-0.3429,-0.3279,-0.3858,-0.3979,-0.3925,-0.4459,-0.4522,-0.442,-0.4592,-0.4395,-0.4061,-0.4061,-0.4061,-0.4095,-0.4287,-0.4489,-0.4658,-0.4794,-0.4831,-0.4831,-0.4831,-0.4827,-0.4827,-0.4827,-0.4797,-0.4834,-0.4961,-0.5158,-0.5338,-0.5483,-0.5768,-0.5983,-0.599,-0.6152,-0.6289,-0.6296,-0.63,-0.6219,-0.5941,-0.5941,-0.5864,-0.5676,-0.5789,-0.5941,-0.5941,-0.6141,-0.63,-0.63,-0.63,-0.63,-0.63,-0.63,-0.63,-0.63,-0.6282,-0.6166,-0.5979,-0.5979,-0.5942,-0.5803,-0.5803,-0.5911,-0.5269,-0.4618,-0.3881,-0.2993,-0.2129,-0.1357,-0.0674,-0.0359,0.0,0.0,0.0,0.0,0.0,0.0,0.0,0.0,0.0,0.0,0.0,0.0,0.0,0.0,0.0,0.0,0.0,0.0,0.0,0.0,0.0,0.0,0.0,0.0,0.0,0.0,0.0,-0.0079,-0.0314,-0.0353,-0.051,-0.0707,-0.0707,-0.0825,-0.1061,-0.1061,-0.1139,-0.1335,-0.1649,-0.1846,-0.1961,-0.2546,-0.2741,-0.2688,-0.3216,-0.3403,-0.346,-0.3789,-0.3923,-0.3956,-0.3758,-0.3594,-0.346,-0.3224,-0.3324,-0.3493,-0.3558,-0.3892,-0.4228,-0.4261,-0.4392,-0.4489,-0.4489,-0.4392,-0.4295,-0.4295,-0.4355,-0.4482,-0.4744,-0.512,-0.5374,-0.5424,-0.5585,-0.579,-0.5902,-0.5986,-0.6099,-0.6261,-0.6141,-0.6018,-0.5902,-0.5789,-0.5673,-0.5598,-0.5676,-0.5712,-0.5712,-0.5906,-0.606,-0.606,-0.606,-0.606,-0.606,-0.5909,-0.5909,-0.606,-0.606,-0.6076,-0.6176,-0.6176,-0.6149,-0.6136,-0.6136,-0.6081,-0.5022,-0.4248,-0.3355,-0.2417,-0.1389,-0.0448,0.009,0.0,0.0,0.0,0.0,0.0,0.0,0.0,0.0,0.0,0.0,0.0,0.0,0.0,0.0,0.0,0.0,0.0,0.0,0.0,0.0,0.0,0.0,0.0,0.0118,0.0039,0.0,0.0,0.0,-0.0079,-0.0196,-0.0196,-0.0314,-0.051,-0.051,-0.0589,-0.0786,-0.0786,-0.0943,-0.1178,-0.1296,-0.1454,-0.1648,-0.2027,-0.2161,-0.2143,-0.2548,-0.2756,-0.279,-0.3052,-0.3188,-0.3224,-0.2956,-0.2788,-0.2621,-0.2318,-0.2385,-0.2587,-0.2654,-0.2989,-0.3389,-0.3456,-0.3623,-0.3754,-0.3754,-0.3723,-0.3701,-0.3837,-0.3963,-0.4143,-0.447,-0.4924,-0.5332,-0.5377,-0.5496,-0.5637,-0.5789,-0.5786,-0.5867,-0.6025,-0.5906,-0.5786,-0.5705,-0.5592,-0.5482,-0.5404,-0.5443,-0.5479,-0.5479,-0.5673,-0.5786,-0.5786,-0.5786,-0.5786,-0.5786,-0.5676,-0.5676,-0.5786,-0.5786,-0.5906,-0.6064,-0.6222,-0.63,-0.63,-0.63,-0.6176,0.0,0.0,0.0,-0.2417,0.0,0.0,0.0538,0.0,0.0,0.0,0.0,0.0,0.0,0.0,0.0,0.0,0.0,0.0,0.0,0.0,0.0,0.0,0.0,0.0,0.0,0.0,0.0,0.0,0.0,0.0314,0.0314,0.0118,0.0,0.0,0.0,0.0,0.0,0.0,-0.0079,-0.0275,-0.0275,-0.0393,-0.0589,-0.0589,-0.0707,-0.0904,-0.0904,-0.1139,-0.1568,-0.1721,-0.1753,-0.171,-0.1911,-0.1929,-0.1916,-0.2251,-0.2284,-0.2153,-0.2149,-0.1914,-0.1547,-0.1344,-0.1277,-0.1311,-0.1513,-0.1813,-0.2114,-0.2315,-0.2517,-0.2653,-0.2653,-0.282,-0.3078,-0.3472,-0.3675,-0.3846,-0.4136,-0.4645,-0.513,-0.5256,-0.544,-0.5598,-0.5598,-0.5598,-0.5598,-0.5598,-0.5598,-0.5521,-0.5321,-0.5282,-0.5207,-0.5015,-0.5168,-0.5282,-0.5282,-0.5479,-0.5598,-0.5598,-0.5598,-0.5598,-0.5598,-0.5598,-0.5598,-0.5598,-0.5598,-0.5598,-0.5598,-0.6064,-0.63,-0.63,-0.63,-0.6179,-0.5015,0.0,0.0,0.0,0.0,0.0,0.0,0.0,0.0,0.0,0.0,0.0,0.0,0.0,0.0,0.0,0.0,0.0,0.0,0.0,0.0,0.0,0.0,0.0,0.0,0.0,0.0,0.0,0.0786,0.0589,0.0314,0.0118,0.0,0.0,0.0,0.0,0.0,0.0,-0.0039,-0.0079,-0.0079,-0.0196,-0.0393,-0.0393,-0.051,-0.0668,-0.0668,-0.0746,-0.0901,-0.1351,-0.1431,-0.1343,-0.1455,-0.1421,-0.1344,-0.1412,-0.1445,-0.1379,-0.1243,-0.1109,-0.0975,-0.0775,-0.0808,-0.0941,-0.1008,-0.1244,-0.1545,-0.1579,-0.1747,-0.1915,-0.1915,-0.2051,-0.2303,-0.271,-0.3143,-0.3522,-0.3911,-0.4406,-0.4815,-0.4849,-0.5012,-0.521,-0.5362,-0.5398,-0.544,-0.5559,-0.5479,-0.5359,-0.5321,-0.5168,-0.5054,-0.5018,-0.5054,-0.5093,-0.5093,-0.5285,-0.5398,-0.5398,-0.5398,-0.5398,-0.5398,-0.5249,-0.5249,-0.5359,-0.5398,-0.544,-0.5598,-0.5867,-0.6018,-0.6022,-0.6219,-0.6276,-0.5369,-0.452,-0.3671,0.0,0.0,0.0,0.009,0.0583,0.0,0.0,0.0,0.0,0.0,0.0,0.0,0.0,0.0,0.0,0.0,0.0,0.0,0.0,0.0,0.0,0.0,0.0,0.0,0.1065,0.0982,0.0707,0.0314,0.0118,0.0,0.0,0.0,0.0,0.0,0.0,0.0,0.0,0.0,-0.0079,-0.0157,-0.0157,-0.0275,-0.0471,-0.0471,-0.051,-0.0626,-0.0931,-0.1021,-0.0943,-0.0963,-0.0909,-0.0841,-0.0841,-0.0841,-0.0841,-0.0639,-0.0605,-0.0572,-0.0371,-0.0371,-0.0471,-0.0471,-0.0673,-0.0875,-0.0875,-0.101,-0.1144,-0.1244,-0.1344,-0.1562,-0.2081,-0.2521,-0.2941,-0.3469,-0.4037,-0.4506,-0.4662,-0.4859,-0.5054,-0.5168,-0.5168,-0.5207,-0.5326,-0.5246,-0.5168,-0.5168,-0.5054,-0.5018,-0.5018,-0.5018,-0.5018,-0.5018,-0.509,-0.5168,-0.5168,-0.5168,-0.5168,-0.5168,-0.5054,-0.5054,-0.5168,-0.5168,-0.5285,-0.5479,-0.5673,-0.5789,-0.5789,-0.5948,-0.6025,-0.5941,-0.5099,-0.4253,0.0,0.0,0.0,-0.0673,0.0045,0.0673,0.0,0.0,0.0,0.0,0.0,0.0,0.0,0.0,0.0,0.0,0.0,0.0,0.0,0.0,0.0,0.0,0.1305,0.1282,0.1301,0.1061,0.0746,0.0393,0.0157,0.0039,0.0039,0.0,0.0,0.0,0.0,0.0,0.0,0.0,0.0,0.0,0.0,-0.0079,-0.0275,-0.0275,-0.0353,-0.0546,-0.052,-0.0546,-0.0544,-0.0516,-0.0472,-0.0438,-0.0438,-0.0438,-0.0438,-0.0303,-0.027,-0.0236,-0.0067,0.0,0.0,0.0,-0.0135,-0.027,-0.027,-0.0337,-0.0472,-0.0673,-0.0741,-0.0924,-0.1586,-0.1934,-0.2295,-0.2992,-0.3649,-0.4233,-0.4623,-0.4859,-0.5018,-0.5018,-0.5018,-0.5018,-0.5018,-0.5018,-0.5018,-0.5018,-0.5018,-0.5018,-0.5018,-0.5018,-0.5018,-0.5018,-0.5018,-0.5018,-0.5018,-0.5018,-0.5018,-0.5018,-0.5018,-0.5018,-0.5018,-0.5018,-0.5093,-0.5282,-0.5479,-0.5559,-0.5598,-0.5598,-0.5598,0.0,0.0,0.0,0.0,0.0,0.0,-0.1435,-0.0673,0.0,0.0,0.0,0.0,0.0,0.0,0.0,0.0,0.0,0.0,0.0,0.0,0.0,0.0,0.0,0.0,0.0,0.1305,0.1282,0.1301,0.1061,0.0864,0.0786,0.0432,0.0236,0.0236,0.0079,0.0,0.0,0.0,0.0,0.0,0.0,0.0,0.0,0.0,-0.0039,-0.0039,-0.0039,-0.0078,-0.0114,-0.0111,-0.0219,-0.0362,-0.0344,-0.0236,-0.0101,-0.0101,-0.0101,-0.0101,-0.0067,-0.0067,-0.0067,0.0,0.0,0.0,0.0,-0.0034,-0.0067,-0.0067,-0.0067,-0.0101,-0.0135,-0.0274,-0.056,-0.123,-0.1812,-0.2421,-0.3233,-0.3917,-0.4426,-0.4659,-0.4859,-0.5018,-0.5018,-0.5018,-0.5018,-0.5018,-0.5018,-0.5018,-0.5018,-0.5018,-0.5018,-0.5018,-0.5018,-0.5018,-0.5018,-0.5018,-0.5018,-0.5018,-0.5018,-0.5018,-0.5018,-0.5018,-0.5018,-0.5018,-0.5018,-0.5015,-0.5054,-0.5246,-0.544,-0.5598,-0.5598,-0.5598,0.0,0.0,0.0,-0.4832,0.0,0.0,0.0,-0.148,-0.0718,0.0,0.0,0.0,0.0,0.0,0.0,0.0,0.0,0.0,0.0,0.0,0.0,0.0,0.0,0.0,0.0,0.1305,0.1282,0.1301,0.1061,0.0904,0.0904,0.0628,0.0432,0.0432,0.0236,0.0157,0.0157,0.0039,0.0,0.0,0.0,0.0,0.0,0.0,0.0,0.0,0.0,0.0,0.0,0.0,-0.0072,-0.0143,-0.0137,-0.0101,0.0,0.0,0.0,0.0,0.0,0.0,0.0,0.0,0.0,0.0,0.0,0.0,0.0,0.0,0.0,0.0,0.0,-0.0137,-0.0423,-0.0978,-0.1596,-0.2283,-0.3117,-0.38,-0.4348,-0.4623,-0.4859,-0.5018,-0.5018,-0.5018,-0.5018,-0.5018,-0.5018,-0.5018,-0.5018,-0.5018,-0.5018,-0.5018,-0.5018,-0.5018,-0.5018,-0.5018,-0.5018,-0.5018,-0.5018,-0.5018,-0.5018,-0.5018,-0.5018,-0.5018,-0.5018,-0.5018,-0.5018,-0.5093,-0.521,-0.5287,-0.5287,-0.5287,0.0,0.0,0.0,0.0,0.0,-0.4028,0.0,0.0,0.0,-0.0807,0.0,0.0,0.0,0.0,0.0,0.0,0.0,0.0,0.0,0.0,0.0,0.0,0.0,0.0,0.0,0.1296,0.131,0.13,0.11,0.0982,0.0982,0.0786,0.0668,0.0668,0.0471,0.0353,0.0314,0.0157,0.0039,0.0,0.0,0.0,0.0,0.0,0.0,0.0,0.0,0.0,0.0,0.0,0.0,0.0,0.0,0.0,0.0,0.0,0.0,0.0,0.0,0.0,0.0,0.0,0.0,0.0,0.0,0.0,0.0,0.0,0.0,0.0,0.0,-0.0173,-0.0462,-0.0912,-0.1571,-0.2295,-0.312,-0.3763,-0.4311,-0.4701,-0.4898,-0.5018,-0.5018,-0.5018,-0.5018,-0.5018,-0.5018,-0.5018,-0.5018,-0.5018,-0.5018,-0.5018,-0.5018,-0.5018,-0.5018,-0.5018,-0.5018,-0.5018,-0.5018,-0.5018,-0.5018,-0.5018,-0.5018,-0.5018,-0.5018,-0.5018,-0.5018,-0.5018,-0.5018,-0.5018,-0.5018,-0.5018,0.0,0.0,0.0,0.0,-0.5769,0.0,0.0,0.0,-0.2734,-0.1839,0.0,0.0,0.0,0.0,0.0,0.0,0.0,0.0,0.0,0.0,0.0,0.0,0.0,0.0,0.0,0.0,0.1304,0.1297,0.1257,0.1257,0.1257,0.1021,0.0864,0.0864,0.0668,0.0471,0.0314,0.0275,0.0157,0.0,0.0,0.0,0.0,0.0,0.0,0.0,0.0,0.0,0.0,0.0,0.0,0.0,0.0,0.0,0.0,0.0,0.0,0.0,0.0,0.0,0.0,0.0,0.0,0.0,0.0,0.0,0.0,0.0,0.0,0.0,0.0,-0.0285,-0.073,-0.135,-0.2113,-0.2932,-0.3802,-0.4311,-0.4701,-0.4937,-0.4979,-0.5018,-0.5018,-0.5018,-0.5018,-0.5018,-0.5018,-0.5018,-0.5018,-0.5018,-0.5018,-0.5018,-0.5018,-0.5018,-0.5018,-0.5018,-0.5018,-0.5018,-0.5018,-0.5018,-0.5018,-0.5018,-0.5018,-0.5018,-0.5018,-0.5018,-0.5018,-0.5018,-0.5018,-0.5018,-0.5018,-0.5018,0.0,0.0,0.0,0.0,0.0,0.0,-0.5275,0.0,-0.3805,0.0,0.0,0.0,0.0,0.0,0.0,0.0,0.0,0.0,0.0,0.0,0.0,0.0,0.0,0.0,0.0,0.0,0.0,0.0,0.0,0.1296,0.1296,0.1178,0.1139,0.1139,0.0904,0.0746,0.0667,0.055,0.0432,0.0353,0.0353,0.0275,0.0157,0.0157,0.0118,0.0,0.0,0.0,0.0,0.0,0.0,0.0,0.0136,0.0169,0.0169,0.0169,0.0236,0.0303,0.0303,0.0303,0.0303,0.0303,0.0236,0.0202,0.027,0.0303,0.0303,0.0303,0.0303,0.0271,0.0209,-0.025,-0.0807,-0.1468,-0.2312,-0.3175,-0.3923,-0.4428,-0.474,-0.4976,-0.5018,-0.5018,-0.5018,-0.5018,-0.5018,-0.5018,-0.5018,-0.5018,-0.5018,-0.5018,-0.5018,-0.5018,-0.5018,-0.5018,-0.5018,-0.5018,-0.5018,-0.5018,-0.5018,-0.5018,-0.5018,-0.5018,-0.5018,-0.5018,-0.5018,-0.5018,-0.5018,-0.5018,-0.5018,-0.5018,-0.5018,-0.5018,-1.0679,0.0,0.0,0.0,0.0,0.0,0.0,0.0,0.0,0.0,0.0,0.0,0.0,0.0,0.0,0.0,0.0,0.0,0.0,0.0,0.0,0.0,0.0,0.0,0.0,0.0,0.0,0.0,0.0,0.0,0.1296,0.1296,0.1296,0.1296,0.11,0.0943,0.0825,0.0668,0.055,0.0432,0.0432,0.0353,0.0236,0.0236,0.0157,0.0079,0.0079,0.0117,0.0153,0.0148,0.018,0.0177,0.0308,0.0404,0.0438,0.0371,0.0404,0.0506,0.0506,0.0506,0.0506,0.0506,0.0438,0.0371,0.0472,0.0506,0.0506,0.0506,0.0508,0.048,0.0281,-0.0253,-0.0927,-0.1597,-0.2516,-0.3368,-0.396,-0.4389,-0.4659,-0.4818,-0.482,-0.482,-0.482,-0.4937,-0.5018,-0.5018,-0.5018,-0.5018,-0.5018,-0.5018,-0.5018,-0.5018,-0.5018,-0.5018,-0.5018,-0.5018,-0.5018,-0.5018,-0.5018,-0.5018,-0.5018,-0.5018,-0.5018,-0.5018,-0.5018,-0.5018,-0.5018,-0.5018,-0.5018,-0.5018,-0.5018,-0.5018,0.0,0.0,0.0,-0.9592,0.0,0.0,0.0,0.0,-0.5913,0.0,0.0,0.0,0.0,0.0,-0.1302,-0.0924,-0.0462,0.0,0.0,0.0,0.0,0.0,0.0,0.0,0.0,0.0,0.0,0.0,0.0,0.0,0.1296,0.1296,0.1296,0.1296,0.1296,0.1061,0.0628,0.0589,0.0393,0.0,0.0,0.0,0.0,0.0,0.0118,0.0275,0.0275,0.0392,0.0586,0.0595,0.0583,0.0579,0.0516,0.0607,0.0776,0.0573,0.0506,0.0506,0.0506,0.0506,0.0506,0.0506,0.0506,0.0506,0.0506,0.0506,0.0506,0.0506,0.0549,0.0493,0.0108,-0.0445,-0.1103,-0.1986,-0.2859,-0.3604,-0.3999,-0.427,-0.4423,-0.4423,-0.4423,-0.4423,-0.4423,-0.474,-0.5018,-0.5018,-0.5018,-0.5018,-0.5018,-0.5018,-0.5018,-0.5018,-0.5018,-0.5018,-0.5018,-0.5018,-0.5018,-0.5018,-0.5018,-0.5018,-0.5018,-0.5018,-0.5018,-0.5018,-0.5018,-0.5018,-0.5018,-0.5018,-0.5018,-0.5018,-0.5018,-0.5018,0.0,0.0,-1.0459,-1.009,0.0,0.0,0.0,0.0,0.0,0.0,0.0,0.0,0.0,0.0,-0.2408,-0.2007,-0.1342,-0.0782,0.0,0.0,0.0,0.0,0.0,0.0,0.0,0.0,0.0,0.0,0.0,0.0,0.0,0.1296,0.1218,0.1061,0.1021,0.0825,0.0393,0.0393,0.0275,0.0,0.0,-0.0079,-0.0196,-0.0079,0.0039,0.0118,0.0236,0.0432,0.0587,0.0595,0.0583,0.0616,0.0689,0.0742,0.0776,0.0708,0.0775,0.0908,0.0908,0.0808,0.0708,0.0841,0.0808,0.0708,0.0841,0.0908,0.0908,0.0908,0.0824,0.0634,0.0253,-0.0408,-0.1181,-0.1988,-0.2821,-0.3565,-0.3999,-0.427,-0.4384,-0.4384,-0.4384,-0.4384,-0.4384,-0.4501,-0.4659,-0.4779,-0.4818,-0.4818,-0.4818,-0.4701,-0.4659,-0.4779,-0.4698,-0.4701,-0.4979,-0.4859,-0.474,-0.4621,-0.4621,-0.4621,-0.4621,-0.4621,-0.4659,-0.4779,-0.4818,-0.4859,-0.5018,-0.5018,-0.5018,-0.5018,-0.5018,-0.5018,-1.201,-1.1497,0.0,-1.0629,-1.0155,0.0,-0.8857,0.0,0.0,0.0,0.0,0.0,0.0,0.0,-0.364,-0.3134,-0.246,-0.1814,0.0,-0.0552,0.0,0.0,0.0,0.0,0.0,0.0,0.0,0.0,0.1035,0.0,0.0,0.0,0.0943,0.0707,0.0668,0.0471,0.0,-0.0079,-0.0236,-0.0471,-0.0549,-0.0589,-0.0628,-0.0432,-0.0236,-0.0079,0.0196,0.0471,0.0705,0.0789,0.0808,0.0834,0.0869,0.0917,0.0909,0.0909,0.0976,0.1109,0.1109,0.1009,0.0943,0.1042,0.1009,0.0943,0.1076,0.1109,0.1078,0.1021,0.0835,0.0572,0.0037,-0.0677,-0.1424,-0.2227,-0.294,-0.3526,-0.3921,-0.4075,-0.419,-0.419,-0.419,-0.419,-0.419,-0.4231,-0.4348,-0.4582,-0.4582,-0.4582,-0.4582,-0.4462,-0.4462,-0.4582,-0.4462,-0.4501,-0.4779,-0.4659,-0.4543,-0.4423,-0.4384,-0.4384,-0.4384,-0.4384,-0.4462,-0.4582,-0.4582,-0.4659,-0.4779,-0.4859,-0.4898,-0.4898,-0.4976,-0.5018]},{"header":{"parameterUnit":"m.s-1","parameterCategory":1,"la1":30.6,"la2":29.2853,"lo1":-89.7004,"lo2":-87.6739,"dy":0.0162,"dx":0.0183,"nx":112,"ny":82,"refTime":"2023-09-03T00:00:00:Z","depth":0,"parameterNumber":3,"parameterNumberName":"V-component_of_WINDS"},"data":[0.0,0.0,0.0,0.0,0.0,0.0,0.0,0.0,0.0,0.0,0.0,0.0,0.0,0.0,0.0,0.0,0.0,0.0,0.0,0.0,0.0,0.0,0.0,0.0,0.0,0.0,0.0,0.0,0.0,0.0,0.0,0.0,0.0,0.0,0.0,0.0,0.0,0.0,0.0,0.0,0.0,0.0,0.0,0.0,0.0,0.0,0.0,0.0,0.0,0.0,0.0,0.0,0.0,0.0,0.0,0.0,0.0,0.0,0.0,0.0,0.0,0.0,0.0,0.0,0.0,0.0,0.0,0.0,0.0,0.0,0.0,0.0,0.0,0.0,0.0,0.0,0.0,0.0,0.0,0.0,0.0,0.0,0.0,0.0,0.0,0.0,0.0,0.0,0.0,0.0,0.2,0.0825,-0.0275,-0.1139,-0.1572,-0.2199,-0.3017,-0.4068,0.0,0.0,0.0,0.0,0.0,0.0,0.0,0.0,0.0,0.0,0.0,0.0,0.0,0.0,0.0,0.0,0.0,0.0,0.0,0.0,0.0,0.0,0.0,0.0,0.0,0.0,0.0,0.0,0.0,0.0,0.0,0.0,0.0,0.0,0.0,0.0,0.0,0.0,0.0,0.0,0.0,0.0,0.0,0.0,0.0,0.0,0.0,0.0,0.0,0.0,0.0,0.0,0.0,0.0,0.0,0.0,0.0,0.0,0.0,0.0,0.0,0.0,0.0,0.0,0.0,0.0,0.0,0.0,0.0,0.0,0.0,0.0,0.0,0.0,0.0,0.0,0.0,0.0,0.0,0.0,0.0,0.0,0.0,0.0,0.0,0.0,0.0,0.0,0.0,0.0,0.0,0.0,0.0,0.0,0.0,0.0,0.0,0.0,0.0,0.0,0.0,0.0,0.0,0.0,0.1648,0.0039,-0.0786,-0.1335,-0.1572,-0.2316,-0.3214,-0.4304,0.0,0.0,0.0,0.0,0.0,0.0,0.0,0.0,0.0,0.0,0.0,0.0,0.0,0.0,0.0,0.0,0.0,0.0,0.0,0.0,0.0,0.0,0.0,0.0,0.0,0.0,0.0,0.0,0.0,0.0,0.0,0.0,0.0,0.0,0.0,0.0,0.0,0.0,0.0,0.0,0.0,0.0,0.0,0.0,0.0,0.0,0.0,0.0,0.0,0.0,0.0,0.0,0.0,0.0,0.0,0.0,0.0,0.0,0.0,0.0,0.0,0.0,0.0,0.0,0.0,0.0,0.0,0.0,0.0,0.0,0.0,0.0,0.0,0.0,0.0,0.0,0.0,0.0,0.0,0.0,0.0,0.0,0.0,0.0,0.0,0.0,0.0,0.0,0.0,0.0,0.0,0.0,0.0,0.0,0.0,0.0,0.0,0.0,0.0,0.0,0.0,0.0,0.0,0.1686,0.0746,-0.0353,-0.0982,-0.1453,-0.1884,-0.2472,-0.3333,-0.4654,-0.5735,0.0,0.0,0.0,0.0,0.0,0.0,0.0,0.0,0.0,0.0,0.0,0.0,0.0,0.0,0.0,0.0,0.0,0.0,0.0,0.0,0.0,0.0,0.0,0.0,0.0,0.0,0.0,0.0,0.0,0.0,0.0,0.0,0.0,0.0,0.0,0.0,0.0,0.0,0.0,0.0,0.0,0.0,0.0,0.0,0.0,0.0,0.0,0.0,0.0,0.0,0.0,0.0,0.0,0.0,0.0,0.0,0.0,0.0,0.0,0.0,0.0,0.0,0.0,0.0,0.0,0.0,0.0,0.0,0.0,0.0,0.0,0.0,0.0,0.0,0.0,0.0,0.0,0.0,0.0,0.0,0.0,0.0,0.0,0.0,0.0,0.0,0.0,0.0,0.0,0.0,0.0,0.0,0.0,0.0,0.0,0.0,0.0,0.0,0.0,0.0,0.0,0.0,0.102,0.0157,-0.0471,-0.0943,-0.1453,-0.208,-0.2588,-0.3487,-0.4924,-0.5967,0.0,0.0,0.0,0.0,0.0,0.0,0.0,0.0,0.0,0.0,0.0,0.0,0.0,0.0,0.0,0.0,0.0,0.0,0.0,0.0,0.0,0.0,0.0,0.0,0.0,0.0,0.0,0.0,0.0,0.0,0.0,0.0,0.0,0.0,0.0,0.0,0.0,0.0,0.0,0.0,0.0,0.0,0.0,0.0,0.0,0.0,0.0,0.0,0.0,0.0,0.0,0.0,0.0,0.0,0.0,0.0,0.0,0.0,0.0,0.0,0.0,0.0,0.0,0.0,0.0,0.0,0.0,0.0,0.0,0.0,0.0,0.0,0.0,0.0,0.0,0.0,0.0,0.0,0.0,0.0,0.0,0.0,0.0,0.0,0.0,0.0,0.0,0.0,0.0,0.0,0.0,0.0,0.0,0.0,0.0,0.0,0.0,0.0,0.0,0.0,0.0,0.0,0.1256,0.0353,-0.0275,-0.0668,-0.1178,-0.1847,-0.2627,-0.364,-0.4927,-0.6015,0.0,0.0,0.0,0.0,0.0,0.0,0.0,0.0,0.0,0.0,0.0,0.0,0.0,0.0,0.0,0.0,0.0,0.0,0.0,0.0,0.0,0.0,0.0,0.0,0.0,0.0,0.0,0.0,0.0,0.0,0.0,0.0,0.0,0.0,0.0,0.0,0.0,0.0,0.0,0.0,0.0,0.0,0.0,0.0,0.0,0.0,0.0,0.0,0.0,0.0,0.0,0.0,0.0,0.0,0.0,0.0,0.0,0.0,0.0,0.0,0.0,0.0,0.0,0.0,0.0,0.0,0.0,0.0,0.0,0.0,0.0,0.0,0.0,0.0,0.0,0.0,0.0,0.0,0.0,0.0,0.0,0.0,0.0,0.0,0.0,0.0,0.0,0.0,0.0,0.0,0.0,0.0,0.0,0.0,0.0,0.0,0.0,0.0,0.0,0.0,0.0,0.0,0.1373,0.055,0.0,-0.0589,-0.1217,-0.2002,-0.2588,-0.3524,-0.4924,0.0,0.0,0.0,0.0,0.0,0.0,0.0,0.0,0.0,0.0,0.0,0.0,0.0,0.0,0.0,0.0,0.0,0.0,0.0,0.0,0.0,0.0,0.0,0.0,0.0,0.0,0.0,0.0,0.0,0.0,0.0,0.0,0.0,0.0,0.0,0.0,0.0,0.0,0.0,0.0,0.0,0.0,0.0,0.0,0.0,0.0,0.0,0.0,0.0,0.0,0.0,0.0,0.0,0.0,0.0,0.0,0.0,0.0,0.0,0.0,0.0,0.0,0.0,0.0,0.0,0.0,0.0,0.0,0.0,0.0,0.0,0.0,0.0,0.0,0.0,0.0,0.0,0.0,0.0,0.0,0.0,0.0,0.0,0.0,0.0,0.0,0.0,0.0,0.0,0.0,0.0,0.0,0.0,0.0,0.0,0.0,0.0,0.0,0.0,0.0,0.0,0.0,0.2353,0.1609,0.0864,0.0,-0.0353,-0.1021,-0.1845,-0.2472,-0.3359,-0.4681,0.0,0.0,0.0,0.0,0.0,0.0,0.0,0.0,0.0,0.0,0.0,0.0,0.0,0.0,0.0,0.0,0.0,0.0,0.0,0.0,0.0,0.0,0.0,0.0,0.0,0.0,0.0,0.0,0.0,0.0,0.0,0.0,0.0,0.0,0.0,0.0,0.0,0.0,0.0,0.0,0.0,0.0,0.0,0.0,0.0,0.0,0.0,0.0,0.0,0.0,0.0,0.0,0.0,0.0,0.0,0.0,0.0,0.0,0.0,0.0,0.0,0.0,0.0,0.0,0.0,0.0,0.0,0.0,0.0,0.0,0.0,0.0,0.0,0.0,0.0,0.0,0.0,0.0,0.0,0.0,0.0,0.0,0.0,0.0,0.0,0.0,0.0,0.0,0.0,0.0,0.0,0.0,0.0,0.0,0.0,0.0,0.0,0.0,0.0,0.0,0.0,0.0,0.255,0.1963,0.1335,0.0668,0.0079,-0.055,-0.1257,-0.2198,-0.3181,0.0,0.0,0.0,0.0,0.0,0.0,0.0,0.0,0.0,0.0,0.0,0.0,0.0,0.0,0.0,0.0,0.0,0.0,0.0,0.0,0.0,0.0,0.0,0.0,0.0,0.0,0.0,0.0,0.0,0.0,0.0,0.0,0.0,0.0,0.0,0.0,0.0,0.0,0.0,0.0,0.0,0.0,0.0,0.0,0.0,0.0,0.0,0.0,0.0,0.0,0.0,0.0,0.0,0.0,0.0,0.0,0.0,0.0,0.0,0.0,0.0,0.0,0.0,0.0,0.0,0.0,0.0,0.0,0.0,0.0,0.0,0.0,0.0,0.0,0.0,0.0,0.0,0.0,0.0,0.0,0.0,0.0,0.0,0.0,0.0,0.0,0.0,0.0,0.0,0.0,0.0,0.0,0.0,0.0,0.0,0.0,0.0,0.0,0.0,0.0,0.0,0.0,0.0,0.2588,0.2079,0.1609,0.1139,0.051,-0.0196,-0.0943,-0.1663,-0.2592,-0.3703,0.0,0.0,0.0,0.0,0.0,0.0,0.0,0.0,0.0,0.0,0.0,0.0,0.0,0.0,0.0,0.0,0.0,0.0,0.0,0.0,0.0,0.0,0.0,0.0,0.0,0.0,0.0,0.0,0.0,0.0,0.0,0.0,0.0,0.0,0.0,0.0,0.0,0.0,0.0,0.0,0.0,0.0,0.0,0.0,0.0,0.0,0.0,0.0,0.0,0.0,0.0,0.0,0.0,0.0,0.0,0.0,0.0,0.0,0.0,0.0,0.0,0.0,0.0,0.0,0.0,0.0,0.0,0.0,0.0,0.0,0.0,0.0,0.0,0.0,0.0,0.0,0.0,0.0,0.0,0.0,0.0,0.0,0.0,0.0,0.0,0.0,0.0,0.0,0.0,0.0,0.0,0.0,0.0,0.0,0.0,0.0,0.0,0.0,0.0,0.0,0.0,0.0,0.2549,0.2235,0.1883,0.157,0.0942,0.0275,-0.0353,-0.119,-0.2109,-0.3092,0.0,0.0,0.0,0.0,0.0,0.0,0.0,0.0,0.0,0.0,0.0,0.0,0.0,0.0,0.0,0.0,0.0,0.0,0.0,0.0,0.0,0.0,0.0,0.0,0.0,0.0,0.0,0.0,0.0,0.0,0.0,0.0,0.0,0.0,0.0,0.0,0.0,0.0,0.0,0.0,0.0,0.0,0.0,0.0,0.0,0.0,0.0,0.0,0.0,0.0,0.0,0.0,0.0,0.0,0.0,0.0,0.0,0.0,0.0,0.0,0.0,0.0,0.0,0.0,0.0,0.0,0.0,0.0,0.0,0.0,0.0,0.0,0.0,0.0,0.0,0.0,0.0,0.0,0.0,0.0,0.0,0.0,0.0,0.0,0.0,0.0,0.0,0.0,0.0,0.0,0.0,0.0,0.0,0.0,0.0,0.0,0.0,0.0,0.0,0.0,0.0,0.0,0.255,0.2353,0.2156,0.196,0.1373,0.0824,0.0352,-0.0726,-0.1676,-0.2397,0.0,0.0,0.0,0.0,0.0,0.0,0.0,0.0,0.0,0.0,0.0,0.0,0.0,0.0,0.0,0.0,0.0,0.0,0.0,0.0,0.0,0.0,0.0,0.0,0.0,0.0,0.0,0.0,0.0,0.0,0.0,0.0,0.0,0.0,0.0,0.0,0.0,0.0,0.0,0.0,0.0,0.0,0.0,0.0,0.0,0.0,0.0,0.0,0.0,0.0,0.0,0.0,0.0,0.0,0.0,0.0,0.0,0.0,0.0,0.0,1.1883,0.0,0.0,0.0,0.0,0.0,0.0,0.0,0.0,0.0,0.0,0.0,0.0,0.0,0.0,0.0,0.0,0.0,0.0,0.0,0.0,0.0,0.0,0.0,0.0,0.0,0.0,0.0,0.0,0.0,0.0,0.0,0.0,0.0,0.0,0.0,0.0,0.0,0.0,0.0,0.0,0.0,0.2588,0.247,0.2353,0.2156,0.1882,0.1363,0.0612,-0.0075,-0.0908,-0.1946,-0.2886,0.0,0.0,0.0,0.0,0.0,0.0,0.0,0.0,0.0,0.0,0.0,0.0,0.0,0.0,0.0,0.0,0.0,0.0,0.0,0.0,0.0,0.0,0.0,0.0,0.0,0.0,0.0,0.0,0.0,0.0,0.0,0.0,0.0,0.0,0.0,0.0,0.0,0.0,0.0,0.0,0.0,0.0,0.0,0.0,0.0,0.0,0.0,0.0,0.0,0.0,0.0,0.0,0.0,0.0,0.0,0.0,0.0,0.0,0.0,0.0,1.1091,0.0,0.0,0.0,0.0,0.0,0.0,0.0,0.0,0.0,0.0,0.0,0.0,0.0,0.0,0.0,0.0,0.0,0.0,0.0,0.0,0.0,0.0,0.0,0.0,0.0,0.0,0.0,0.0,0.0,0.0,0.0,0.0,0.0,0.0,0.0,0.0,0.0,0.0,0.0,0.0,0.2863,0.2707,0.2589,0.2511,0.2235,0.1786,0.11,0.0444,-0.0324,-0.1299,-0.2218,0.0,0.0,0.0,0.0,0.0,0.0,0.0,0.0,0.0,0.0,0.0,0.0,0.0,0.0,0.0,0.0,0.0,0.0,0.0,0.0,0.0,0.0,0.0,0.0,0.0,0.0,0.0,0.0,0.0,0.0,0.0,0.0,0.0,0.0,0.0,0.0,0.0,0.0,0.0,0.0,0.0,0.0,0.0,0.0,0.0,0.0,0.0,0.0,0.0,0.0,0.0,0.0,0.0,1.4022,1.3883,1.3883,1.3636,1.3491,1.3443,1.2613,1.1683,1.0605,0.0,0.0,0.0,0.0,0.0,0.0,0.0,0.0,0.0,0.0,0.0,0.0,0.0,0.0,0.0,0.0,0.0,0.0,0.0,0.0,0.0,0.0,0.0,0.0,0.0,1.0925,1.1298,0.0,0.0,0.0,0.0,0.0,0.0,0.0,0.0,0.0,0.0,0.0,0.0,0.3335,0.31,0.2938,0.2848,0.2495,0.2081,0.1574,0.0916,0.0179,-0.0627,-0.1505,-0.2235,0.0,0.0,0.0,0.0,0.0,0.0,0.0,0.0,0.0,0.0,0.0,0.0,0.0,0.0,0.0,0.0,0.0,0.0,0.0,0.0,0.0,0.0,0.0,0.0,0.0,0.0,0.0,0.0,0.0,0.0,0.0,0.0,2.4209,2.345,0.0,0.0,0.0,0.0,0.0,0.0,0.0,0.0,0.0,0.0,0.0,0.0,0.0,0.0,1.4688,1.4442,1.4298,1.4298,1.4022,1.3883,1.3883,1.3636,1.3491,1.3491,1.3346,0.0,1.1731,1.0935,0.0,0.0,0.0,0.0,0.0,0.0,0.0,0.0,0.0,0.0,0.0,0.0,0.0,0.0,0.0,0.0,0.0,0.0,0.0,0.0,0.0,0.0,1.0513,1.0887,1.1446,1.1892,0.0,1.1446,1.0925,0.9997,0.0,0.0,0.0,0.0,0.0,0.0,0.0,0.0,0.4031,0.38,0.3501,0.3011,0.2775,0.2387,0.1743,0.1306,0.0766,-0.0068,-0.0827,-0.1498,-0.2023,-0.2464,0.0,0.0,0.0,0.0,0.0,0.0,0.0,0.0,0.0,0.0,0.0,0.0,0.0,0.0,0.0,0.0,0.0,0.0,0.0,0.0,0.0,0.0,0.0,0.0,0.0,0.0,0.0,0.0,0.0,2.5516,2.4637,2.396,2.3135,2.2441,0.0,0.0,0.0,0.0,0.0,0.0,0.0,0.0,0.0,1.6305,1.592,1.5588,1.5302,1.4777,1.4538,1.4538,1.4256,1.4112,1.4106,1.3868,1.3702,1.3744,1.3555,1.3158,1.2565,1.1768,1.0788,0.9608,0.0,0.0,0.0,0.0,0.0,0.7651,0.822,0.889,0.0,0.0,0.0,0.0,0.0,0.0,0.0,0.0,0.0,0.0,0.0,0.0,0.0,1.1669,1.215,1.2526,1.2526,1.2268,1.1706,0.0,0.9733,0.9056,0.8284,0.0,0.0,0.0,0.0,0.5506,0.5002,0.4579,0.4117,0.3563,0.3215,0.2743,0.2042,0.1788,0.1316,0.0505,-0.0138,-0.0665,-0.1086,-0.1531,-0.1908,0.0,0.0,0.0,0.0,0.0,0.0,0.0,0.0,0.0,0.0,0.0,0.0,0.0,0.0,0.0,0.0,0.0,0.0,0.0,0.0,0.0,0.0,0.0,0.0,0.0,0.0,0.0,0.0,2.5863,2.5189,2.4551,2.3614,2.2847,0.0,0.0,0.0,0.0,0.0,0.0,1.8804,1.8249,1.7746,1.7301,1.6723,1.6292,1.6015,1.5255,1.4831,1.479,1.4544,1.431,1.4189,1.3996,1.387,1.3797,1.3598,1.3377,1.3134,1.2448,1.1594,1.0613,0.9592,0.8822,0.8272,0.7965,0.8225,0.8738,0.9174,0.9854,1.0471,1.0547,0.0,1.1253,1.0785,0.0,0.0,0.0,0.0,1.1149,1.1595,1.1855,1.2114,1.2526,1.2826,1.3046,1.3046,1.2856,1.2298,0.0,1.0105,0.9392,0.8665,0.0,0.0,0.0,0.0,0.6433,0.6009,0.5443,0.4879,0.4236,0.3797,0.3243,0.2507,0.2254,0.1827,0.1156,0.0593,0.0142,-0.0214,-0.0597,-0.0917,-0.1108,0.0,0.0,0.0,0.0,0.0,0.0,0.0,0.0,0.0,0.0,0.0,0.0,0.0,0.0,0.0,0.0,0.0,0.0,0.0,0.0,0.0,0.0,0.0,0.0,0.0,0.0,0.0,0.0,0.0,2.5232,2.4305,0.0,0.0,0.0,0.0,2.1392,2.0663,2.011,1.9837,1.915,1.855,1.804,1.7326,1.681,1.6581,1.5771,1.5255,1.5083,1.479,1.4409,1.3924,1.3912,1.3767,1.3538,1.3519,1.3468,1.3447,1.2884,1.2231,1.1477,1.0626,0.9896,0.9311,0.9043,0.9012,0.9283,1.0187,1.0722,1.1031,1.143,1.1526,1.1438,1.1145,1.1198,0.0,0.0,1.1781,1.1781,1.2378,1.2673,1.2936,1.3346,1.3455,1.3455,1.3455,1.3156,1.2562,0.0,1.085,1.0137,0.9155,0.0,0.8432,0.7859,0.7744,0.7514,0.6899,0.6462,0.5902,0.5029,0.448,0.3882,0.3208,0.2691,0.2245,0.1955,0.1362,0.0883,0.0565,0.0348,0.0118,-0.0078,-0.0275,0.0,0.0,0.0,0.0,0.0,0.0,0.0,0.0,0.0,0.0,0.0,0.0,0.0,0.0,0.0,0.0,0.0,0.0,0.0,0.0,0.0,0.0,0.0,0.0,0.0,0.0,0.0,0.0,2.5695,2.4722,0.0,2.3285,2.2759,2.2176,2.1607,2.1329,2.088,2.0201,1.9928,1.9463,1.8819,1.821,1.7785,1.7567,1.6629,1.5967,1.5545,1.4984,1.4425,1.3887,1.3529,1.335,1.3209,1.3073,1.2994,1.2969,1.2798,1.2352,1.1812,1.1329,1.0763,1.0099,1.0171,1.0342,1.0632,1.1147,1.1585,1.1909,1.1952,1.1857,1.1672,1.1683,1.1744,1.1892,1.2415,1.2526,1.2599,1.3229,1.3419,1.3564,1.3811,1.3884,1.3884,1.3884,1.3557,1.3119,1.2636,1.1632,1.07,1.0062,0.9576,0.9203,0.9008,0.8737,0.8428,0.8089,0.7472,0.6776,0.6058,0.5345,0.4594,0.377,0.3355,0.2954,0.2553,0.2225,0.1952,0.1625,0.1549,0.1372,0.102,0.0941,0.0706,0.0,0.0,0.0,0.0,0.0,0.0,0.0,0.0,0.0,0.0,0.0,0.0,0.0,0.0,0.0,0.0,0.0,0.0,0.0,0.0,0.0,0.0,0.0,0.0,0.0,0.0,2.6693,2.6279,2.5306,2.4466,2.396,2.345,2.2882,2.222,2.2043,2.1597,2.0835,2.0555,2.0147,1.96,1.8784,1.8317,1.8187,1.7154,1.6398,1.5875,1.5192,1.454,1.3957,1.3554,1.3286,1.3194,1.2961,1.2833,1.2851,1.273,1.2457,1.2103,1.1909,1.1522,1.1109,1.1222,1.1377,1.1572,1.1847,1.2118,1.2343,1.2317,1.2193,1.2119,1.2254,1.2415,1.2599,1.3083,1.32,1.3346,1.3855,1.4008,1.4036,1.4245,1.4238,1.4209,1.4209,1.3956,1.3637,1.3455,1.2335,1.1298,1.085,1.0368,0.9992,0.9922,0.9685,0.9389,0.9093,0.8489,0.7807,0.7074,0.631,0.5528,0.4694,0.422,0.3763,0.335,0.319,0.2978,0.2753,0.2746,0.2586,0.2233,0.1959,0.149,0.0824,0.0,0.0,0.0,0.0,0.0,0.0,0.0,0.0,0.0,0.0,0.0,0.0,0.0,0.0,0.0,0.0,0.0,0.0,0.0,0.0,0.0,0.0,0.0,2.8697,2.7966,2.736,2.6974,2.6082,2.5359,2.4882,2.4209,2.3657,2.3178,2.2696,2.2264,2.1776,2.1033,2.0529,2.032,1.9003,1.8332,1.8324,1.7239,1.65,1.6013,1.5479,1.4827,1.4098,1.3923,1.3689,1.3398,1.3222,1.3137,1.3094,1.2833,1.2619,1.2416,1.2339,1.2296,1.2263,1.2087,1.2048,1.2092,1.2322,1.2325,1.2252,1.2445,1.2569,1.265,1.2863,1.32,1.3564,1.3754,1.3826,1.3899,1.4289,1.4397,1.4469,1.4569,1.4497,1.4425,1.4425,1.4281,1.4057,1.3848,1.2849,1.1916,1.1521,1.1111,1.0775,1.0539,1.0545,0.0,0.9879,0.9488,0.893,0.8132,0.7375,0.6658,0.6001,0.5276,0.4739,0.4461,0.4293,0.4074,0.3876,0.3866,0.3761,0.3446,0.2665,0.1959,0.1371,0.0,0.0,0.0,0.0,0.0,0.0,0.0,0.0,0.0,0.0,0.0,0.0,0.0,0.0,0.0,0.0,0.0,0.0,0.0,0.0,0.0,0.0,3.0759,2.9341,2.8633,2.7995,2.74,2.6693,2.5988,2.5359,2.502,2.4551,2.394,2.3614,2.3135,2.2545,2.1692,2.0967,2.0413,1.9417,1.8744,1.8447,1.7791,1.7088,1.6447,1.5929,1.529,1.4521,1.4309,1.4099,1.387,1.3652,1.3519,1.3519,1.3137,1.3052,1.3089,1.2733,1.2397,1.2123,1.2633,1.2907,1.3028,1.3119,1.3079,1.2994,1.3127,1.3119,1.3149,1.3455,1.3645,1.379,1.4145,1.4253,1.4289,1.4497,1.4641,1.4756,1.4792,1.4892,1.4991,1.4991,1.482,1.4605,1.428,1.3613,1.2971,1.2558,1.204,1.1563,1.1288,1.1112,0.0,1.0495,1.0017,0.9524,0.9058,0.8301,0.7577,0.6887,0.6424,0.607,0.5792,0.592,0.5857,0.556,0.5698,0.5386,0.4574,0.3912,0.3327,0.0,0.0,0.0,0.0,0.0,0.0,0.0,0.0,0.0,0.0,0.0,0.0,0.0,0.0,0.0,0.0,0.0,0.0,0.0,0.0,0.0,0.0,3.2322,3.1823,3.0809,2.9781,2.8937,2.8343,2.762,2.6969,2.6393,2.5904,2.5401,2.4807,2.4433,2.3869,2.2991,2.2274,2.1551,2.0707,1.9673,1.8998,1.8676,1.7932,1.7247,1.6656,1.6193,1.5668,1.511,1.4894,1.4776,0.0,1.4279,1.411,1.4068,1.3561,1.3483,0.0,0.0,0.0,0.0,0.0,1.3324,1.35,1.3411,1.3345,1.3312,1.3521,1.3632,1.3681,1.3988,1.4072,1.4181,1.4425,1.4541,1.4613,1.4721,1.4935,1.515,1.515,1.5238,1.5288,1.5288,1.51,1.4856,1.4605,0.0,0.0,1.3529,1.2749,1.2084,1.1907,1.1775,1.1598,1.1269,1.0909,1.0495,1.0119,0.9479,0.8865,0.8345,0.7827,0.0,0.0,0.0,0.7082,0.6826,0.703,0.0,0.0,0.0,0.4727,0.4183,0.0,0.0,0.0,0.2468,0.2581,0.0,0.0,0.0,0.0,0.0,0.0,0.0,0.0,0.0,0.0,0.0,0.0,0.0,0.0,0.0,0.0,3.3269,3.3009,3.2618,3.1294,3.0139,2.9574,2.8779,2.8063,2.7592,2.6805,2.6121,2.563,2.5157,2.4409,2.3284,0.0,0.0,0.0,0.0,1.9188,1.895,1.7999,1.731,1.6853,1.6451,1.6121,1.5816,1.565,1.5519,1.5443,1.5026,1.4817,1.4776,1.411,1.3977,1.4077,1.3432,1.3305,1.3477,1.3406,1.3512,0.0,0.0,0.0,0.0,1.3892,1.4074,1.4201,1.4461,1.4605,1.4713,1.4748,1.4856,1.5007,1.5043,1.5294,1.5544,1.5544,1.5498,1.545,1.545,1.527,1.5071,1.493,1.4735,1.4531,1.4358,1.3355,1.2564,1.252,1.252,1.2435,1.2143,1.1937,1.1668,1.123,0.0,0.0,1.0021,0.9404,0.8956,0.8775,0.8399,0.815,0.8001,0.8205,0.7927,0.7169,0.6703,0.6198,0.5613,0.5229,0.4921,0.4693,0.3717,0.3416,0.0,0.0,0.0,0.0,0.0,0.0,0.0,0.0,0.0,0.0,0.0,0.0,0.0,0.0,0.0,3.4016,3.4051,3.3982,3.3597,3.2903,3.1846,3.0317,2.9561,2.8858,2.8063,2.7551,2.6891,2.6037,2.5458,2.4772,2.3937,2.2986,0.0,2.1439,2.0502,1.9729,1.9221,1.87,1.8224,1.7757,0.0,0.0,1.6525,1.6484,1.6286,1.5955,1.5658,1.5526,1.5484,1.5041,1.4684,1.437,1.3906,1.3865,1.4035,1.3893,1.4026,1.4223,1.4237,1.4123,1.408,1.4494,1.4553,1.4605,1.5141,1.5328,0.0,1.5524,1.5594,1.5665,1.5815,1.5757,1.5684,1.5863,1.5827,1.5725,1.5725,1.5799,1.5779,1.5427,1.5237,1.5013,1.4672,1.4094,1.3613,1.3324,1.3276,1.318,1.2857,1.2685,1.2499,1.2243,1.202,1.1703,1.1205,1.1041,1.0791,1.0388,1.0132,0.9921,0.9793,0.9622,0.9329,0.8841,0.8414,0.7995,0.754,0.7314,0.7007,0.6623,0.4924,0.4283,0.0,0.0,0.0,0.0,0.0,0.0,0.0,0.0,0.0,0.0,0.0,3.5593,0.0,0.0,3.5302,3.5026,3.5041,3.4924,3.4539,3.4051,3.3101,3.1405,3.0658,2.9859,2.8751,2.8222,2.7459,2.6384,2.5813,2.515,2.4232,2.361,2.2861,2.1973,2.1314,2.0692,2.0128,1.9678,1.9164,1.8665,1.8345,1.7934,1.7497,1.7294,1.709,1.6894,1.6558,1.63,1.6048,1.5443,1.5031,1.4741,1.458,1.4459,1.441,1.421,1.4285,1.4493,1.4517,1.4462,1.4464,1.4976,1.5173,1.5275,1.5674,1.5842,1.5903,1.6035,1.5974,1.5937,1.6118,1.6084,1.6062,1.6244,1.6268,1.6234,1.6234,1.6201,1.6117,1.5861,1.5762,1.5625,1.5362,1.5123,1.4727,1.4088,1.3899,1.3791,1.3631,1.3472,1.3381,1.3356,1.3235,1.3053,1.2771,1.2381,1.1958,1.1423,1.1262,1.1153,1.1093,1.105,1.085,1.0501,1.0115,0.9621,0.8988,0.8689,0.8351,0.7931,0.6884,0.6077,0.0,0.0,0.0,0.0,0.0,0.0,0.0,3.6861,3.6816,3.6785,3.6646,3.6507,3.6414,3.6274,3.6102,3.6023,3.5943,3.5784,3.5397,3.4924,3.4061,3.2581,3.1721,3.0766,2.9535,2.875,2.7852,2.6729,2.6205,2.5503,2.4559,2.4239,2.3674,2.2777,2.2333,2.1842,2.1318,2.0798,2.0246,1.9726,1.9253,1.8895,1.8536,1.8175,1.7983,1.7853,1.7422,1.695,1.6519,1.5806,1.5387,1.5272,1.5271,1.5162,1.4927,1.4576,1.4618,1.483,1.4844,1.4848,1.4963,1.5497,1.5806,1.6044,1.6263,1.6375,1.6433,1.6468,1.6333,1.6208,1.634,1.6404,1.6468,1.6666,1.6759,1.6782,1.6782,1.6678,1.6542,1.6418,1.6418,1.6389,1.6265,1.6236,1.5921,1.4913,1.4628,1.454,1.454,1.444,1.441,1.451,1.4442,1.4323,1.4273,1.3636,1.297,1.2465,1.2332,1.2262,1.216,1.2332,1.225,1.1948,1.1656,1.1156,1.0415,1.0045,0.9674,0.9268,0.9026,0.8138,3.9109,3.8772,3.8455,3.8214,3.8071,3.7943,0.0,0.0,3.7886,3.7772,3.7727,3.7578,3.7148,3.7058,3.6906,3.6507,3.6507,3.643,3.5973,3.5559,3.4818,3.3576,3.2275,3.1123,3.0266,2.9155,2.8113,2.719,2.6469,2.5816,2.5207,2.4705,2.4321,2.4009,2.3434,2.299,2.2767,2.1993,2.1489,2.1231,2.0615,1.9991,1.9441,1.9213,1.8944,1.8559,1.7909,1.7312,1.6746,1.6328,1.6176,1.6133,1.6021,1.598,1.5899,1.5501,1.5484,1.5681,1.5674,1.5771,1.5956,1.6167,1.6464,1.6837,1.7166,1.7109,1.6973,1.7158,1.7012,1.6831,1.6957,1.6919,1.6878,1.7088,1.7154,1.7153,1.7153,1.7351,1.7556,1.7518,1.7518,1.7529,1.749,1.749,1.7101,1.5921,1.5729,1.5719,1.5719,1.569,1.57,1.5719,1.569,1.5575,1.5255,1.4894,1.4462,1.3995,1.3783,1.3506,1.306,1.3356,1.3274,1.2798,1.2913,1.2725,1.2298,1.207,1.1781,1.1366,1.0975,0.9817,3.9986,3.9723,3.9437,3.9038,3.8838,3.8689,3.8472,3.8472,3.8483,3.8444,3.8359,3.8258,3.8059,3.796,3.7786,0.0,3.7417,3.7238,3.6754,3.6399,3.5686,3.4407,3.3197,3.191,3.0405,2.9624,2.8726,2.7631,2.7169,2.664,2.5978,2.5604,2.5252,2.4838,2.4479,2.4118,2.3717,2.3239,2.2793,2.2381,2.1738,2.1242,2.0865,2.0014,1.9286,1.8615,1.8099,1.7595,1.7113,1.6795,1.6564,1.6484,1.6526,1.6673,1.6786,1.6184,1.6035,1.6105,1.6219,1.6394,1.6638,1.6985,1.7398,1.7726,1.7786,1.782,1.776,1.7532,1.7286,1.7113,1.7245,1.7259,1.7313,1.7558,1.7796,1.7995,1.8104,1.8294,1.8467,1.8467,1.8467,1.8467,1.8467,1.8467,1.8294,1.7765,1.7185,1.6747,1.6673,1.6662,1.6652,1.6673,1.6673,1.6531,1.6226,1.5901,1.5555,1.5216,1.4926,1.469,1.4493,1.4478,1.4337,1.412,1.4117,1.394,1.3517,1.336,1.3135,1.2835,1.2382,1.1658,4.0908,4.0631,4.0341,3.9843,3.9568,3.9348,3.9071,3.9061,3.9104,3.9034,3.8952,3.8887,3.8788,3.8655,3.8516,3.8315,3.8201,3.8001,3.7549,3.7222,3.6473,3.4988,3.4046,3.2761,3.0799,3.0097,2.9384,2.8379,2.8012,2.7584,2.6947,2.6641,2.6264,2.5791,2.5511,2.5158,2.4659,2.4419,2.402,2.346,2.2942,2.2456,2.2035,2.0771,1.9786,1.8974,1.8608,1.8219,1.7769,1.7467,1.7242,1.7148,1.7354,1.756,1.7716,1.7301,1.7001,1.6802,1.6985,1.7182,1.7413,1.7901,1.8271,1.852,1.8453,1.8406,1.8332,1.7942,1.7648,1.7478,1.7575,1.775,1.7952,1.8197,1.8563,1.8924,1.9135,1.9279,1.9396,1.9422,1.9448,1.9448,1.9448,1.9474,1.95,1.95,1.8833,1.8178,1.776,1.7694,1.771,1.7705,1.765,1.7529,1.7296,1.7006,1.6736,1.6482,1.6148,1.5935,1.585,1.5664,1.5504,1.5373,1.5349,1.5092,1.4681,1.4659,1.4494,1.421,1.3901,1.3578,4.1881,4.1477,4.0984,4.0648,4.0277,3.9902,3.9636,3.9722,3.9807,3.961,3.9618,3.9556,3.9232,3.9061,3.8942,3.8805,3.8777,3.865,3.8298,3.8042,3.7186,3.532,3.4674,3.3641,0.0,3.0644,2.9856,2.956,2.9044,2.861,2.8254,2.7749,2.7284,2.6973,2.6552,2.6186,2.5828,2.5465,2.5052,2.4636,2.4288,2.3674,2.2713,2.1591,2.0663,1.9954,1.9737,1.9298,1.8754,1.8543,1.8442,1.8476,1.8664,1.8741,1.8798,1.911,1.8687,1.7974,1.8168,1.8361,1.8509,1.8931,1.9069,1.9083,1.924,1.8852,1.8393,1.8382,1.8238,1.8061,1.8088,1.8494,1.8987,1.9133,1.9462,1.9824,2.0105,2.0245,2.0397,2.0535,2.056,2.056,2.056,2.0646,2.0759,2.0759,2.0721,2.027,1.9093,1.8934,1.8934,1.8934,1.8842,1.867,1.8471,1.8321,1.8131,1.7852,1.7512,1.7208,1.695,1.6998,1.6796,1.6277,1.6498,1.6376,1.5848,1.6163,1.6066,1.5536,1.58,1.5517,4.2616,4.23,4.1934,4.1565,4.1265,4.0984,4.0731,4.0652,4.0621,4.0538,4.041,4.0262,4.0145,3.9978,3.9799,3.9636,3.9566,3.9398,3.8963,3.8827,3.7997,3.5945,3.5467,0.0,0.0,0.0,0.0,3.0253,2.9962,2.956,2.898,2.8565,2.8143,2.7676,2.7443,2.7129,2.6769,2.6552,2.6242,2.5814,2.4869,2.3721,2.2442,2.2069,2.155,2.0924,2.0729,2.0401,1.9966,1.9824,1.9671,1.9573,1.977,1.9846,1.9911,2.0237,2.0226,1.9966,1.9363,1.9353,1.9553,1.9544,1.9769,1.9965,1.9668,1.9486,1.9345,1.9122,1.9083,1.9085,1.9085,1.9437,1.9837,2.008,2.0446,2.0845,2.1188,2.1372,2.1492,2.1585,2.168,2.1728,2.1728,2.1846,2.1941,2.1941,2.121,2.0534,2.0105,1.9991,1.9927,1.9927,1.9799,1.967,1.9515,1.9279,1.9095,1.8912,1.87,1.8447,1.814,1.8071,1.7857,1.7505,1.7618,1.7529,1.7171,1.7317,1.7205,1.6853,1.667,1.6389,4.3232,4.2958,4.2674,4.232,4.205,4.1831,4.1534,4.1423,4.1333,4.1243,4.11,4.0937,4.089,4.0693,4.0517,4.0368,4.0303,4.0121,3.974,3.961,3.88,3.6774,3.6322,3.5412,0.0,0.0,0.0,3.1102,3.0896,3.0524,2.9886,2.9515,2.9107,2.8578,2.8417,2.8143,2.7782,2.7617,2.7193,2.6451,2.5215,2.4059,2.3054,2.288,2.2582,2.2132,2.1928,2.1698,2.1467,2.1259,2.1101,2.1005,2.1144,2.1207,2.1239,2.1565,2.1741,2.1678,2.0677,2.0394,2.0497,2.0469,2.0534,2.0536,2.0297,2.0211,2.0186,2.0028,2.008,2.0169,2.0169,2.0484,2.0832,2.1091,2.1417,2.1775,2.218,2.2342,2.2443,2.2543,2.2688,2.2801,2.2801,2.295,2.3061,2.3061,2.234,2.1625,2.1272,2.1161,2.1124,2.1075,2.0966,2.0843,2.0769,2.0484,2.0257,2.0118,1.9927,1.9722,1.9477,1.9282,1.9073,1.8847,1.8791,1.8585,1.8261,1.8418,1.8338,1.8012,1.7848,1.7657,4.3681,4.3426,4.3178,4.2903,4.2637,4.2378,4.2115,4.2035,4.199,4.1799,4.1701,4.1609,4.148,4.1237,4.1071,4.1047,4.0995,4.0853,4.0676,4.0392,3.9578,0.0,0.0,0.0,0.0,0.0,0.0,3.2178,0.0,3.1493,3.0896,3.0539,3.016,2.9685,2.9467,2.9202,2.8885,2.8634,2.786,2.6594,2.5406,2.4719,2.445,2.4046,2.3787,2.3598,2.3314,2.3207,2.3165,2.2834,2.2713,2.2713,2.2713,2.2713,2.2743,2.3075,2.3207,2.3075,2.2096,2.1534,2.1331,2.1668,2.1325,2.0815,2.1055,2.1015,2.0894,2.1042,2.1175,2.1272,2.1272,2.1565,2.1912,2.2105,2.2374,2.2672,2.3083,2.3209,2.3304,2.345,2.3629,2.3764,2.3764,2.3985,2.4147,2.4147,2.4042,2.3586,2.2521,2.2475,2.2512,2.2383,2.2244,2.2151,2.2151,2.1846,2.1609,2.1465,2.1199,2.0993,2.0883,2.061,2.0409,2.0257,2.0016,1.9657,1.919,1.9528,1.944,1.8967,1.9275,1.927,4.3958,4.3783,4.3583,4.3392,4.3196,4.305,4.292,4.2769,4.2653,4.2614,4.2454,4.2292,4.2154,4.2008,4.1881,4.1831,4.164,0.0,4.1214,4.096,0.0,3.8099,0.0,3.6743,3.4814,3.4529,0.0,0.0,3.283,3.2158,3.1635,3.1349,3.0984,3.0509,3.0313,3.0101,2.9901,2.9005,2.7889,2.6517,2.6009,2.5558,2.5139,2.5047,2.4965,2.4909,2.4739,2.4526,2.4284,2.4082,2.4024,2.4024,2.4024,2.4024,2.4053,2.4341,2.4555,2.4587,2.402,2.3252,2.2546,2.2483,2.222,2.1944,2.1798,2.1842,2.1941,2.2081,2.2128,2.2175,2.2175,2.2397,2.2686,2.286,2.3209,2.3566,2.3909,2.4042,2.4152,2.4395,2.4619,2.4724,2.4724,2.4799,2.4855,2.4855,2.4835,2.4441,2.3463,2.3341,2.3312,2.3275,2.3143,2.3017,2.2928,2.2665,2.2415,2.2221,2.1964,2.1789,2.1684,2.153,2.1385,2.1251,2.1177,2.0919,2.0534,2.0588,2.0374,1.9858,1.9955,1.9726,4.4262,4.4097,4.3942,4.3795,4.3679,4.3562,4.3443,4.3339,4.3214,4.3105,4.2995,4.2863,4.2692,4.2577,4.2476,0.0,0.0,0.0,4.1809,4.1525,4.0612,0.0,3.8196,0.0,3.5335,3.5048,3.4851,0.0,3.3688,3.2964,3.2516,3.2173,3.1807,3.1422,3.116,3.0778,3.0265,2.9088,2.7996,2.7072,2.6706,2.6367,2.6067,2.612,2.612,2.604,0.0,2.5728,2.5481,2.5398,2.5412,2.5467,2.5549,2.559,2.5658,2.5889,2.6024,2.606,2.5667,2.4918,2.4012,2.3189,2.2774,2.2606,2.2502,2.2603,2.2815,2.2942,2.2987,2.3009,2.3054,2.3246,2.3486,2.3724,2.4042,2.4354,2.4594,2.4755,2.4899,2.5153,2.5285,2.54,2.5476,2.5495,2.5513,2.557,2.5532,2.5326,2.482,2.4491,2.4297,2.4256,2.4152,2.4012,2.3906,2.3629,2.337,2.3128,2.2883,2.2717,2.2603,2.2457,2.2356,2.2249,2.2133,2.1931,2.1657,2.1575,2.1334,2.0979,2.087,2.0622,4.4605,4.4402,4.4254,4.4181,4.4109,4.402,4.3825,4.3779,4.3662,4.3442,4.3373,4.3321,4.3124,4.3032,4.2939,4.2807,0.0,4.2474,4.2371,4.199,4.1049,3.9268,3.8624,3.7631,3.5892,3.5549,3.5344,3.5228,3.4505,3.3882,3.3361,3.2964,3.2583,3.2164,3.1858,3.1199,3.0112,2.8979,2.8221,2.7865,2.7425,2.7174,2.7082,2.7199,2.7174,2.7056,0.0,0.0,2.668,2.6695,2.6759,2.6886,2.7016,2.7144,2.7282,2.7409,2.7475,2.7395,2.6895,2.6277,2.548,2.3923,2.325,2.3068,2.3216,2.3399,2.3558,2.3702,2.3724,2.3745,2.3882,2.4057,2.4266,2.4523,2.4775,2.5017,2.515,2.5359,2.5549,2.5719,2.5793,2.5848,2.6028,2.6046,2.61,2.6242,2.6171,2.6119,2.621,2.5687,2.5269,2.5243,2.5114,2.5017,2.4914,2.4634,2.4349,2.4069,2.3894,2.3709,2.3565,2.3384,2.329,2.3268,2.3046,2.283,2.2694,2.248,2.231,2.2147,2.1912,2.1698,4.4858,4.4719,4.46,4.4519,4.4468,4.4383,4.431,4.4113,4.3923,4.3892,4.38,4.3667,4.3529,4.3443,4.3357,4.3214,4.3068,4.2899,4.2653,4.1819,4.0765,0.0,3.8517,3.7494,3.6464,3.6165,0.0,0.0,0.0,3.4826,3.4134,3.3832,3.3123,3.1902,3.1807,3.1098,2.9638,2.9307,2.8834,2.8213,2.8024,2.7944,2.7974,2.7999,2.7999,2.7974,0.0,0.0,2.765,2.761,2.7685,2.7864,2.7889,2.7987,2.8119,2.8231,2.828,2.8134,2.7078,2.6627,2.63,2.501,2.4251,2.3839,2.403,2.4198,2.4338,2.4405,2.4426,2.4431,2.4467,2.4574,2.4735,2.495,2.5166,2.5378,2.557,2.5844,2.6078,2.6114,2.624,2.6347,2.6331,2.6331,2.6383,2.6573,2.659,2.6641,2.6825,2.6279,2.5864,2.5846,2.5828,2.5701,2.5492,2.5416,2.5227,2.4899,2.4759,2.4608,2.4491,2.4384,2.4282,2.4184,2.4069,2.3894,2.3666,2.3465,2.3231,2.2995,2.2889,2.264,4.5145,4.5034,4.4941,4.4883,4.4808,4.4719,4.4592,4.4421,4.4262,4.4131,4.4042,4.3947,4.3781,4.3701,4.3617,4.3478,4.334,4.3196,4.2976,4.2043,4.0981,3.9941,3.8866,3.7812,3.6803,3.6615,0.0,0.0,0.0,3.5543,3.4859,3.4374,3.3586,3.2463,3.1946,3.1167,3.0037,2.9603,2.9258,2.8935,2.8865,2.8858,2.8873,2.8873,2.8803,2.8646,2.8598,0.0,2.8328,2.8359,2.8503,2.874,2.8795,2.8919,2.9088,2.915,2.9173,2.8983,2.7683,2.7169,2.6915,2.5669,2.4879,2.4431,2.4558,2.471,2.4831,2.4895,2.4899,2.4934,2.5009,2.5127,2.5246,2.5381,2.5567,2.5772,2.5975,2.6171,2.6312,2.6381,2.6555,2.6674,2.6741,2.6791,2.6891,2.7103,2.7086,2.7119,2.7246,2.694,2.6674,2.6555,2.6418,2.6279,2.6086,2.5995,2.5848,2.5586,2.5441,2.5313,2.5218,2.5121,2.5028,2.4969,2.4843,2.4679,2.4522,2.4178,2.3943,2.3767,2.3631,2.3436,4.541,4.5322,4.5251,4.5194,4.5106,4.4984,4.4808,4.4699,4.4551,4.4304,4.4214,4.4138,4.3963,4.3867,4.3786,4.3667,4.3515,4.3339,4.3032,4.2087,4.107,4.0056,3.908,0.0,3.7166,3.7075,0.0,0.0,0.0,0.0,3.5344,3.4787,3.399,3.2942,3.2183,3.1355,3.0486,2.9929,2.9677,2.9677,2.9677,2.9655,2.9649,2.9649,2.9522,2.9325,2.9303,0.0,0.0,2.9051,2.9227,2.9464,2.9576,2.9716,2.9897,2.9897,2.9778,2.947,2.8204,2.7591,2.7195,2.6048,2.5343,2.4954,2.5075,2.5188,2.5285,2.5384,2.5384,2.5403,2.5549,2.5624,2.5717,2.5811,2.5992,2.6188,2.6348,2.647,2.659,2.6708,2.6858,2.7005,2.7182,2.7261,2.7355,2.7539,2.7509,2.7526,2.7602,2.7557,2.745,2.7214,2.6989,2.6791,2.664,2.6522,2.6401,2.6225,2.612,2.6033,2.5977,2.5835,2.5781,2.5762,2.5556,2.5384,2.5285,2.4847,2.4603,2.4508,2.4323,2.4135,4.5588,4.551,4.5467,4.539,4.5282,4.5137,4.5003,4.4821,4.4632,4.4426,4.4285,4.4169,4.4005,4.3945,4.3867,4.3786,4.3686,4.3275,4.2406,4.1462,4.0503,3.9496,0.0,0.0,3.7739,3.7667,0.0,0.0,0.0,0.0,0.0,3.5165,3.4276,3.2603,3.2465,3.1736,3.0323,3.0262,3.0246,3.0246,3.0246,3.0199,3.0146,3.0146,3.0124,3.0103,0.0,0.0,0.0,2.9766,2.9788,2.993,2.9951,3.0038,3.0167,3.0167,2.9742,2.905,2.8249,2.7529,2.6842,2.6182,2.568,2.5397,2.5715,2.5807,2.5862,2.6046,2.601,2.5956,2.6082,2.6063,2.601,2.6207,2.6399,2.6572,2.6657,2.6858,2.7053,2.7117,2.7308,2.7465,2.7542,2.7572,2.76,2.7745,2.7774,2.7821,2.794,2.794,2.7914,2.783,2.7526,2.7246,2.7053,2.7021,2.6989,2.6924,2.6908,2.6874,2.6874,2.6741,2.6657,2.659,2.6331,2.6118,2.5919,2.5642,2.5397,2.5201,2.5068,2.4815,4.5731,4.5692,4.5651,4.5594,4.5504,4.539,4.5167,4.4995,4.4796,4.451,4.3947,4.3577,4.3943,4.3537,4.3325,4.3793,4.3718,4.3306,4.2448,4.1524,4.0602,3.9715,3.8794,0.0,0.0,0.0,0.0,0.0,0.0,0.0,0.0,3.5358,3.4358,3.3258,3.2723,3.1942,3.0905,3.0861,3.0797,3.072,3.072,3.0757,3.0794,3.0838,3.0861,3.0861,0.0,0.0,0.0,3.0456,3.0435,3.0472,3.0426,3.0526,3.0692,3.0692,3.0209,2.9476,2.8746,2.7956,2.717,2.6563,2.6278,2.6174,2.6207,2.6207,2.6242,2.6435,2.6453,2.6435,2.6539,2.6573,2.6624,2.6691,2.6808,2.6924,2.6989,2.7165,2.7355,2.7432,2.7647,2.7824,2.7882,2.7968,2.8035,2.8091,2.8081,2.8039,2.8071,2.8011,2.8,2.7957,2.7719,2.7539,2.7402,2.7355,2.7308,2.7263,2.723,2.7198,2.7117,2.7069,2.7037,2.7005,2.6808,2.6624,2.6418,2.6155,2.5919,2.5733,2.5532,2.5362,4.5791,4.5795,4.5773,4.5722,4.5665,4.5559,4.5301,4.5121,4.4919,4.4565,4.3915,4.3513,4.3924,4.3494,4.3262,4.3804,4.3783,4.3389,4.2527,4.1622,4.0753,3.9932,0.0,0.0,0.0,0.0,0.0,0.0,0.0,0.0,0.0,3.5575,3.4493,3.3902,3.3068,3.2276,3.1507,3.1447,3.1368,3.1274,3.1252,3.1291,3.1406,3.1466,3.1506,3.1507,0.0,0.0,0.0,3.1125,3.1047,3.1044,3.0958,3.1018,3.1154,3.1154,3.0528,2.9616,2.911,2.8227,2.7297,2.6911,2.6808,2.6841,2.6808,2.6708,2.6691,2.6874,2.694,2.694,2.6939,2.7052,2.7165,2.7165,2.7244,2.7338,2.7382,2.7567,2.7736,2.7792,2.7982,2.8122,2.8182,2.8277,2.8327,2.8327,2.8291,2.8237,2.8196,2.8122,2.8067,2.8071,2.7908,2.7792,2.7721,2.7677,2.7617,2.7542,2.7559,2.7496,2.7353,2.7322,2.7324,2.7324,2.7184,2.7023,2.6858,2.6641,2.6418,2.6207,2.6066,2.5903,4.5807,4.5798,4.5781,4.5715,4.5695,4.5622,4.5369,4.5192,4.4998,4.4578,4.4401,4.4222,4.4036,4.3986,4.3974,4.3913,4.3897,4.3555,4.2544,4.1701,4.0877,0.0,0.0,3.8692,0.0,0.0,0.0,0.0,0.0,0.0,0.0,3.5829,3.4709,3.4318,3.3567,3.2802,3.2003,3.1931,3.1894,3.1894,3.1819,3.1838,3.1894,3.1894,3.1931,0.0,0.0,0.0,0.0,3.1749,3.164,3.1582,3.1523,3.1485,3.1485,3.1485,3.0509,2.9211,2.9193,2.822,2.7039,2.7149,2.7197,2.726,2.7597,2.7444,2.7228,2.745,2.7496,2.7463,2.7319,2.7441,2.758,2.758,2.7701,2.78,2.7869,2.8059,2.8201,2.8286,2.834,2.8398,2.8398,2.8411,2.8411,2.8411,2.8411,2.8398,2.8398,2.834,2.8273,2.8196,2.814,2.8071,2.8014,2.8,2.7957,2.7888,2.7888,2.7827,2.7701,2.763,2.7602,2.7602,2.7465,2.7341,2.7197,2.7135,2.694,2.6691,2.6691,2.6435,4.5807,4.58,4.5771,4.5723,4.5676,4.5593,4.5409,4.5192,4.4931,4.4632,4.3943,4.3531,4.3924,4.3559,4.3355,4.3881,4.3929,4.3603,4.2723,0.0,0.0,4.0065,3.9231,0.0,0.0,0.0,0.0,0.0,0.0,0.0,0.0,3.6385,3.5322,3.4925,3.3581,3.2718,3.242,3.2353,3.2249,3.2091,3.209,3.2161,3.2301,3.237,0.0,0.0,0.0,0.0,0.0,3.2301,3.2179,3.2056,3.1913,3.1931,3.2038,3.2038,3.1081,2.974,2.974,2.8701,2.7373,2.7432,2.7539,2.7657,2.7893,2.776,2.7565,2.7728,2.785,2.7896,2.7864,2.7936,2.8003,2.8003,2.8077,2.8146,2.8174,2.8255,2.834,2.8353,2.8419,2.8471,2.8471,2.851,2.8523,2.8484,2.8471,2.8458,2.8411,2.8367,2.8353,2.8345,2.8318,2.8205,2.8028,2.8014,2.8,2.7971,2.7971,2.7957,2.7911,2.7842,2.7815,2.7815,2.7635,2.7496,2.7402,2.7324,2.7198,2.6972,2.6841,2.6674,4.5807,4.5793,4.5783,4.568,4.5616,4.5512,4.5329,4.5103,4.4846,4.4578,4.3938,4.3558,4.3943,4.3596,4.3429,4.3912,4.3958,4.3651,0.0,0.0,0.0,3.9718,0.0,0.0,0.0,0.0,0.0,0.0,0.0,0.0,0.0,0.0,3.5618,3.5103,3.3669,3.2882,3.2802,3.2705,3.2623,3.2506,3.2489,3.254,3.269,3.2739,0.0,0.0,0.0,0.0,0.0,3.277,3.2705,3.262,3.2469,3.2504,3.2569,3.2268,3.1347,3.0227,2.9882,2.8906,2.7806,2.785,2.7947,2.8087,2.8219,2.8119,2.7975,2.8073,2.8146,2.8223,2.8223,2.8259,2.8309,2.8309,2.8349,2.8419,2.8419,2.8445,2.8489,2.8489,2.851,2.8549,2.8549,2.8574,2.8587,2.8531,2.8549,2.8523,2.8471,2.8445,2.8432,2.8432,2.8432,2.8367,2.8205,2.8164,2.8136,2.8109,2.8109,2.8095,2.8081,2.8042,2.8,2.7975,2.7827,2.7707,2.765,2.7526,2.7419,2.7293,2.7101,2.6972,0.0,4.5791,4.5765,4.5632,4.5538,4.5419,4.5151,4.4931,0.0,4.4454,4.4285,4.4169,4.402,4.4005,4.4005,4.4005,4.4005,4.3695,0.0,4.1952,0.0,0.0,0.0,0.0,0.0,0.0,0.0,0.0,0.0,0.0,0.0,0.0,3.5688,3.492,3.3884,3.3259,3.3132,3.3057,3.3044,3.3028,3.2963,3.2963,3.3044,3.3026,0.0,0.0,0.0,0.0,0.0,3.3196,3.3175,3.3235,3.3162,3.3132,3.3057,3.2247,3.142,3.061,2.9757,2.8958,2.8327,2.8327,2.8401,2.8505,2.8505,2.8471,2.8406,2.8406,2.8406,2.8406,2.8406,2.8458,2.8523,2.8523,2.8562,2.86,2.86,2.86,2.86,2.86,2.86,2.86,2.86,2.86,2.86,2.86,2.86,2.86,2.86,2.8549,2.8505,2.8518,2.8536,2.8531,2.8531,2.8471,2.8393,2.8327,2.834,2.8313,2.8228,2.8228,2.8205,2.814,2.8042,2.7957,2.7888,2.7692,2.7617,2.7585,2.7481,2.734,4.5645,0.0,4.5692,4.5566,4.5391,4.5231,0.0,4.4821,4.4605,4.4426,4.4285,4.4169,4.402,4.4005,4.4005,4.4005,4.4005,4.3711,4.2878,0.0,0.0,0.0,0.0,0.0,0.0,0.0,0.0,0.0,0.0,0.0,0.0,0.0,3.5809,3.492,3.4063,3.3549,3.3404,3.3349,3.3274,3.3232,3.3216,3.3247,3.3304,3.3364,0.0,0.0,0.0,0.0,3.3605,3.3573,3.3573,3.3587,3.3502,3.3516,3.3449,3.2666,3.1846,3.1026,3.0148,2.9315,2.8625,2.8625,2.8619,2.8644,2.8644,2.8612,2.8549,2.8549,2.8549,2.8549,2.8549,2.8562,2.8574,2.8574,2.8587,2.86,2.86,2.86,2.86,2.86,2.86,2.86,2.86,2.86,2.86,2.86,2.86,2.86,2.86,2.8619,2.8669,2.8724,2.8785,2.8858,2.8952,2.8761,2.8612,2.8536,2.8619,2.8657,2.8582,2.8525,2.8461,2.8419,2.8136,2.7957,2.7888,2.7751,2.7672,2.7672,2.7585,2.7542,4.551,4.5528,4.5538,4.541,4.5231,4.5076,4.4895,4.4667,4.4482,4.4387,4.4207,4.4101,4.4085,4.4085,4.4101,4.4131,4.3781,0.0,0.0,0.0,0.0,0.0,0.0,0.0,0.0,0.0,0.0,0.0,0.0,0.0,0.0,0.0,3.5701,3.4431,3.3973,3.3671,3.3549,3.3506,3.3481,3.3437,3.3466,3.352,3.3591,3.3643,0.0,0.0,0.0,0.0,3.3934,3.3934,3.3947,3.3972,3.3934,3.3921,3.3805,3.2612,3.1894,3.136,3.0073,2.9294,2.8881,2.8846,2.8822,2.8779,2.8779,2.8718,2.865,2.8612,2.86,2.86,2.86,2.86,2.86,2.86,2.86,2.8612,2.865,2.865,2.8644,2.8687,2.8675,2.8662,2.8687,2.8675,2.8662,2.8687,2.8687,2.87,2.8737,2.881,2.8863,2.8929,2.9026,2.9108,2.9192,2.9149,2.903,2.8827,2.8897,2.892,2.8885,2.885,2.8767,2.8644,2.8362,2.8178,2.8085,2.7979,2.7904,2.7879,2.7853,2.781,4.5361,4.5312,4.5282,4.518,4.5065,4.4907,4.4738,4.4537,4.4383,4.4329,4.4177,4.4085,4.4199,4.4214,4.4244,4.4285,0.0,0.0,4.0634,0.0,0.0,0.0,0.0,0.0,0.0,0.0,0.0,0.0,0.0,0.0,0.0,0.0,0.0,3.3844,3.382,3.3766,3.3657,3.3629,3.3647,3.3661,3.3726,3.3807,3.3855,3.3934,3.4011,0.0,0.0,0.0,3.4245,3.4257,3.4293,3.434,3.434,3.4305,3.4059,3.2441,3.1846,3.1574,2.9866,2.9225,2.9145,2.9089,2.9033,2.8968,2.8945,2.8863,2.8755,2.8687,2.8625,2.86,2.86,2.86,2.86,2.8612,2.8625,2.865,2.8718,2.8755,2.8785,2.8834,2.8798,2.8755,2.881,2.8773,2.8761,2.881,2.8822,2.8846,2.8929,2.8991,2.906,2.9156,2.9259,2.9345,2.9365,2.9522,2.9502,2.9222,2.9201,2.918,2.9169,2.9158,2.9056,2.8851,2.8657,2.8492,2.8367,2.8282,2.8219,2.8168,2.8154,2.8126,4.5084,4.4991,4.49,4.5014,4.4883,4.4706,4.4632,4.451,4.4397,4.4383,4.431,4.427,4.427,4.4285,4.4285,0.0,0.0,0.0,0.0,0.0,0.0,0.0,0.0,0.0,0.0,0.0,0.0,0.0,0.0,0.0,0.0,0.0,0.0,3.3844,3.3873,3.3895,3.3934,3.3834,3.3807,3.3873,3.3985,3.4074,3.4148,3.4269,3.4328,0.0,0.0,3.442,3.4461,3.4517,3.4539,3.455,3.455,3.4517,3.4256,3.2647,3.2019,3.1738,3.0101,2.9501,2.9433,2.9423,2.9382,2.9291,2.9195,2.9149,2.91,2.8964,2.8773,2.86,2.86,2.86,2.8612,2.8675,2.8737,2.8798,2.8922,2.901,2.9033,2.9044,2.901,2.8934,2.8893,2.8881,2.8863,2.8893,2.8929,2.8987,2.9055,2.9138,2.9249,2.9423,2.9511,2.9598,2.9709,2.969,2.9681,2.9681,2.9645,2.956,2.9434,2.9373,2.9267,2.9055,2.8862,2.8719,2.8632,2.8505,2.844,2.8445,2.8375,2.8349,4.4895,4.4783,4.4712,4.4776,4.4706,4.4632,4.4551,4.4468,4.4397,4.4397,4.4358,4.4314,4.4401,0.0,4.4116,4.3198,0.0,0.0,0.0,0.0,0.0,0.0,0.0,0.0,0.0,0.0,0.0,0.0,0.0,0.0,0.0,0.0,0.0,0.0,3.4049,3.4099,3.4161,3.4136,3.4124,3.4124,3.4221,3.4328,3.4473,3.4561,3.4636,3.467,0.0,3.4751,3.4771,3.4771,3.4771,3.4761,3.4759,3.4425,3.3771,3.2117,3.1214,3.0697,2.9927,2.9617,2.9598,2.9608,2.956,2.9501,2.9433,2.9351,2.9228,2.9192,2.8991,2.8828,2.8828,2.8828,2.8834,2.8905,2.894,2.8998,2.913,2.9185,2.9235,2.9299,2.9228,2.9163,2.9181,2.9108,2.9086,2.9171,2.9192,2.9246,2.9349,2.9424,2.9513,2.9645,2.9745,2.9851,2.9891,2.9907,2.9874,2.9808,2.9764,2.9719,2.9654,2.9589,2.9493,2.937,2.9217,2.9079,2.8984,2.8874,2.8815,2.8767,2.8737,2.87,4.4719,4.4659,4.4578,4.4578,4.4578,4.4551,4.4515,4.4473,4.4411,4.4411,4.4401,4.4416,4.4528,4.4414,0.0,4.2328,0.0,0.0,0.0,0.0,0.0,0.0,0.0,0.0,0.0,0.0,0.0,0.0,0.0,0.0,0.0,0.0,0.0,0.0,3.4281,3.4328,3.4386,3.4454,3.4454,3.4386,3.4454,3.4604,3.4769,3.4849,3.4888,3.4945,3.4945,3.4983,3.502,3.4983,3.4945,3.4955,3.4927,3.4225,3.3053,3.1581,3.0505,2.9815,2.9779,2.9779,2.9787,2.9782,2.9756,2.9682,2.9673,2.957,2.9454,2.9415,2.9301,2.9178,2.9078,2.9055,2.9067,2.9156,2.9178,2.9225,2.9355,2.9405,2.9454,2.9551,2.9474,2.9395,2.9443,2.9353,2.9322,2.9433,2.9463,2.9512,2.9626,2.9709,2.9779,2.9868,2.9967,3.0022,3.0022,3.008,3.0022,2.9885,2.9859,2.9851,2.9815,2.9761,2.9709,2.9626,2.9522,2.9414,2.9301,2.923,2.9158,2.9082,2.9086,2.903,4.4542,4.4496,4.4515,4.4515,4.4515,4.4515,4.4501,4.4501,4.4501,4.4501,4.4537,4.4605,4.4672,4.4128,4.3381,4.251,0.0,0.0,0.0,0.0,0.0,0.0,0.0,0.0,0.0,0.0,0.0,0.0,0.0,0.0,0.0,0.0,0.0,0.0,0.0,3.4594,3.4666,3.4732,3.4732,3.4666,3.4732,3.4841,3.4983,3.5048,3.5075,3.5084,3.5084,3.5084,3.5084,3.5084,3.5084,3.5075,3.5011,3.396,3.2363,3.1437,3.0585,2.9888,2.9956,3.0022,3.0072,3.0072,3.0041,2.9948,2.9907,2.9866,2.9842,2.979,2.9745,2.9664,2.9272,2.9177,2.9228,2.9351,2.9423,2.9512,2.9635,2.9708,2.9773,2.9782,2.9708,2.9654,2.9607,2.9578,2.9578,2.9588,2.9636,2.9699,2.9782,2.9849,2.994,3.0053,3.0087,3.0095,3.0095,3.0095,3.0095,3.008,3.0022,2.9956,2.9907,2.9893,2.9815,2.9699,2.9672,2.9636,2.9578,2.9492,2.9443,2.9363,2.9312,2.9272,4.4515,4.4501,4.4501,4.4501,4.4524,4.4551,4.4515,4.4501,4.4515,4.4551,4.4619,4.4725,4.4907,0.0,4.2936,0.0,0.0,0.0,0.0,0.0,0.0,0.0,0.0,0.0,0.0,0.0,0.0,0.0,0.0,0.0,0.0,0.0,0.0,0.0,0.0,3.4879,3.4955,3.4974,3.4992,3.5002,3.4955,3.5001,3.5129,3.5147,3.5153,3.516,3.516,3.516,3.5151,3.5164,3.5155,3.506,3.3942,3.309,3.2362,3.0986,3.0292,3.003,3.0046,3.008,3.0095,3.0095,3.0087,3.0065,3.003,2.9999,2.9959,2.9934,2.9891,2.9823,2.9626,2.957,2.9589,2.9682,2.9737,2.9763,2.9874,2.9907,2.9943,2.9975,2.9924,2.9883,2.9841,2.9806,2.9798,2.9832,2.9866,2.9907,2.9975,3.0003,3.0049,3.0079,3.0135,3.0169,3.0169,3.0169,3.0169,3.0169,3.011,3.0046,3.0022,2.9983,2.9916,2.983,2.9823,2.9799,2.9719,2.971,2.9673,2.9645,2.957,2.955,4.4592,4.4605,4.4632,4.4632,4.4659,4.4699,4.4659,4.4619,4.4605,4.4659,4.477,4.483,4.4789,0.0,0.0,0.0,0.0,0.0,0.0,0.0,0.0,0.0,0.0,0.0,0.0,0.0,0.0,0.0,0.0,0.0,0.0,0.0,0.0,0.0,0.0,3.5115,3.5153,3.5153,3.5189,3.5223,3.5127,3.51,3.5198,3.5198,3.5196,3.5209,3.5209,3.5209,3.5201,3.5196,3.5198,3.5028,3.3288,3.2597,3.2398,3.0723,3.0102,3.0091,3.0091,3.0106,3.0132,3.0132,3.0132,3.0132,3.0132,3.0091,3.0068,3.0068,3.0026,2.9988,2.9932,2.9883,2.9885,2.9953,2.997,2.9986,3.0011,3.0026,3.0053,3.0083,3.0068,3.0019,3.003,2.998,2.9972,3.0022,3.0038,3.0053,3.0091,3.0121,3.0123,3.0123,3.0171,3.0211,3.0211,3.0211,3.0211,3.0211,3.0161,3.0125,3.0091,3.0053,3.0014,2.9964,2.9943,2.9901,2.9823,2.9834,2.9816,2.9799,2.9737,2.9729,4.4796,4.4846,4.4895,4.4895,4.4895,4.4919,4.4998,4.4895,4.4796,4.4796,4.5023,4.4965,4.425,4.3478,0.0,0.0,0.0,0.0,0.0,0.0,0.0,0.0,0.0,0.0,0.0,0.0,0.0,0.0,0.0,0.0,0.0,0.0,0.0,0.0,0.0,0.0,3.5312,3.5312,3.5312,3.5312,3.5226,3.5209,3.5209,3.5209,3.5209,3.5209,3.5209,3.5209,3.5209,3.5209,3.5204,3.5028,3.3282,3.261,3.2398,3.0723,3.0098,3.0101,3.0101,3.013,3.0211,3.0211,3.0211,3.0211,3.0211,3.0211,3.0211,3.0211,3.0211,3.0211,3.0211,3.0106,3.0022,3.0087,3.0102,3.011,3.0094,3.0101,3.0101,3.0101,3.0101,3.0094,3.0102,3.0102,3.0102,3.0102,3.0106,3.0101,3.0101,3.0164,3.0211,3.0211,3.0211,3.0211,3.0211,3.0211,3.0211,3.0211,3.0211,3.0171,3.0109,3.0098,3.0095,3.0095,3.003,2.9964,2.9897,2.9901,2.9878,2.9808,2.9808,2.9808,4.501,4.5033,4.5045,4.5045,4.508,4.5106,4.5135,4.5042,4.4991,4.5124,4.4794,4.447,4.4338,0.0,0.0,0.0,0.0,0.0,0.0,0.0,0.0,0.0,0.0,0.0,0.0,0.0,0.0,0.0,0.0,0.0,0.0,0.0,0.0,0.0,0.0,0.0,3.5369,3.5369,3.5361,3.5293,3.5273,3.5253,3.5209,3.5209,3.5209,3.5209,3.5209,3.5209,3.5209,3.5209,3.5201,3.5032,3.3333,3.2676,3.2478,3.0787,3.0164,3.0171,3.0171,3.0178,3.0211,3.0211,3.0211,3.0211,3.0211,3.0211,3.0211,3.0211,3.0211,3.0211,3.0211,3.0178,3.0145,3.0176,3.0176,3.0176,3.0171,3.0171,3.0171,3.0171,3.0171,3.0164,3.0176,3.0176,3.0176,3.0176,3.0159,3.018,3.018,3.0194,3.0194,3.0192,3.0211,3.0211,3.0211,3.0211,3.0211,3.0211,3.0211,3.0185,3.0171,3.0128,3.0094,3.0094,3.0076,3.0053,3.0038,3.0049,3.0018,2.9951,2.9891,2.9866,4.5248,4.5279,4.53,4.53,4.532,4.5361,4.5352,4.5272,4.5144,4.4988,4.4591,4.4102,4.3539,4.2628,0.0,0.0,0.0,0.0,0.0,0.0,0.0,0.0,0.0,0.0,0.0,0.0,0.0,0.0,0.0,0.0,0.0,0.0,0.0,0.0,0.0,0.0,3.5476,3.5449,3.5429,3.5381,3.5345,3.5315,3.5274,3.5223,3.5209,3.5209,3.5209,3.5209,3.5209,3.5209,3.5209,3.5029,3.3349,3.2699,3.2508,3.0815,3.0211,3.0211,3.0211,3.0211,3.0211,3.0211,3.0211,3.0211,3.0211,3.0211,3.0211,3.0211,3.0199,3.0206,3.0206,3.0226,3.0227,3.0213,3.0219,3.0252,3.0252,3.0252,3.0252,3.0252,3.0252,3.0252,3.0252,3.0252,3.0252,3.0252,3.0246,3.0234,3.0234,3.0234,3.0246,3.0233,3.0252,3.0252,3.0252,3.0252,3.0252,3.0252,3.0213,3.0206,3.0206,3.0171,3.015,3.015,3.0113,3.0098,3.0098,3.0102,3.008,3.0038,3.0007,2.9983,4.5504,4.5549,4.5603,4.5603,4.5612,4.5601,4.5528,4.5458,4.5222,4.454,0.0,4.372,4.2277,0.0,0.0,0.0,0.0,0.0,0.0,0.0,0.0,0.0,0.0,0.0,0.0,0.0,0.0,0.0,0.0,0.0,0.0,0.0,0.0,0.0,0.0,0.0,3.5618,3.554,3.5515,0.0,3.5457,3.5418,3.5412,3.5274,3.5226,3.5226,3.5218,3.5218,3.5209,3.5209,3.5171,3.4942,3.3329,3.2661,3.2394,3.0796,3.0211,3.0211,3.0211,3.0211,3.0211,3.0192,3.0192,3.0192,3.0218,3.0218,3.0218,3.0218,3.0213,3.0214,3.0214,3.0247,3.0286,3.0208,3.0266,3.0292,3.0292,3.0292,3.0292,3.0292,3.0292,3.0292,3.0292,3.0292,3.0331,3.0414,3.0414,3.0452,3.0529,3.0548,3.0522,3.0522,3.0522,3.0522,3.0522,3.0522,3.0522,3.0522,3.0394,3.0329,3.0329,3.0244,3.0211,3.0211,3.015,3.0109,3.0109,3.0106,3.011,3.0102,3.0102,3.0102,4.5632,4.5668,4.5676,4.5676,4.5727,4.5576,4.4901,4.4773,4.4723,4.4515,4.3441,4.2412,0.0,0.0,0.0,0.0,0.0,0.0,0.0,0.0,0.0,0.0,0.0,0.0,0.0,0.0,0.0,0.0,0.0,0.0,0.0,0.0,0.0,0.0,0.0,3.5684,3.5684,3.5649,3.5664,0.0,3.5599,3.5552,3.5548,3.5418,3.5367,3.535,3.53,3.5281,3.5269,3.5218,3.4827,3.414,3.31,3.2317,3.1637,3.0586,3.0211,3.0211,3.0211,3.0211,3.0192,3.0194,3.02,3.0207,3.026,3.0286,3.0286,3.0286,3.0273,3.0279,3.0279,3.0286,3.0292,3.0286,3.0286,3.0292,3.0292,3.0292,3.0292,3.0292,3.0292,3.0292,3.0292,3.0292,3.0535,3.122,3.1322,3.1565,3.225,3.2346,3.232,3.2262,3.2262,3.2262,3.2262,3.2262,3.2262,3.2262,3.1654,3.1302,3.1302,3.059,3.0211,3.0211,3.0197,3.0178,3.0178,3.019,3.015,3.0094,3.0094,3.0098,4.5734,4.5742,4.5742,4.5742,4.5481,4.5104,4.4652,4.3944,4.3382,4.3363,4.2647,0.0,0.0,0.0,0.0,0.0,0.0,0.0,0.0,0.0,0.0,0.0,0.0,0.0,0.0,0.0,0.0,0.0,0.0,0.0,0.0,3.5795,0.0,0.0,3.5795,3.5807,3.5807,3.5768,3.5756,3.5756,3.5709,3.5696,3.5697,3.5518,3.5457,3.545,3.5416,3.5407,3.5386,3.532,3.4799,3.3963,3.3096,3.224,3.1398,3.0517,3.0211,3.0192,3.0206,3.0206,3.0213,3.0246,3.026,3.0241,3.0286,3.0292,3.0292,3.0292,3.0305,3.0299,3.0299,3.0323,3.0348,3.0348,3.0349,3.0356,3.0356,3.0356,3.0356,3.0356,3.0356,3.0356,3.0356,3.0682,3.1271,3.2097,3.2218,3.2391,3.2846,3.2904,3.2897,3.2846,3.2846,3.2846,3.2846,3.2846,3.2846,3.2846,3.2442,3.2217,3.2217,3.171,3.107,3.0259,3.0259,3.0259,3.0259,3.0259,3.0219,3.0152,3.0152,3.0138,4.58,4.5807,4.5768,4.564,4.5099,4.4518,4.424,4.3102,4.2059,4.1934,4.1906,0.0,0.0,0.0,0.0,0.0,0.0,0.0,0.0,0.0,0.0,0.0,0.0,0.0,0.0,0.0,0.0,0.0,0.0,0.0,3.5941,3.5914,3.5923,3.5912,3.5914,3.5921,3.5919,3.5858,3.5824,3.582,3.5817,3.5817,3.5814,3.5645,3.5566,3.5543,3.5546,3.5527,3.5509,3.5442,3.4819,3.3813,3.3091,3.2182,3.1211,3.0487,3.0225,3.0232,3.0214,3.0221,3.0227,3.0286,3.0299,3.0299,3.0305,3.0324,3.0324,3.0324,3.033,3.0316,3.0316,3.0367,3.0404,3.0404,3.0404,3.0404,3.0404,3.0404,3.0404,3.0404,3.0519,3.0615,3.0615,3.1346,3.2179,3.3006,3.3122,3.3179,3.3333,3.3353,3.3353,3.3353,3.3353,3.3353,3.3353,3.3353,3.3353,3.3353,3.3211,3.3115,3.3115,3.2922,3.216,3.0791,3.074,3.0657,3.0522,3.0522,3.0426,3.0221,3.0221,3.0207,4.5807,4.5807,4.564,4.4931,4.4686,4.4221,4.2762,0.0,4.1932,0.0,0.0,0.0,0.0,0.0,0.0,0.0,0.0,0.0,0.0,0.0,0.0,0.0,0.0,0.0,0.0,0.0,0.0,0.0,0.0,0.0,3.5986,3.5986,3.5988,3.5989,3.5988,3.5983,3.5994,3.5972,3.5966,3.5977,3.5907,3.5883,3.588,3.5852,3.5802,3.5765,3.5704,3.5634,3.5585,3.5515,3.4526,3.3057,3.2929,3.1885,3.0445,3.0331,3.0299,3.0299,3.0279,3.0279,3.0286,3.0305,3.0298,3.0304,3.0367,3.0392,3.0392,3.0392,3.0392,3.0398,3.0398,3.0379,3.0404,3.0404,3.0404,3.0404,3.0404,3.0404,3.0404,3.0404,3.1,3.1525,3.1525,3.2199,3.3026,3.3898,3.4032,3.4295,3.5058,3.5154,3.5154,3.5154,3.5154,3.5154,3.5154,3.5154,3.5154,3.5154,3.4442,3.4026,3.4026,3.3288,3.2782,3.2551,3.2499,3.212,3.143,3.143,3.1021,3.0279,3.0279,3.026,4.5247,4.4796,4.437,4.4019,4.3594,4.3053,4.2319,4.1805,4.1384,0.0,0.0,0.0,0.0,0.0,0.0,0.0,0.0,0.0,0.0,0.0,0.0,0.0,0.0,0.0,0.0,0.0,0.0,0.0,0.0,3.5964,3.6008,3.5991,3.5991,3.5991,3.6009,3.6007,3.6005,3.5999,3.5991,3.6001,3.5978,3.5956,3.5956,3.5951,3.5924,3.5843,3.5788,3.5741,3.5715,3.5644,3.4615,3.3063,3.2989,3.1896,3.0352,3.0304,3.0311,3.0318,3.033,3.0362,3.0355,3.0408,3.0394,3.0358,3.0389,3.0396,3.0404,3.0404,3.0404,3.0404,3.0404,3.0396,3.0394,3.0394,3.0425,3.0461,3.0461,3.0433,3.0538,3.1019,3.1795,3.2526,3.3026,3.3391,3.391,3.4795,3.493,3.5064,3.5442,3.55,3.55,3.55,3.55,3.55,3.55,3.55,3.55,3.55,3.5135,3.493,3.493,3.4564,3.4365,3.4365,3.3365,3.2679,3.2334,3.2334,3.2129,3.1757,3.1757,3.1475,4.4428,4.3846,4.3344,4.3155,4.265,4.2163,0.0,0.0,4.1037,0.0,0.0,0.0,0.0,0.0,0.0,0.0,0.0,0.0,0.0,0.0,0.0,0.0,0.0,0.0,0.0,0.0,0.0,0.0,0.0,3.5994,3.5995,3.5996,3.5996,3.5996,3.5996,3.5995,3.5995,3.599,3.6003,3.5996,3.5996,3.5995,3.5992,3.5992,3.598,3.5926,3.5858,3.582,3.5811,3.5752,3.4747,3.3214,3.3098,3.1997,3.0441,3.0381,3.034,3.0354,3.0408,3.045,3.0453,3.05,3.05,3.046,3.043,3.0428,3.0439,3.0433,3.0427,3.0427,3.0427,3.0431,3.0428,3.0428,3.0469,3.0562,3.0774,3.0788,3.0993,3.1864,3.2686,3.343,3.409,3.4379,3.4757,3.5404,3.55,3.5507,3.5494,3.5501,3.5501,3.5508,3.5501,3.5501,3.5501,3.5507,3.55,3.55,3.55,3.55,3.55,3.55,3.55,3.55,3.4212,3.3449,3.3237,3.3237,3.3128,3.2891,3.2891,3.2551,4.3382,4.3379,4.3227,4.2445,4.228,4.2097,0.0,0.0,0.0,0.0,0.0,0.0,0.0,0.0,0.0,0.0,0.0,0.0,0.0,0.0,0.0,0.0,0.0,0.0,0.0,0.0,0.0,0.0,0.0,3.5996,3.5996,3.5996,3.5996,3.5996,3.5996,3.5996,3.5995,3.5992,3.6009,3.6004,3.6004,3.6,3.5992,3.5992,3.5991,3.5988,3.5921,3.5899,3.5883,3.5829,3.4812,3.3296,3.3214,3.2118,3.0589,3.0516,3.0487,3.0482,3.0496,3.0545,3.0591,3.0591,3.0591,3.0586,3.0501,3.0492,3.0486,3.0485,3.0499,3.0499,3.0499,3.0479,3.0479,3.0479,3.0504,3.0735,3.1546,3.1672,3.19,3.2767,3.357,3.4148,3.4186,3.4891,3.5442,3.5481,3.55,3.5494,3.5502,3.5502,3.5515,3.5585,3.5547,3.5502,3.5502,3.5508,3.55,3.55,3.55,3.55,3.55,3.55,3.55,3.55,3.5404,3.4968,3.4129,3.4129,3.3699,3.291,3.291,3.2891,4.2526,4.217,4.1734,4.1494,4.1488,4.1443,4.1166,4.1092,0.0,0.0,0.0,0.0,0.0,0.0,0.0,0.0,0.0,0.0,0.0,0.0,0.0,0.0,0.0,0.0,0.0,0.0,0.0,0.0,0.0,0.0,3.5996,3.5996,3.5996,3.5996,3.5996,3.5996,3.5995,3.5994,3.5992,3.6009,3.6009,3.6006,3.6,3.6,3.5998,3.5991,3.5978,3.5968,3.5923,3.5299,3.4344,3.3231,3.2654,3.1712,3.0665,3.0586,3.057,3.0565,3.061,3.0649,3.0665,3.0671,3.066,3.0661,3.0634,3.0593,3.0568,3.0564,3.0525,3.0492,3.0492,3.0525,3.0559,3.0559,3.0984,3.1637,3.2468,3.3023,3.3458,3.3766,3.4532,3.5072,3.5034,3.5297,3.5495,3.5507,3.5508,3.5489,3.5509,3.5547,3.5566,3.5598,3.5585,3.556,3.556,3.5528,3.5502,3.5502,3.5502,3.5502,3.5502,3.5547,3.5547,3.5502,3.5502,3.5361,3.5026,3.5026,3.4872,3.4577,3.4577,3.4269,4.1651,4.1286,4.0917,4.0983,4.1051,4.1091,4.1094,0.0,0.0,0.0,0.0,0.0,0.0,0.0,0.0,0.0,0.0,0.0,0.0,0.0,0.0,0.0,0.0,0.0,0.0,0.0,0.0,0.0,0.0,0.0,3.5996,3.5996,3.5996,3.5996,3.5996,3.5996,3.5995,3.5995,3.5995,3.5992,3.5992,3.5991,3.6007,3.6007,3.6003,3.5996,3.5992,3.6006,3.5939,3.5019,3.4111,3.3251,3.238,3.1501,3.0733,3.0649,3.0655,3.0671,3.0698,3.0713,3.0728,3.0733,3.0728,3.0731,3.0725,3.0695,3.0633,3.0626,3.0607,3.0571,3.0571,3.0595,3.0696,3.0974,3.1706,3.2569,3.3393,3.3961,3.4394,3.4683,3.5198,3.5591,3.5547,3.5528,3.5534,3.5528,3.5528,3.5528,3.5521,3.5559,3.5616,3.5628,3.5622,3.5596,3.5596,3.5566,3.5528,3.5528,3.5528,3.5528,3.5528,3.5585,3.5585,3.5528,3.5528,3.5528,3.5521,3.5514,3.55,3.55,3.55,3.5026,0.0,0.0,0.0,4.0983,0.0,0.0,4.109,0.0,0.0,0.0,0.0,0.0,0.0,0.0,0.0,0.0,0.0,0.0,0.0,0.0,0.0,0.0,0.0,0.0,0.0,0.0,0.0,0.0,0.0,3.5995,3.5995,3.5996,3.5996,3.5996,3.5996,3.5996,3.5996,3.5996,3.5996,3.5995,3.5995,3.5994,3.5991,3.5991,3.6009,3.6004,3.6004,3.5998,3.5923,3.5036,3.4154,3.3315,3.2405,3.1543,3.078,3.0738,3.0735,3.0784,3.0726,3.0741,3.0801,3.0791,3.0794,3.0792,3.0803,3.0747,3.0709,3.0694,3.0698,3.0706,3.0706,3.0691,3.0902,3.1705,3.2567,3.3432,3.4302,3.4414,3.4582,3.5433,3.5602,3.5598,3.5598,3.5598,3.5598,3.5598,3.5598,3.561,3.5601,3.5606,3.5637,3.5684,3.5643,3.5606,3.5606,3.5596,3.5598,3.5598,3.5598,3.5598,3.5598,3.5598,3.5598,3.5598,3.5598,3.5598,3.5598,3.5521,3.55,3.55,3.55,3.5045,4.0846,0.0,0.0,0.0,0.0,0.0,0.0,0.0,0.0,0.0,0.0,0.0,0.0,0.0,0.0,0.0,0.0,0.0,0.0,0.0,0.0,0.0,0.0,0.0,0.0,0.0,0.0,0.0,3.6007,3.5991,3.5995,3.5996,3.5996,3.5996,3.5996,3.5996,3.5996,3.5996,3.5996,3.5996,3.5996,3.5995,3.5994,3.5994,3.5992,3.6009,3.6009,3.6008,3.5887,3.4387,3.3622,3.3254,3.1744,3.1003,3.0791,3.0788,3.0786,3.0809,3.0776,3.0781,3.0805,3.0869,3.0849,3.0806,3.0804,3.0795,3.0762,3.078,3.0771,3.0761,3.0761,3.0772,3.0989,3.1779,3.2642,3.3507,3.4329,3.4938,3.5377,3.5629,3.5665,3.5656,3.5614,3.5589,3.5602,3.5604,3.5596,3.5595,3.5601,3.5643,3.5679,3.5704,3.5679,3.5673,3.5673,3.5626,3.5589,3.5589,3.5589,3.5589,3.5589,3.5651,3.5651,3.5595,3.5589,3.5602,3.5598,3.5534,3.5489,3.5509,3.5494,3.5365,4.0781,4.0864,4.0929,0.0,0.0,0.0,4.1094,4.1109,0.0,0.0,0.0,0.0,0.0,0.0,0.0,0.0,0.0,0.0,0.0,0.0,0.0,0.0,0.0,0.0,0.0,0.0,0.0,3.6137,3.6002,3.6009,3.5995,3.5996,3.5996,3.5996,3.5996,3.5996,3.5996,3.5996,3.5996,3.5996,3.5996,3.5996,3.5996,3.5996,3.5995,3.5993,3.5993,3.5992,3.5854,3.4128,3.3402,3.3229,3.1509,3.0846,3.0848,3.0848,3.0848,3.0848,3.0833,3.0834,3.0854,3.0896,3.0877,3.0836,3.0836,3.0832,3.0847,3.0847,3.0843,3.0838,3.0815,3.0791,3.1094,3.2296,3.2951,3.3621,3.4828,3.5435,3.5733,3.5713,3.5706,3.5679,3.5643,3.5643,3.5637,3.5639,3.5631,3.5643,3.5643,3.5679,3.5704,3.5704,3.5704,3.5704,3.5704,3.5654,3.5643,3.5643,3.5643,3.5643,3.5643,3.5679,3.5679,3.5643,3.5643,3.5626,3.5596,3.5566,3.5547,3.5547,3.5541,3.5528,4.0662,4.0796,4.0893,0.0,0.0,0.0,4.1108,4.1094,4.1108,0.0,0.0,0.0,0.0,0.0,0.0,0.0,0.0,0.0,0.0,0.0,0.0,0.0,0.0,0.0,0.0,3.8591,3.7888,3.6129,3.6,3.6008,3.5994,3.5996,3.5996,3.5996,3.5996,3.5996,3.5996,3.5996,3.5996,3.5996,3.5996,3.5996,3.5996,3.5996,3.5996,3.5995,3.5995,3.5955,3.5738,3.4078,3.3394,3.3238,3.1558,3.0895,3.0895,3.0895,3.0895,3.0895,3.0897,3.0897,3.0897,3.0898,3.0898,3.0898,3.0898,3.0898,3.0897,3.0897,3.0897,3.0895,3.0832,3.087,3.1354,3.3009,3.3421,3.3887,3.5538,3.585,3.5766,3.5718,3.5706,3.5704,3.5704,3.5704,3.5704,3.5704,3.5704,3.5704,3.5704,3.5704,3.5704,3.5704,3.5704,3.5704,3.5704,3.5704,3.5704,3.5704,3.5704,3.5704,3.5704,3.5704,3.5704,3.5704,3.5704,3.5673,3.5606,3.5596,3.5604,3.5598,3.5598,3.5598,0.0,0.0,0.0,0.0,0.0,0.0,4.1088,4.1108,4.1094,0.0,0.0,0.0,0.0,0.0,0.0,0.0,0.0,0.0,0.0,0.0,0.0,0.0,0.0,0.0,0.0,3.8591,3.7888,3.6129,3.6,3.6005,3.6007,3.5993,3.5995,3.5995,3.5996,3.5996,3.5996,3.5996,3.5996,3.5996,3.5996,3.5996,3.5996,3.5996,3.5996,3.5996,3.5996,3.5605,3.4863,3.3828,3.3398,3.3221,3.1541,3.0897,3.0898,3.0898,3.0898,3.0898,3.0898,3.0898,3.0898,3.0898,3.0898,3.0898,3.0898,3.0898,3.0898,3.0898,3.0898,3.0898,3.0879,3.1366,3.2104,3.3141,3.3877,3.4622,3.5615,3.5763,3.5723,3.5693,3.5706,3.5704,3.5704,3.5704,3.5704,3.5704,3.5704,3.5704,3.5704,3.5704,3.5704,3.5704,3.5704,3.5704,3.5704,3.5704,3.5704,3.5704,3.5704,3.5704,3.5704,3.5704,3.5704,3.5704,3.5704,3.5684,3.5679,3.5631,3.5602,3.5598,3.5598,3.5598,0.0,0.0,0.0,4.0828,0.0,0.0,0.0,4.1087,4.1107,4.1094,0.0,0.0,0.0,0.0,0.0,0.0,0.0,0.0,0.0,0.0,0.0,0.0,0.0,0.0,0.0,3.8591,3.7888,3.6129,3.6,3.6004,3.6004,3.5991,3.5993,3.5993,3.5995,3.5996,3.5996,3.5996,3.5996,3.5996,3.5996,3.5996,3.5996,3.5996,3.5996,3.5996,3.5996,3.5508,3.4629,3.3769,3.3164,3.2675,3.1406,3.0898,3.0898,3.0898,3.0898,3.0898,3.0898,3.0898,3.0898,3.0898,3.0898,3.0898,3.0898,3.0898,3.0898,3.0898,3.0898,3.0898,3.0898,3.1504,3.2321,3.3189,3.4005,3.4828,3.5626,3.5775,3.5732,3.5718,3.5706,3.5704,3.5704,3.5704,3.5704,3.5704,3.5704,3.5704,3.5704,3.5704,3.5704,3.5704,3.5704,3.5704,3.5704,3.5704,3.5704,3.5704,3.5704,3.5704,3.5704,3.5704,3.5704,3.5704,3.5704,3.5704,3.5704,3.5673,3.5656,3.5645,3.5645,3.5645,0.0,0.0,0.0,0.0,0.0,4.0896,0.0,0.0,0.0,4.1105,0.0,0.0,0.0,0.0,0.0,0.0,0.0,0.0,0.0,0.0,0.0,0.0,0.0,0.0,0.0,3.8298,3.7516,3.6109,3.5999,3.6002,3.6002,3.6007,3.6009,3.6009,3.5993,3.5994,3.5995,3.5996,3.5996,3.5996,3.5996,3.5996,3.5996,3.5996,3.5996,3.5996,3.5996,3.5508,3.4629,3.3769,3.293,3.2109,3.123,3.0898,3.0898,3.0898,3.0898,3.0898,3.0898,3.0898,3.0898,3.0898,3.0898,3.0898,3.0898,3.0898,3.0898,3.0898,3.0898,3.0937,3.1113,3.1757,3.2575,3.3445,3.4261,3.5022,3.5664,3.5799,3.5757,3.5707,3.5701,3.5704,3.5704,3.5704,3.5704,3.5704,3.5704,3.5704,3.5704,3.5704,3.5704,3.5704,3.5704,3.5704,3.5704,3.5704,3.5704,3.5704,3.5704,3.5704,3.5704,3.5704,3.5704,3.5704,3.5704,3.5704,3.5704,3.5704,3.5704,3.5704,3.5704,3.5704,0.0,0.0,0.0,0.0,4.0726,0.0,0.0,0.0,4.1022,4.1092,0.0,0.0,0.0,0.0,0.0,0.0,0.0,0.0,0.0,0.0,0.0,0.0,0.0,0.0,0.0,0.0,3.6207,3.6012,3.5994,3.5994,3.5994,3.6001,3.6005,3.6005,3.6009,3.5993,3.5995,3.5995,3.5996,3.5996,3.5996,3.5996,3.5996,3.5996,3.5996,3.5996,3.5996,3.5508,3.4629,3.3769,3.293,3.2109,3.123,3.0898,3.0898,3.0898,3.0898,3.0898,3.0898,3.0898,3.0898,3.0898,3.0898,3.0898,3.0898,3.0898,3.0898,3.0898,3.0898,3.1074,3.1855,3.2655,3.3469,3.4348,3.5171,3.5759,3.5795,3.5757,3.5707,3.5695,3.5709,3.5704,3.5704,3.5704,3.5704,3.5704,3.5704,3.5704,3.5704,3.5704,3.5704,3.5704,3.5704,3.5704,3.5704,3.5704,3.5704,3.5704,3.5704,3.5704,3.5704,3.5704,3.5704,3.5704,3.5704,3.5704,3.5704,3.5704,3.5704,3.5704,3.5704,3.5704,0.0,0.0,0.0,0.0,0.0,0.0,4.0754,0.0,4.0917,0.0,0.0,0.0,0.0,0.0,0.0,0.0,0.0,0.0,0.0,0.0,0.0,0.0,0.0,0.0,0.0,0.0,0.0,0.0,0.0,3.5992,3.5992,3.5996,3.5998,3.5998,3.6004,3.6008,3.599,3.5992,3.5993,3.5994,3.5994,3.5995,3.5996,3.5996,3.5996,3.5996,3.5996,3.5508,3.4629,3.3769,3.293,3.2109,3.125,3.0898,3.0898,3.0898,3.0897,3.0897,3.0897,3.0897,3.0897,3.0897,3.0897,3.0898,3.0897,3.0897,3.0897,3.0897,3.0897,3.1092,3.1933,3.2772,3.3623,3.448,3.5276,3.5836,3.5821,3.5742,3.5702,3.569,3.5704,3.5704,3.5704,3.5704,3.5704,3.5704,3.5704,3.5704,3.5704,3.5704,3.5704,3.5704,3.5704,3.5704,3.5704,3.5704,3.5704,3.5704,3.5704,3.5704,3.5704,3.5704,3.5704,3.5704,3.5704,3.5704,3.5704,3.5704,3.5704,3.5704,3.5704,3.5704,3.9682,0.0,0.0,0.0,0.0,0.0,0.0,0.0,0.0,0.0,0.0,0.0,0.0,0.0,0.0,0.0,0.0,0.0,0.0,0.0,0.0,0.0,0.0,0.0,0.0,0.0,0.0,0.0,0.0,0.0,3.5992,3.5992,3.5992,3.5992,3.5999,3.6003,3.6006,3.6009,3.5992,3.5993,3.5993,3.5994,3.5995,3.5995,3.5996,3.5996,3.5996,3.5644,3.4961,3.3867,3.3066,3.2421,3.1327,3.0896,3.0895,3.0896,3.0896,3.0894,3.0894,3.0894,3.0894,3.0894,3.0895,3.0896,3.0895,3.0894,3.0894,3.0894,3.105,3.1422,3.2245,3.3104,3.3972,3.4827,3.5419,3.5799,3.5797,3.5747,3.5693,3.5692,3.5711,3.5711,3.5711,3.5695,3.5704,3.5704,3.5704,3.5704,3.5704,3.5704,3.5704,3.5704,3.5704,3.5704,3.5704,3.5704,3.5704,3.5704,3.5704,3.5704,3.5704,3.5704,3.5704,3.5704,3.5704,3.5704,3.5704,3.5704,3.5704,3.5704,3.5704,3.5704,0.0,0.0,0.0,3.8652,0.0,0.0,0.0,0.0,3.8138,0.0,0.0,0.0,0.0,0.0,3.8494,3.8504,3.8532,0.0,0.0,0.0,0.0,0.0,0.0,0.0,0.0,0.0,0.0,0.0,0.0,0.0,3.5992,3.5992,3.5992,3.5992,3.5992,3.6,3.5991,3.5991,3.5994,3.5996,3.5996,3.5996,3.5996,3.5996,3.5996,3.5995,3.5995,3.5974,3.5835,3.4116,3.3374,3.3198,3.1539,3.0892,3.0908,3.0893,3.0894,3.0894,3.0894,3.0894,3.0894,3.0894,3.0894,3.0894,3.0894,3.0894,3.0894,3.0894,3.146,3.2262,3.3125,3.4001,3.4865,3.5667,3.5824,3.5795,3.5793,3.5742,3.5704,3.5704,3.5704,3.5704,3.5704,3.5702,3.5704,3.5704,3.5704,3.5704,3.5704,3.5704,3.5704,3.5704,3.5704,3.5704,3.5704,3.5704,3.5704,3.5704,3.5704,3.5704,3.5704,3.5704,3.5704,3.5704,3.5704,3.5704,3.5704,3.5704,3.5704,3.5704,3.5704,3.5704,0.0,0.0,3.7555,3.7656,0.0,0.0,0.0,0.0,0.0,0.0,0.0,0.0,0.0,0.0,3.6737,3.6762,3.7261,3.7746,0.0,0.0,0.0,0.0,0.0,0.0,0.0,0.0,0.0,0.0,0.0,0.0,0.0,3.5992,3.5995,3.6,3.6001,3.6006,3.5994,3.5994,3.5995,3.5996,3.5996,3.5996,3.5995,3.5996,3.5996,3.5996,3.5995,3.5993,3.5854,3.4116,3.3393,3.3236,3.1555,3.0909,3.0908,3.091,3.0869,3.0826,3.0826,3.0868,3.089,3.0848,3.0868,3.089,3.0848,3.0826,3.0826,3.0826,3.1454,3.2298,3.3163,3.404,3.4902,3.5706,3.5846,3.5799,3.5793,3.5742,3.5708,3.5708,3.5708,3.5708,3.5708,3.5694,3.5693,3.5697,3.5692,3.5692,3.5692,3.5707,3.5693,3.5697,3.5688,3.5707,3.5709,3.5706,3.5702,3.5698,3.5698,3.5698,3.5698,3.5698,3.5693,3.5697,3.5692,3.5706,3.5704,3.5704,3.5704,3.5704,3.5704,3.5704,3.7519,3.7026,0.0,3.6613,3.6464,0.0,3.654,0.0,0.0,0.0,0.0,0.0,0.0,0.0,3.5753,3.582,3.6323,3.6928,0.0,3.8922,0.0,0.0,0.0,0.0,0.0,0.0,0.0,0.0,3.6489,0.0,0.0,0.0,3.6003,3.6009,3.6009,3.5993,3.5996,3.5996,3.5995,3.5993,3.5972,3.5972,3.5991,3.5993,3.5995,3.5996,3.5995,3.5993,3.5891,3.4444,3.3682,3.3251,3.1863,3.1139,3.0865,3.0865,3.0844,3.08,3.08,3.0823,3.0864,3.0803,3.0823,3.0864,3.0801,3.08,3.086,3.1175,3.1884,3.2768,3.3633,3.4485,3.5264,3.5771,3.5856,3.5803,3.5801,3.5765,3.5732,3.5732,3.5732,3.5732,3.5732,3.5747,3.5732,3.5703,3.5703,3.5703,3.5703,3.5699,3.5699,3.5703,3.5699,3.5694,3.5697,3.5693,3.5708,3.5704,3.5708,3.5708,3.5708,3.5708,3.5699,3.5703,3.5703,3.5693,3.5697,3.5706,3.5701,3.5701,3.569,3.5704]}]]